[[{"header":{"parameterUnit":"m.s-1","parameterCategory":1,"la1":30.6,"la2":29.2853,"lo1":-89.7004,"lo2":-87.6739,"dy":0.0162,"dx":0.0183,"nx":112,"ny":82,"refTime":"2023-05-13T06:00:00:Z","depth":0,"parameterNumber":2,"parameterNumberName":"U-component_of_WINDS"},"data":[0.0,0.0,0.0,0.0,0.0,0.0,0.0,0.0,0.0,0.0,0.0,0.0,0.0,0.0,0.0,0.0,0.0,0.0,0.0,0.0,0.0,0.0,0.0,0.0,0.0,0.0,0.0,0.0,0.0,0.0,0.0,0.0,0.0,0.0,0.0,0.0,0.0,0.0,0.0,0.0,0.0,0.0,0.0,0.0,0.0,0.0,0.0,0.0,0.0,0.0,0.0,0.0,0.0,0.0,0.0,0.0,0.0,0.0,0.0,0.0,0.0,0.0,0.0,0.0,0.0,0.0,0.0,0.0,0.0,0.0,0.0,0.0,0.0,0.0,0.0,0.0,0.0,0.0,0.0,0.0,0.0,0.0,0.0,0.0,0.0,0.0,0.0,0.0,0.0,0.0,-2.5469,-2.627,-2.8166,-2.9219,-2.8793,-2.8646,-2.7606,-2.5412,0.0,0.0,0.0,0.0,0.0,0.0,0.0,0.0,0.0,0.0,0.0,0.0,0.0,0.0,0.0,0.0,0.0,0.0,0.0,0.0,0.0,0.0,0.0,0.0,0.0,0.0,0.0,0.0,0.0,0.0,0.0,0.0,0.0,0.0,0.0,0.0,0.0,0.0,0.0,0.0,0.0,0.0,0.0,0.0,0.0,0.0,0.0,0.0,0.0,0.0,0.0,0.0,0.0,0.0,0.0,0.0,0.0,0.0,0.0,0.0,0.0,0.0,0.0,0.0,0.0,0.0,0.0,0.0,0.0,0.0,0.0,0.0,0.0,0.0,0.0,0.0,0.0,0.0,0.0,0.0,0.0,0.0,0.0,0.0,0.0,0.0,0.0,0.0,0.0,0.0,0.0,0.0,0.0,0.0,0.0,0.0,0.0,0.0,0.0,0.0,0.0,0.0,0.0,0.0,-2.6863,-2.8933,-2.9536,-2.9682,-2.9627,-2.8887,-2.767,-2.5814,0.0,0.0,0.0,0.0,0.0,0.0,0.0,0.0,0.0,0.0,0.0,0.0,0.0,0.0,0.0,0.0,0.0,0.0,0.0,0.0,0.0,0.0,0.0,0.0,0.0,0.0,0.0,0.0,0.0,0.0,0.0,0.0,0.0,0.0,0.0,0.0,0.0,0.0,0.0,0.0,0.0,0.0,0.0,0.0,0.0,0.0,0.0,0.0,0.0,0.0,0.0,0.0,0.0,0.0,0.0,0.0,0.0,0.0,0.0,0.0,0.0,0.0,0.0,0.0,0.0,0.0,0.0,0.0,0.0,0.0,0.0,0.0,0.0,0.0,0.0,0.0,0.0,0.0,0.0,0.0,0.0,0.0,0.0,0.0,0.0,0.0,0.0,0.0,0.0,0.0,0.0,0.0,0.0,0.0,0.0,0.0,0.0,0.0,0.0,0.0,0.0,0.0,0.0,-2.6203,-2.7503,-2.9571,-3.0006,-3.0075,-2.9824,-2.8769,-2.74,-2.5876,-2.4655,0.0,0.0,0.0,0.0,0.0,0.0,0.0,0.0,0.0,0.0,0.0,0.0,0.0,0.0,0.0,0.0,0.0,0.0,0.0,0.0,0.0,0.0,0.0,0.0,0.0,0.0,0.0,0.0,0.0,0.0,0.0,0.0,0.0,0.0,0.0,0.0,0.0,0.0,0.0,0.0,0.0,0.0,0.0,0.0,0.0,0.0,0.0,0.0,0.0,0.0,0.0,0.0,0.0,0.0,0.0,0.0,0.0,0.0,0.0,0.0,0.0,0.0,0.0,0.0,0.0,0.0,0.0,0.0,0.0,0.0,0.0,0.0,0.0,0.0,0.0,0.0,0.0,0.0,0.0,0.0,0.0,0.0,0.0,0.0,0.0,0.0,0.0,0.0,0.0,0.0,0.0,0.0,0.0,0.0,0.0,0.0,0.0,0.0,0.0,0.0,0.0,0.0,-2.7377,-2.8489,-2.9896,-3.0408,-3.0478,-3.0095,-2.8679,-2.7237,-2.609,-2.4241,0.0,0.0,0.0,0.0,0.0,0.0,0.0,0.0,0.0,0.0,0.0,0.0,0.0,0.0,0.0,0.0,0.0,0.0,0.0,0.0,0.0,0.0,0.0,0.0,0.0,0.0,0.0,0.0,0.0,0.0,0.0,0.0,0.0,0.0,0.0,0.0,0.0,0.0,0.0,0.0,0.0,0.0,0.0,0.0,0.0,0.0,0.0,0.0,0.0,0.0,0.0,0.0,0.0,0.0,0.0,0.0,0.0,0.0,0.0,0.0,0.0,0.0,0.0,0.0,0.0,0.0,0.0,0.0,0.0,0.0,0.0,0.0,0.0,0.0,0.0,0.0,0.0,0.0,0.0,0.0,0.0,0.0,0.0,0.0,0.0,0.0,0.0,0.0,0.0,0.0,0.0,0.0,0.0,0.0,0.0,0.0,0.0,0.0,0.0,0.0,0.0,0.0,-2.9358,-3.076,-3.0917,-3.0944,-3.093,-3.0944,-2.8921,-2.7304,-2.6607,-2.4103,0.0,0.0,0.0,0.0,0.0,0.0,0.0,0.0,0.0,0.0,0.0,0.0,0.0,0.0,0.0,0.0,0.0,0.0,0.0,0.0,0.0,0.0,0.0,0.0,0.0,0.0,0.0,0.0,0.0,0.0,0.0,0.0,0.0,0.0,0.0,0.0,0.0,0.0,0.0,0.0,0.0,0.0,0.0,0.0,0.0,0.0,0.0,0.0,0.0,0.0,0.0,0.0,0.0,0.0,0.0,0.0,0.0,0.0,0.0,0.0,0.0,0.0,0.0,0.0,0.0,0.0,0.0,0.0,0.0,0.0,0.0,0.0,0.0,0.0,0.0,0.0,0.0,0.0,0.0,0.0,0.0,0.0,0.0,0.0,0.0,0.0,0.0,0.0,0.0,0.0,0.0,0.0,0.0,0.0,0.0,0.0,0.0,0.0,0.0,0.0,0.0,0.0,-2.8072,-2.9248,-3.0333,-3.0451,-3.0216,-2.9804,-2.8201,-2.6724,-2.5455,0.0,0.0,0.0,0.0,0.0,0.0,0.0,0.0,0.0,0.0,0.0,0.0,0.0,0.0,0.0,0.0,0.0,0.0,0.0,0.0,0.0,0.0,0.0,0.0,0.0,0.0,0.0,0.0,0.0,0.0,0.0,0.0,0.0,0.0,0.0,0.0,0.0,0.0,0.0,0.0,0.0,0.0,0.0,0.0,0.0,0.0,0.0,0.0,0.0,0.0,0.0,0.0,0.0,0.0,0.0,0.0,0.0,0.0,0.0,0.0,0.0,0.0,0.0,0.0,0.0,0.0,0.0,0.0,0.0,0.0,0.0,0.0,0.0,0.0,0.0,0.0,0.0,0.0,0.0,0.0,0.0,0.0,0.0,0.0,0.0,0.0,0.0,0.0,0.0,0.0,0.0,0.0,0.0,0.0,0.0,0.0,0.0,0.0,0.0,0.0,0.0,0.0,-2.6569,-2.7497,-2.8543,-2.9804,-2.9704,-2.94,-2.8908,-2.736,-2.5791,-2.4441,0.0,0.0,0.0,0.0,0.0,0.0,0.0,0.0,0.0,0.0,0.0,0.0,0.0,0.0,0.0,0.0,0.0,0.0,0.0,0.0,0.0,0.0,0.0,0.0,0.0,0.0,0.0,0.0,0.0,0.0,0.0,0.0,0.0,0.0,0.0,0.0,0.0,0.0,0.0,0.0,0.0,0.0,0.0,0.0,0.0,0.0,0.0,0.0,0.0,0.0,0.0,0.0,0.0,0.0,0.0,0.0,0.0,0.0,0.0,0.0,0.0,0.0,0.0,0.0,0.0,0.0,0.0,0.0,0.0,0.0,0.0,0.0,0.0,0.0,0.0,0.0,0.0,0.0,0.0,0.0,0.0,0.0,0.0,0.0,0.0,0.0,0.0,0.0,0.0,0.0,0.0,0.0,0.0,0.0,0.0,0.0,0.0,0.0,0.0,0.0,0.0,0.0,-2.6661,-2.819,-2.9332,-2.9473,-2.8808,-2.8507,-2.8638,-2.6431,-2.4672,0.0,0.0,0.0,0.0,0.0,0.0,0.0,0.0,0.0,0.0,0.0,0.0,0.0,0.0,0.0,0.0,0.0,0.0,0.0,0.0,0.0,0.0,0.0,0.0,0.0,0.0,0.0,0.0,0.0,0.0,0.0,0.0,0.0,0.0,0.0,0.0,0.0,0.0,0.0,0.0,0.0,0.0,0.0,0.0,0.0,0.0,0.0,0.0,0.0,0.0,0.0,0.0,0.0,0.0,0.0,0.0,0.0,0.0,0.0,0.0,0.0,0.0,0.0,0.0,0.0,0.0,0.0,0.0,0.0,0.0,0.0,0.0,0.0,0.0,0.0,0.0,0.0,0.0,0.0,0.0,0.0,0.0,0.0,0.0,0.0,0.0,0.0,0.0,0.0,0.0,0.0,0.0,0.0,0.0,0.0,0.0,0.0,0.0,0.0,0.0,0.0,0.0,0.0,-2.6073,-2.7236,-2.8053,-2.8177,-2.7933,-2.7494,-2.6615,-2.5577,-2.4154,-2.2083,0.0,0.0,0.0,0.0,0.0,0.0,0.0,0.0,0.0,0.0,0.0,0.0,0.0,0.0,0.0,0.0,0.0,0.0,0.0,0.0,0.0,0.0,0.0,0.0,0.0,0.0,0.0,0.0,0.0,0.0,0.0,0.0,0.0,0.0,0.0,0.0,0.0,0.0,0.0,0.0,0.0,0.0,0.0,0.0,0.0,0.0,0.0,0.0,0.0,0.0,0.0,0.0,0.0,0.0,0.0,0.0,0.0,0.0,0.0,0.0,0.0,0.0,0.0,0.0,0.0,0.0,0.0,0.0,0.0,0.0,0.0,0.0,0.0,0.0,0.0,0.0,0.0,0.0,0.0,0.0,0.0,0.0,0.0,0.0,0.0,0.0,0.0,0.0,0.0,0.0,0.0,0.0,0.0,0.0,0.0,0.0,0.0,0.0,0.0,0.0,0.0,0.0,-2.5824,-2.7027,-2.7699,-2.7403,-2.7258,-2.6729,-2.5588,-2.4687,-2.3425,-2.1622,0.0,0.0,0.0,0.0,0.0,0.0,0.0,0.0,0.0,0.0,0.0,0.0,0.0,0.0,0.0,0.0,0.0,0.0,0.0,0.0,0.0,0.0,0.0,0.0,0.0,0.0,0.0,0.0,0.0,0.0,0.0,0.0,0.0,0.0,0.0,0.0,0.0,0.0,0.0,0.0,0.0,0.0,0.0,0.0,0.0,0.0,0.0,0.0,0.0,0.0,0.0,0.0,0.0,0.0,0.0,0.0,0.0,0.0,0.0,0.0,0.0,0.0,0.0,0.0,0.0,0.0,0.0,0.0,0.0,0.0,0.0,0.0,0.0,0.0,0.0,0.0,0.0,0.0,0.0,0.0,0.0,0.0,0.0,0.0,0.0,0.0,0.0,0.0,0.0,0.0,0.0,0.0,0.0,0.0,0.0,0.0,0.0,0.0,0.0,0.0,0.0,0.0,-2.5699,-2.7196,-2.7812,-2.6875,-2.6574,-2.6104,-2.5206,-2.379,-2.2698,-2.1959,0.0,0.0,0.0,0.0,0.0,0.0,0.0,0.0,0.0,0.0,0.0,0.0,0.0,0.0,0.0,0.0,0.0,0.0,0.0,0.0,0.0,0.0,0.0,0.0,0.0,0.0,0.0,0.0,0.0,0.0,0.0,0.0,0.0,0.0,0.0,0.0,0.0,0.0,0.0,0.0,0.0,0.0,0.0,0.0,0.0,0.0,0.0,0.0,0.0,0.0,0.0,0.0,0.0,0.0,0.0,0.0,0.0,0.0,0.0,0.0,-2.3361,-2.2596,0.0,0.0,0.0,0.0,0.0,0.0,0.0,0.0,0.0,0.0,0.0,0.0,0.0,0.0,0.0,0.0,0.0,0.0,0.0,0.0,0.0,0.0,0.0,0.0,0.0,0.0,0.0,0.0,0.0,0.0,0.0,0.0,0.0,0.0,0.0,0.0,0.0,0.0,0.0,0.0,-2.4975,-2.6038,-2.6332,-2.5063,-2.5088,-2.4765,-2.3813,-2.3298,-2.241,-2.114,-2.041,0.0,0.0,0.0,0.0,0.0,0.0,0.0,0.0,0.0,0.0,0.0,0.0,0.0,0.0,0.0,0.0,0.0,0.0,0.0,0.0,0.0,0.0,0.0,0.0,0.0,0.0,0.0,0.0,0.0,0.0,0.0,0.0,0.0,0.0,0.0,0.0,0.0,0.0,0.0,0.0,0.0,0.0,0.0,0.0,0.0,0.0,0.0,0.0,0.0,0.0,0.0,0.0,0.0,0.0,0.0,0.0,0.0,0.0,0.0,-2.2731,-2.2353,0.0,0.0,0.0,0.0,0.0,0.0,0.0,0.0,0.0,0.0,0.0,0.0,0.0,0.0,0.0,0.0,0.0,0.0,0.0,0.0,0.0,0.0,0.0,0.0,0.0,0.0,0.0,0.0,0.0,0.0,0.0,0.0,0.0,0.0,0.0,0.0,0.0,0.0,0.0,0.0,-2.4859,-2.5692,-2.5837,-2.4659,-2.4714,-2.4407,-2.3394,-2.2927,-2.2413,-2.1638,-2.07,0.0,0.0,0.0,0.0,0.0,0.0,0.0,0.0,0.0,0.0,0.0,0.0,0.0,0.0,0.0,0.0,0.0,0.0,0.0,0.0,0.0,0.0,0.0,0.0,0.0,0.0,0.0,0.0,0.0,0.0,0.0,0.0,0.0,0.0,0.0,0.0,0.0,0.0,0.0,0.0,0.0,0.0,0.0,0.0,0.0,0.0,0.0,0.0,0.0,0.0,0.0,0.0,0.0,-2.3607,-2.356,-2.2891,-2.295,-2.2927,-2.2855,-2.2702,-2.2702,-2.2809,-2.2332,0.0,0.0,0.0,0.0,0.0,0.0,0.0,0.0,0.0,0.0,0.0,0.0,0.0,0.0,0.0,0.0,0.0,0.0,0.0,0.0,0.0,0.0,-2.155,-2.1652,-2.1954,-2.2533,-2.3541,0.0,0.0,0.0,0.0,0.0,0.0,0.0,0.0,0.0,0.0,0.0,-2.4726,-2.5338,-2.5384,-2.4394,-2.4522,-2.4231,-2.3108,-2.2628,-2.2402,-2.2327,-2.1177,-2.0328,0.0,0.0,0.0,0.0,0.0,0.0,0.0,0.0,0.0,0.0,0.0,0.0,0.0,0.0,0.0,0.0,0.0,0.0,0.0,0.0,0.0,0.0,0.0,0.0,0.0,0.0,0.0,0.0,0.0,0.0,0.0,0.0,-2.1311,-2.1854,0.0,0.0,0.0,0.0,0.0,0.0,0.0,0.0,0.0,0.0,0.0,0.0,0.0,-2.3622,-2.3766,-2.389,-2.3884,-2.3758,-2.4319,-2.4316,-2.3777,-2.3761,-2.3722,-2.3722,-2.3509,0.0,-2.2853,-2.3083,0.0,0.0,0.0,0.0,0.0,0.0,0.0,0.0,0.0,0.0,0.0,0.0,0.0,0.0,0.0,0.0,0.0,0.0,0.0,0.0,0.0,0.0,-2.3754,-2.3758,-2.3876,-2.3921,-2.391,-2.32,-2.2604,-2.2598,-2.3397,-2.3855,0.0,0.0,0.0,0.0,0.0,0.0,-2.3595,-2.4059,-2.3909,-2.2841,-2.3045,-2.2917,-2.2035,-2.2252,-2.2252,-2.1883,-2.1694,-2.1046,-1.9743,-1.9899,0.0,0.0,0.0,0.0,0.0,0.0,0.0,0.0,0.0,0.0,0.0,0.0,0.0,0.0,0.0,0.0,0.0,0.0,0.0,0.0,0.0,0.0,0.0,0.0,0.0,0.0,0.0,0.0,0.0,-2.1766,-2.2226,-2.2136,-2.2479,-2.2683,0.0,0.0,0.0,0.0,0.0,0.0,0.0,0.0,0.0,-2.4451,-2.4463,-2.4609,-2.4764,-2.4716,-2.4695,-2.4566,-2.4494,-2.4322,-2.4043,-2.3824,-2.3446,-2.3075,-2.3075,-2.2722,-2.2125,-2.2512,-2.2149,-2.1161,0.0,0.0,0.0,0.0,-1.8381,-1.8328,-1.7663,-1.7414,-1.7286,-1.6822,0.0,0.0,0.0,0.0,0.0,0.0,0.0,-2.0963,-2.1449,-2.2153,-2.2955,-2.3379,-2.353,-2.3593,-2.3666,-2.3436,-2.3225,-2.3073,-2.3349,-2.337,-2.2732,-2.3274,0.0,0.0,0.0,-2.3845,-2.3525,-2.3268,-2.3054,-2.2777,-2.2478,-2.2252,-2.1949,-2.2035,-2.1949,-2.1807,-2.1578,-2.0928,-1.982,-1.9717,-1.8858,0.0,0.0,0.0,0.0,0.0,0.0,0.0,0.0,0.0,0.0,0.0,0.0,0.0,0.0,0.0,0.0,0.0,0.0,0.0,0.0,0.0,0.0,0.0,0.0,0.0,0.0,0.0,0.0,-2.2399,-2.2702,-2.2341,-2.2852,-2.32,0.0,0.0,0.0,0.0,0.0,0.0,-2.4394,-2.4406,-2.4585,-2.5215,-2.5159,-2.5286,-2.5535,-2.5312,-2.5111,-2.4826,-2.4406,-2.4127,-2.4043,-2.3519,-2.3001,-2.2478,-2.2392,-2.1928,-2.1288,-2.184,-2.1555,-2.0683,-2.0056,-1.9647,-1.9287,-1.8564,-1.8238,-1.8152,-1.738,-1.7192,-1.7046,-1.6679,-1.6505,-1.6504,-1.6584,0.0,0.0,0.0,0.0,-2.0254,-2.1028,-2.1269,-2.1554,-2.22,-2.236,-2.2435,-2.267,-2.2881,-2.3094,-2.3518,-2.3433,-2.3082,-2.2421,-2.3048,0.0,-2.2386,-2.2798,-2.3242,-2.3379,-2.2772,-2.2478,-2.2703,-2.2176,-2.1883,-2.1949,-2.1645,-2.1492,-2.1492,-2.0867,-2.0216,-1.9474,-1.9028,-1.8212,-1.7004,0.0,0.0,0.0,0.0,0.0,0.0,0.0,0.0,0.0,0.0,0.0,0.0,0.0,0.0,0.0,0.0,0.0,0.0,0.0,0.0,0.0,0.0,0.0,0.0,0.0,0.0,0.0,0.0,0.0,-2.2218,-2.2995,0.0,0.0,0.0,0.0,-2.4434,-2.4316,-2.4431,-2.5025,-2.4847,-2.5022,-2.5557,-2.5417,-2.5288,-2.5312,-2.5182,-2.4838,-2.4273,-2.42,-2.397,-2.3593,-2.2852,-2.2553,-2.2628,-2.1928,-2.1155,-2.0615,-2.1507,-2.1476,-2.0935,-2.0693,-2.0052,-1.9068,-1.84,-1.7854,-1.7301,-1.6895,-1.6706,-1.6651,-1.6373,-1.6182,-1.626,-1.6867,-1.7177,0.0,0.0,-1.9448,-1.9563,-2.0755,-2.0844,-2.0584,-2.0604,-2.0613,-2.0546,-2.042,-2.049,-2.1143,-2.3239,-2.3756,-2.3575,-2.2749,0.0,-2.3292,-2.2419,-2.2737,-2.2938,-2.2754,-2.2531,-2.2252,-2.1883,-2.2035,-2.1949,-2.1578,-2.0944,-2.0537,-2.0537,-1.9404,-1.8532,-1.8069,-1.8288,-1.7548,-1.592,-1.671,0.0,0.0,0.0,0.0,0.0,0.0,0.0,0.0,0.0,0.0,0.0,0.0,0.0,0.0,0.0,0.0,0.0,0.0,0.0,0.0,0.0,0.0,0.0,0.0,0.0,0.0,0.0,0.0,-2.2809,-2.3899,0.0,-2.4325,-2.4595,-2.4871,-2.4992,-2.4976,-2.5038,-2.5383,-2.5244,-2.5189,-2.5382,-2.5312,-2.5241,-2.5182,-2.4981,-2.4706,-2.4418,-2.4273,-2.3824,-2.3224,-2.2927,-2.2241,-2.1242,-2.1001,-2.0459,-1.9766,-2.007,-2.0062,-1.9927,-1.985,-1.9388,-1.8811,-1.8241,-1.7738,-1.7282,-1.6854,-1.673,-1.6714,-1.6587,-1.6533,-1.661,-1.7414,-1.7699,-1.7916,-1.9127,-1.9357,-1.9394,-1.9944,-2.0051,-1.9963,-2.011,-2.011,-2.011,-2.0051,-2.0159,-2.0476,-2.1104,-2.1357,-2.1248,-2.0619,-2.1364,-2.1702,-2.0744,-2.1395,-2.203,-2.1907,-2.1155,-2.0769,-2.1088,-2.1011,-2.0702,-2.0313,-2.0391,-2.0226,-1.9502,-1.87,-1.773,-1.6748,-1.7048,-1.6762,-1.5546,-1.6841,-1.7057,0.0,0.0,0.0,0.0,0.0,0.0,0.0,0.0,0.0,0.0,0.0,0.0,0.0,0.0,0.0,0.0,0.0,0.0,0.0,0.0,0.0,0.0,0.0,0.0,0.0,-2.28,-2.3479,-2.3349,-2.4406,-2.5124,-2.5146,-2.5038,-2.5002,-2.5208,-2.5107,-2.5087,-2.5312,-2.5312,-2.5382,-2.5535,-2.5382,-2.5241,-2.504,-2.4849,-2.4574,-2.4273,-2.4127,-2.374,-2.3001,-2.2692,-2.1842,-2.0459,-2.0235,-1.9766,-1.9301,-1.9301,-1.9222,-1.9073,-1.9073,-1.8843,-1.8371,-1.7959,-1.7554,-1.7147,-1.6812,-1.673,-1.673,-1.673,-1.673,-1.6812,-1.7367,-1.7521,-1.7764,-1.863,-1.863,-1.8559,-1.8957,-1.8807,-1.8647,-1.8789,-1.8789,-1.8789,-1.8789,-1.9027,-1.9186,-1.8868,-1.9512,-2.0012,-1.9612,-2.0168,-2.0525,-2.0007,-2.0549,-2.1018,-2.1181,-2.0285,-1.9904,-2.045,-2.0226,-1.9991,-1.9756,-1.9712,-1.9372,-1.8621,-1.7709,-1.6734,-1.5779,-1.5853,-1.5554,-1.4911,-1.5929,-1.6443,-1.6544,0.0,0.0,0.0,0.0,0.0,0.0,0.0,0.0,0.0,0.0,0.0,0.0,0.0,0.0,0.0,0.0,0.0,0.0,0.0,0.0,0.0,0.0,0.0,-2.1785,-2.2436,-2.3062,-2.3749,-2.4339,-2.4989,-2.5832,-2.5196,-2.4791,-2.4933,-2.4659,-2.4515,-2.4647,-2.5016,-2.5465,-2.5828,-2.5465,-2.5158,-2.5004,-2.4694,-2.4345,-2.3897,-2.3897,-2.3593,-2.2927,-2.2145,-2.1298,-2.0391,-1.9608,-1.9301,-1.9301,-1.9301,-1.9082,-1.87,-1.87,-1.8371,-1.7951,-1.7554,-1.7066,-1.673,-1.673,-1.673,-1.673,-1.673,-1.673,-1.673,-1.673,-1.673,-1.6894,-1.7683,-1.7367,-1.6894,-1.7764,-1.7367,-1.673,-1.673,-1.673,-1.673,-1.673,-1.7066,-1.7229,-1.6812,-1.855,-2.0051,-1.9816,-1.9825,-1.9995,-2.0347,-2.0101,0.0,-2.0422,-2.012,-1.9816,-1.9806,-1.9806,-1.9806,-1.9806,-1.8761,-1.8013,-1.798,-1.6389,-1.5404,-1.5075,-1.4625,-1.4218,-1.3906,-1.3892,-1.4603,-1.6031,0.0,0.0,0.0,0.0,0.0,0.0,0.0,0.0,0.0,0.0,0.0,0.0,0.0,0.0,0.0,0.0,0.0,0.0,0.0,0.0,0.0,-1.9449,-2.0296,-2.0514,-2.1209,-2.207,-2.3052,-2.4163,-2.4933,-2.5199,-2.5216,-2.4933,-2.4409,-2.4009,-2.3948,-2.4131,-2.4082,-2.4383,-2.5016,-2.4933,-2.4933,-2.5004,-2.4874,-2.4611,-2.4116,-2.4116,-2.3434,-2.2145,-2.1918,-2.0991,-1.9608,-1.9381,-1.9301,-1.9301,-1.9002,-1.8772,-1.87,-1.87,-1.821,-1.7554,-1.7473,-1.7066,-1.673,-1.673,-1.673,-1.673,-1.673,-1.673,-1.673,-1.673,-1.673,-1.673,-1.6968,-1.6894,-1.673,-1.6968,-1.6894,-1.673,-1.673,-1.673,-1.673,-1.673,-1.682,-1.6812,-1.6738,-1.7367,-1.7844,-1.7602,-1.8247,-1.8612,-1.8267,-1.8833,-1.9265,-1.9381,-1.8744,-1.8382,-1.8578,-1.8629,-1.8395,-1.8013,-1.7752,-1.7375,-1.6854,-1.5973,-1.5223,-1.4817,-1.4657,-1.4532,-1.4282,-1.4479,-1.4764,0.0,0.0,0.0,0.0,0.0,0.0,0.0,0.0,0.0,0.0,0.0,0.0,0.0,0.0,0.0,0.0,0.0,0.0,0.0,0.0,0.0,0.0,-1.8649,-1.9301,-1.9312,-2.0205,-2.1274,-2.252,-2.3305,-2.4008,-2.4682,-2.446,-2.4057,-2.3683,-2.3361,-2.3287,-2.3423,-2.3519,-2.3801,-2.436,-2.408,-2.4151,-2.4527,-2.4234,-2.3959,-2.3593,-2.3593,-2.2756,-2.1231,-2.1231,-2.0537,-1.9301,-1.9301,-1.9301,-1.9301,-1.8851,-1.8612,-1.8371,0.0,0.0,0.0,0.0,-1.6902,-1.673,-1.673,-1.673,-1.673,-1.673,-1.673,-1.673,-1.6812,-1.6812,-1.673,-1.6902,-1.6894,-1.6894,-1.6984,-1.6902,-1.6894,-1.6894,-1.6812,-1.673,-1.673,-1.673,-1.673,-1.673,-1.6812,0.0,-1.6894,-1.7456,-1.7891,-1.7658,-1.8089,-1.8532,-1.8689,-1.8169,-1.7865,-1.804,-1.8022,-1.7864,-1.7326,-1.7237,0.0,0.0,0.0,-1.5278,-1.4799,-1.471,0.0,0.0,0.0,-1.4837,-1.5212,-1.6365,0.0,0.0,-1.8394,-1.8602,0.0,0.0,0.0,0.0,0.0,0.0,0.0,0.0,0.0,0.0,0.0,0.0,0.0,0.0,0.0,0.0,-1.7734,-1.8076,-1.8269,-1.9293,-2.0639,-2.2083,-2.2173,-2.2674,-2.4136,-2.3374,-2.2817,-2.2883,-2.2703,-2.2628,-2.2628,-2.3075,0.0,0.0,0.0,-2.3138,-2.3722,-2.3138,-2.2728,-2.2628,-2.2617,-2.1852,-2.0459,-2.0537,-2.0079,-1.9301,-1.9301,-1.9301,-1.9222,-1.8772,-1.829,-1.7797,-1.7473,-1.731,-1.7229,-1.6812,-1.673,-1.673,-1.673,0.0,0.0,-1.673,-1.673,-1.673,-1.6976,-1.6894,-1.6812,-1.7229,-1.7221,-1.7139,-1.731,-1.7221,-1.7139,-1.7057,-1.6894,-1.6738,-1.6738,-1.673,-1.6738,-1.6738,-1.6812,-1.6894,-1.7139,-1.731,-1.7518,-1.7874,-1.78,-1.7903,-1.8204,-1.8144,-1.8023,-1.798,-1.7891,0.0,-1.7334,-1.6941,-1.6509,-1.6147,-1.5716,-1.5307,-1.4999,-1.4748,-1.4667,-1.4667,-1.4667,-1.496,-1.5567,-1.6468,-1.7277,-1.79,-1.8501,-1.8779,0.0,0.0,0.0,0.0,0.0,0.0,0.0,0.0,0.0,0.0,0.0,0.0,0.0,0.0,0.0,-1.7373,-1.7734,-1.8008,-1.8076,-1.8758,-1.9796,-2.1028,-2.1797,-2.2352,-2.286,-2.2962,-2.2745,-2.2069,-2.2035,-2.1949,-2.1949,-2.2101,-2.2296,-2.2628,-2.2468,-2.2446,-2.2595,-2.2496,-2.2258,-2.1993,-2.2145,0.0,-2.0537,-2.0857,-2.0391,-1.9301,-1.9469,-1.9399,-1.9002,-1.8362,-1.7635,-1.6976,-1.6902,-1.682,-1.682,-1.6738,-1.673,-1.673,-1.673,-1.673,-1.673,-1.673,-1.673,-1.6738,-1.673,-1.673,0.0,-1.6812,-1.6976,-1.7057,-1.6894,-1.7066,-1.7229,-1.6894,-1.7066,-1.7229,-1.7057,-1.7147,-1.7229,-1.7057,-1.7294,-1.7456,-1.7392,-1.7392,-1.7448,-1.7679,-1.79,-1.8006,-1.8017,-1.7989,-1.792,-1.7612,-1.7254,-1.7017,-1.6938,-1.6238,-1.5875,-1.6064,-1.5696,-1.5418,-1.5335,-1.5079,-1.4996,-1.4996,-1.4816,-1.4761,-1.4901,-1.5809,-1.6624,-1.7196,-1.8576,-1.946,0.0,0.0,0.0,0.0,0.0,0.0,0.0,0.0,0.0,0.0,0.0,-1.6132,-1.6244,0.0,-1.7375,-1.7666,-1.7871,-1.8008,-1.8144,-1.8674,-1.9414,-2.018,-2.0917,-2.1538,-2.1887,-2.2107,-2.2106,-2.1723,-2.1748,-2.1807,-2.1807,-2.159,-2.1605,-2.1903,-2.1282,-2.1178,-2.1776,-2.1408,-2.1151,-2.0981,-2.1375,-2.0924,-1.9923,-2.0245,-2.001,-1.9301,-1.932,-1.9161,-1.8922,-1.8282,-1.7635,-1.7066,-1.7066,-1.6902,-1.673,-1.673,-1.673,-1.673,-1.673,-1.673,-1.673,-1.673,-1.673,-1.6738,-1.6894,-1.6812,-1.6738,-1.6984,-1.7057,-1.7057,-1.7066,-1.7147,-1.7229,-1.7066,-1.7147,-1.7221,-1.7221,-1.731,-1.7392,-1.7302,-1.7383,-1.7546,-1.7546,-1.7546,-1.7627,-1.7789,-1.7951,-1.804,-1.804,-1.7797,-1.7649,-1.7456,-1.7031,-1.671,-1.6468,-1.5828,-1.5576,-1.5748,-1.5506,-1.5431,-1.5431,-1.5257,-1.5257,-1.5257,-1.5082,-1.4999,-1.4915,-1.5816,-1.6386,-1.655,-1.7764,-1.8843,0.0,0.0,0.0,0.0,0.0,0.0,0.0,-1.5683,-1.5644,-1.6,-1.6179,-1.6363,-1.6603,-1.7073,-1.7607,-1.7959,-1.8008,-1.8076,-1.8269,-1.8741,-1.9198,-1.9539,-2.0183,-2.0772,-2.1208,-2.1404,-2.1485,-2.1458,-2.1627,-2.1662,-2.1597,-2.1329,-2.1159,-2.1293,-2.0202,-2.0014,-2.0804,-2.023,-1.9955,-1.9972,-2.0382,-2.0157,-1.9301,-1.9548,-1.9548,-1.9301,-1.9082,-1.8887,-1.8789,-1.8227,-1.7716,-1.7392,-1.7392,-1.7147,-1.682,-1.682,-1.682,-1.682,-1.682,-1.6812,-1.6812,-1.6812,-1.673,-1.673,-1.6976,-1.6894,-1.682,-1.7147,-1.7139,-1.7139,-1.7229,-1.7221,-1.7139,-1.7229,-1.7221,-1.7221,-1.7392,-1.7392,-1.7473,-1.7473,-1.7473,-1.7554,-1.77,-1.77,-1.7781,-1.7959,-1.7951,-1.7878,-1.7878,-1.7554,-1.7229,-1.7229,-1.682,-1.6409,-1.6004,-1.5597,-1.5431,-1.5431,-1.5431,-1.5431,-1.5431,-1.5431,-1.5431,-1.5431,-1.5431,-1.5347,-1.5173,-1.5824,-1.6229,-1.6221,-1.687,-1.7968,-1.3777,-1.4232,-1.3965,-1.3419,-1.347,-1.391,0.0,-1.5507,-1.6094,-1.7769,-1.7746,-1.757,-1.7759,-1.7751,-1.7726,-1.793,-1.8008,-1.8076,-1.8269,-1.8741,-1.9131,-1.9309,-2.0107,-2.0718,-2.1096,-2.1241,-2.1191,-2.0818,-2.1136,-2.125,-2.09,-2.1095,-2.105,-2.0622,-2.0127,-1.9742,-1.9469,-1.9021,-1.8898,-1.9152,-1.9381,-1.946,-1.9301,-1.9706,-1.9627,-1.9301,-1.8931,-1.8554,-1.8254,-1.7916,-1.7627,-1.7392,-1.7392,-1.7392,-1.731,-1.731,-1.731,-1.731,-1.731,-1.7221,-1.7057,-1.7057,-1.6894,-1.6738,-1.673,-1.673,-1.6738,-1.673,-1.6894,-1.7057,-1.6812,-1.7066,-1.731,-1.6902,-1.7066,-1.7392,-1.7392,-1.7546,-1.77,-1.77,-1.7789,-1.787,-1.77,-1.787,-1.7951,-1.804,-1.7716,-1.7473,-1.7473,-1.7066,-1.682,-1.682,-1.6417,-1.6004,-1.5514,-1.5431,-1.5431,-1.5431,-1.5431,-1.5431,-1.5431,-1.5431,-1.5431,-1.5431,-1.5431,-1.5431,-1.5347,-1.5431,-1.5831,-1.6394,-1.6476,-1.7622,-1.3618,-1.3851,-1.363,-1.3119,-1.3112,-1.3374,-1.4275,-1.4449,-1.4844,-1.6271,-1.649,-1.6606,-1.7085,-1.7477,-1.7706,-1.7784,-1.7998,-1.8212,-1.8414,-1.8741,-1.9065,-1.9462,-1.9977,-2.0455,-2.0807,-2.1072,-2.1203,-2.0977,-2.1167,-2.1216,-2.1075,-2.0853,-2.0691,-2.0379,-1.9659,-1.9191,-1.8916,-1.8671,-1.8505,-1.8683,-1.9063,-1.9222,-1.9161,-1.9478,-1.9471,-1.9024,-1.8866,-1.8617,-1.8302,-1.8153,-1.8046,-1.7863,-1.7863,-1.782,-1.7716,-1.7473,-1.7392,-1.7392,-1.7392,-1.731,-1.7302,-1.7302,-1.7229,-1.7147,-1.7147,-1.7057,-1.6894,-1.6894,-1.6894,-1.6812,-1.6738,-1.682,-1.6984,-1.6976,-1.7057,-1.7229,-1.7392,-1.7546,-1.77,-1.77,-1.787,-1.7878,-1.7546,-1.7635,-1.7554,-1.7302,-1.731,-1.731,-1.7066,-1.6656,-1.6252,-1.6004,-1.5756,-1.5597,-1.5431,-1.5431,-1.5431,-1.5431,-1.5431,-1.5431,-1.5431,-1.5431,-1.5431,-1.5431,-1.5431,-1.5431,-1.5431,-1.5431,-1.5506,-1.5831,-1.5831,-1.6554,-1.3565,-1.33,-1.2788,-1.2652,-1.2526,-1.26,-1.3497,-1.3539,-1.3608,-1.4764,-1.5145,-1.5471,-1.6254,-1.6657,-1.7079,-1.7638,-1.7842,-1.8056,-1.8414,-1.8674,-1.8942,-1.9407,-1.9857,-2.0161,-2.0435,-2.088,-2.1016,-2.0796,-2.0946,-2.1014,-2.0948,-2.0681,-2.0483,-2.0411,-1.9474,-1.8999,-1.8843,-1.8523,-1.8442,-1.8523,-1.8993,-1.9152,-1.9091,-1.9326,-1.923,-1.8912,-1.8826,-1.8704,-1.8431,-1.8411,-1.83,-1.8237,-1.8237,-1.8163,-1.8019,-1.7697,-1.7565,-1.7554,-1.7473,-1.7473,-1.7392,-1.731,-1.731,-1.7229,-1.7229,-1.7139,-1.7057,-1.6968,-1.6894,-1.6812,-1.673,-1.673,-1.6738,-1.6976,-1.6976,-1.7057,-1.731,-1.7465,-1.7538,-1.7538,-1.7619,-1.7635,-1.731,-1.6968,-1.6714,-1.6221,-1.6221,-1.6304,-1.6492,-1.617,-1.5763,-1.5431,-1.5431,-1.5431,-1.5431,-1.5431,-1.5431,-1.5431,-1.5431,-1.5431,-1.5431,-1.5431,-1.5431,-1.5431,-1.5431,-1.5431,-1.5431,-1.5431,-1.5431,-1.5431,-1.5431,-1.5748,-1.3621,-1.2518,-1.1285,-1.1857,-1.1558,-1.1477,-1.2659,-1.2947,-1.3175,-1.4093,-1.4516,-1.4879,-1.5585,-1.533,-1.5604,-1.7423,-1.7285,-1.7285,-1.8337,-1.8674,-1.8875,-1.9075,-1.9715,-2.0095,-2.0049,-2.059,-2.0658,-1.9827,-2.038,-2.0531,-2.0262,-2.0485,-2.0634,-2.0566,-1.9756,-1.9292,-1.9301,-1.8674,-1.8523,-1.87,-1.8922,-1.9073,-1.9311,-1.9227,-1.9129,-1.9067,-1.8912,-1.8688,-1.854,-1.8431,-1.8362,-1.8354,-1.8354,-1.8267,-1.8102,-1.8094,-1.8078,-1.7951,-1.7781,-1.7546,-1.7392,-1.7139,-1.6894,-1.673,-1.673,-1.6894,-1.7057,-1.6812,-1.6894,-1.7057,-1.6738,-1.673,-1.673,-1.673,-1.673,-1.6812,-1.7057,-1.7131,-1.7139,-1.7139,-1.7139,-1.7057,-1.6738,-1.6041,-1.5282,-1.4866,-1.4028,-1.4119,-1.5914,-1.568,-1.5431,-1.5431,-1.5431,-1.5431,-1.5431,-1.5431,-1.5431,-1.5431,-1.5431,-1.5431,-1.5431,-1.5431,-1.5431,-1.5431,-1.5431,-1.5431,-1.5431,-1.5431,-1.5431,-1.5431,-1.5431,-1.5431,-1.2305,-1.1847,-1.1512,-1.1607,-1.1484,-1.136,-1.1671,-1.1615,-1.1715,-1.2565,-1.3075,-1.363,-1.4692,-1.4899,-1.5317,-1.6486,-1.6893,-1.7257,-1.791,-1.8741,-1.9341,-1.9407,-2.0053,-2.038,-2.0196,-2.0653,-2.0741,-2.0401,-2.0537,-2.0572,-2.0428,-2.0566,-2.0489,-2.0177,-1.9618,-1.9152,-1.8922,-1.8603,-1.8442,-1.8523,-1.8786,-1.9032,-1.9204,-1.9084,-1.9021,-1.8921,-1.8839,-1.8731,-1.8569,-1.8443,-1.8343,-1.8032,-1.8032,-1.7985,-1.7787,-1.7787,-1.7808,-1.777,-1.7685,-1.7608,-1.7489,-1.7406,-1.7252,-1.7147,-1.7147,-1.7139,-1.7139,-1.7147,-1.6976,-1.6812,-1.6976,-1.6812,-1.673,-1.6894,-1.6656,-1.6327,-1.6566,-1.6566,-1.6237,-1.5628,-1.5786,-1.5621,-1.4615,-1.4196,-1.3853,-1.3432,-1.3099,-1.3099,-1.3782,-1.4216,-1.4307,-1.3704,-1.465,-1.5173,-1.4573,-1.5082,-1.5431,-1.5431,-1.5431,-1.5431,-1.5431,-1.5431,-1.5431,-1.5431,-1.5431,-1.5431,-1.5431,-1.5431,-1.5431,-1.5431,-1.5431,-1.5431,-1.1275,-1.1052,-1.0985,-1.1087,-1.1186,-1.126,-1.1111,-1.1037,-1.1037,-1.1409,-1.1972,-1.2677,-1.3646,-1.3939,-1.4533,-1.5903,-1.6242,-1.6615,-1.7263,-1.8211,-1.8878,-1.9177,-1.9704,-2.016,-2.0509,-2.0758,-2.0833,-2.0629,-2.0619,-2.0566,-2.0566,-2.0566,-2.0411,-1.9942,-1.9539,-1.9073,-1.87,-1.8523,-1.8434,-1.8603,-1.8909,-1.9051,-1.9134,-1.8829,-1.8596,-1.8544,-1.8273,-1.8092,-1.8016,-1.8016,-1.7877,-1.7578,-1.7578,-1.7613,-1.7536,-1.7536,-1.7517,-1.7586,-1.7611,-1.7541,-1.7429,-1.7344,-1.7286,-1.7279,-1.7279,-1.7195,-1.7187,-1.7279,-1.7111,-1.6996,-1.7028,-1.6913,-1.6806,-1.709,-1.6648,-1.6245,-1.6484,-1.6064,-1.5401,-1.4713,-1.4531,-1.4273,-1.3269,-1.2845,-1.2425,-1.1826,-1.174,-1.1992,-1.2589,-1.319,-1.3366,-1.276,-1.3704,-1.4223,-1.3626,-1.4132,-1.4482,-1.4482,-1.4741,-1.4915,-1.4915,-1.5257,-1.5431,-1.5431,-1.5431,-1.5431,-1.5431,-1.5431,-1.5431,-1.5431,-1.5431,-1.5431,-1.0512,-1.0177,-0.9772,-1.0381,-1.0812,-1.1111,-1.1111,-1.1111,-1.0962,-1.0645,-1.1307,-1.21,-1.2557,-1.2586,-1.334,-1.5559,-1.5415,-1.5375,-1.6551,-1.7081,-1.7556,-1.8352,-1.8813,-1.9531,-2.0832,-2.0949,-2.0803,-2.0541,-2.0572,-2.0566,-2.0566,-2.0566,-2.0411,-1.9942,-1.9539,-1.9073,-1.87,-1.8523,-1.8603,-1.9038,-1.9099,-1.9203,-1.9156,-1.8427,-1.8072,-1.8072,-1.743,-1.7072,-1.7072,-1.7072,-1.7072,-1.7072,-1.7072,-1.7092,-1.7108,-1.7108,-1.7125,-1.7216,-1.7234,-1.7278,-1.7373,-1.7117,-1.7022,-1.6999,-1.6999,-1.7175,-1.735,-1.7087,-1.7175,-1.7265,-1.7025,-1.6939,-1.6938,-1.7022,-1.6696,-1.6366,-1.6531,-1.5582,-1.4566,-1.4328,-1.3457,-1.276,-1.2589,-1.1832,-1.0982,-1.0125,-1.0038,-1.0636,-1.2334,-1.2589,-1.2589,-1.2589,-1.2674,-1.2674,-1.2589,-1.2674,-1.2674,-1.2674,-1.3535,-1.4048,-1.4055,-1.4824,-1.5257,-1.534,-1.534,-1.5347,-1.5431,-1.5431,-1.5431,-1.5431,-1.5431,-1.5431,-0.959,-0.9659,-0.9916,-1.0426,-1.0812,-1.1111,-1.1111,-1.0962,-1.0902,-1.0997,-1.1442,-1.2065,-1.2674,-1.2863,-1.3284,-1.4535,-1.484,-1.5171,-1.5739,-1.6697,-1.7437,-1.7566,-1.8838,-1.9897,-2.0329,-2.0892,-2.1188,-2.1222,-2.0817,-2.0566,-2.0566,-2.0566,-2.0411,-1.9942,-1.9539,-1.9073,-1.87,-1.8523,-1.8582,-1.8962,-1.8929,-1.8912,-1.9008,-1.8314,-1.8006,-1.799,-1.7363,-1.6991,-1.6911,-1.6911,-1.6727,-1.6544,-1.6544,-1.6595,-1.6491,-1.5859,-1.5399,-1.5246,-1.5304,-1.6175,-1.7281,-1.7191,-1.7115,-1.6999,-1.6999,-1.7087,-1.7087,-1.7262,-1.7175,-1.7152,-1.7234,-1.7037,-1.684,-1.7016,-1.5944,-1.5055,-1.5216,-1.4167,-1.2982,-1.2207,-1.1358,-1.0717,-1.0722,-1.0463,-1.0294,-1.0038,-1.0038,-1.0207,-1.0636,-1.1235,-1.1408,-1.0722,-1.1912,-1.2419,-1.1746,-1.2339,-1.2674,-1.2674,-1.276,-1.2845,-1.3021,-1.3099,-1.3529,-1.4398,-1.4398,-1.4741,-1.5431,-1.5431,-1.5431,-1.5431,-1.5431,-1.5431,-0.8981,-0.9365,-0.9916,-1.0143,-1.0663,-1.1081,-1.0966,-1.101,-1.1076,-1.1089,-1.1628,-1.216,-1.2425,-1.2755,-1.3212,-1.3835,-1.4342,-1.4738,-1.5166,-1.5912,-1.6505,-1.6798,-1.7736,-1.8646,-1.9351,-1.9705,-1.9993,-2.0246,-2.007,-2.0177,-2.0566,-2.0255,-1.9932,-1.9627,-1.9381,-1.9073,-1.8612,-1.8523,-1.8635,-1.8937,-1.8651,-1.8604,-1.8603,-1.7658,-1.7244,-1.7228,-1.6616,-1.6301,-1.6223,-1.6223,-1.6137,-1.5957,-1.5957,-1.5762,-1.5363,-1.4827,-1.4251,-1.3738,-1.3755,-1.4415,-1.5351,-1.6401,-1.6762,-1.6799,-1.6799,-1.6799,-1.6889,-1.6973,-1.6882,-1.6664,-1.6795,-1.6669,-1.6453,-1.6573,-1.5924,-1.5212,-1.5548,-1.4161,-1.2456,-1.1212,-1.0576,-1.0225,-1.0225,-1.0149,-1.0093,-1.0093,-1.01,-1.0038,-1.0038,-1.0467,-1.0554,-1.0038,-1.089,-1.1316,-1.0809,-1.1054,-1.1245,-1.1245,-1.1304,-1.1455,-1.1826,-1.2085,-1.2644,-1.3444,-1.3451,-1.3704,-1.4223,-1.465,-1.4657,-1.4223,-1.4999,-1.5173,-0.8732,-0.9311,-0.9922,-0.9922,-1.0513,-1.1039,-1.0852,-1.1144,-1.1475,-1.1217,-1.1881,-1.2394,-1.2156,-1.2555,-1.3037,-1.3485,-1.3864,-1.4255,-1.4665,-1.4872,-1.5291,-1.5891,-1.6204,-1.6836,-1.8177,-1.8117,-1.8212,-1.8541,-1.8789,-1.9371,-2.0245,-1.9618,-1.9222,-1.9222,-1.9143,-1.8904,-1.8442,-1.8451,-1.8589,-1.8849,-1.828,-1.8058,-1.8017,-1.6845,-1.6335,-1.6227,-1.5654,-1.534,-1.5257,-1.5257,-1.5166,-1.4999,-1.4999,-1.462,-1.3893,-1.3746,-1.3153,-1.2422,-1.2357,-1.2389,-1.2705,-1.5026,-1.6001,-1.6292,-1.6292,-1.6487,-1.6581,-1.6386,-1.619,-1.6035,-1.5776,-1.5708,-1.5725,-1.5763,-1.5521,-1.5535,-1.5981,-1.4347,-1.234,-1.0852,-1.0575,-1.0575,-1.0575,-1.0428,-1.0315,-1.0315,-1.0154,-1.0109,-0.9998,-1.0057,-1.0038,-1.0038,-1.0038,-1.0038,-1.0038,-0.9619,-0.9342,-0.9315,-0.9708,-1.0157,-1.0491,-1.125,-1.1945,-1.236,-1.2451,-1.2553,-1.2589,-1.3451,-1.3451,-1.2674,-1.4307,-1.4566,-0.916,-0.9695,-1.0143,-1.0143,-1.0663,-1.1119,-1.135,-1.1495,-1.1767,-1.2087,-1.239,-1.2782,-1.3166,-1.2846,-1.2845,-1.3647,-1.3551,-1.3645,-1.4142,-1.4474,-1.4751,-1.4887,-1.5957,-1.6741,-1.713,-1.7852,-1.8425,-1.8567,-1.7738,-1.7504,-1.8399,-1.8647,-1.8825,-1.8772,-1.8442,-1.8273,-1.8442,-1.77,-1.7796,-1.882,-1.7467,-1.7243,-1.794,-1.6873,-1.6335,-1.6227,-1.5654,-1.4999,-1.4314,-1.4314,-1.388,-1.319,-1.319,-1.3076,-1.2837,-1.1728,-1.1162,-1.0762,-1.0568,-1.0545,-1.0774,-1.2705,-1.4052,-1.4912,-1.4912,-1.5697,-1.6386,-1.5305,-1.5026,-1.493,-1.3909,-1.3617,-1.3564,-1.3391,-1.2774,-1.2224,-1.2505,-1.1859,-1.1159,-1.07,-1.0575,-1.0575,-1.0575,-1.0542,-1.0523,-1.0523,-1.049,-1.0405,-1.0239,-1.0064,-1.0038,-1.0038,-1.0038,-1.0038,-1.0038,-0.9918,-0.9742,-0.9324,-0.9358,-0.9359,-0.9302,-0.9461,-0.9883,-1.0674,-1.1104,-1.1534,-1.2157,-1.2674,-1.2674,-1.2157,-1.2845,-1.2668,-0.9322,-0.9695,-1.0067,-1.0143,-1.0594,-1.1003,-1.1237,-1.1623,-1.2004,-1.2296,-1.2547,-1.2813,-1.2936,-1.2955,-1.3003,-1.3348,-1.3684,-1.3956,-1.4339,-1.4522,-1.459,-1.462,-1.5186,-1.5665,-1.5912,-1.6362,-1.6748,-1.6895,-1.6378,-1.6624,-1.7917,-1.8336,-1.8416,-1.8175,-1.8193,-1.8282,-1.8531,-1.7529,-1.7565,-1.8718,-1.7148,-1.6548,-1.6763,-1.5756,-1.5276,-1.512,-1.4368,-1.4048,-1.4068,-1.3354,-1.2886,-1.2458,-1.2235,-1.182,-1.1126,-1.06,-0.984,-0.9168,-0.9162,-0.9151,-0.9312,-1.0382,-1.193,-1.3386,-1.3386,-1.3968,-1.4459,-1.3776,-1.3584,-1.3465,-1.2767,-1.2549,-1.2495,-1.2341,-1.2285,-1.2194,-1.1821,-1.1728,-1.1682,-1.101,-1.0896,-1.0896,-1.0896,-1.0811,-1.074,-1.074,-1.0645,-1.0537,-1.0442,-1.0338,-1.0192,-1.0062,-1.0038,-1.0038,-1.0038,-0.977,-0.9501,-0.932,-0.9027,-0.8914,-0.9,-0.8905,-0.9104,-0.979,-0.9903,-1.0095,-1.0629,-1.0989,-1.0961,-1.0453,-1.1466,-1.1455,-0.9845,-1.0258,-1.065,-1.0541,-1.1004,-1.1403,-1.15,-1.1962,-1.2388,-1.2438,-1.2674,-1.2805,-1.2789,-1.297,-1.3179,-1.3299,-1.3785,-1.4206,-1.4437,-1.4495,-1.4509,-1.4545,-1.4567,-1.4633,-1.4991,-1.4961,-1.511,-1.5296,-1.5199,-1.5823,-1.7342,-1.7602,-1.7513,-1.7253,-1.7521,-1.7861,-1.8031,-1.687,-1.6798,-1.7836,-1.6214,-1.5262,-1.5147,-1.4409,-1.4005,-1.3795,-1.3021,-1.3021,-1.3385,-1.2383,-1.1883,-1.1588,-1.1312,-1.0686,-0.9746,-0.9693,-0.9135,-0.829,-0.8421,-0.8531,-0.8531,-0.8726,-1.019,-1.195,-1.195,-1.2339,-1.263,-1.2339,-1.2145,-1.2007,-1.1557,-1.1482,-1.1472,-1.1196,-1.1852,-1.2301,-1.1467,-1.1864,-1.2155,-1.1389,-1.1194,-1.1194,-1.1194,-1.1066,-1.0962,-1.0962,-1.0816,-1.0688,-1.0645,-1.0641,-1.0499,-1.0214,-1.0176,-1.005,-1.0047,-0.9637,-0.9409,-0.9196,-0.8797,-0.867,-0.8868,-0.8727,-0.8815,-0.909,-0.9004,-0.8963,-0.9056,-0.9619,-0.9548,-0.8907,-1.0346,-1.0514,-1.1473,-1.226,-1.2953,-1.1827,-1.2492,-1.3357,-1.2937,-1.3109,-1.3304,-1.3005,-1.2989,-1.3103,-1.3588,-1.3066,-1.2881,-1.3773,-1.3747,-1.3697,-1.4005,-1.4202,-1.4356,-1.4305,-1.4351,-1.4569,-1.4991,-1.4961,-1.5031,-1.5123,-1.4653,-1.4767,-1.5621,-1.5636,-1.5643,-1.5636,-1.5643,-1.5801,-1.5951,-1.4622,-1.4514,-1.5476,-1.3604,-1.3108,-1.3673,-1.3077,-1.2869,-1.2845,-1.276,-1.2254,-1.1585,-1.1429,-1.0777,-0.9714,-0.9728,-0.9588,-0.9414,-0.91,-0.9072,-0.9107,-0.8871,-0.8726,-0.8726,-0.8825,-0.9805,-1.0974,-1.0974,-1.1755,-1.2436,-1.1268,-1.117,-1.0974,-0.9797,-0.9575,-0.9552,-0.92,-0.9622,-1.0143,-1.005,-1.0724,-1.1292,-1.1194,-1.1194,-1.1194,-1.1194,-1.1179,-1.1165,-1.1165,-1.1151,-1.1071,-1.0891,-1.0868,-1.0778,-1.0542,-1.0518,-1.0362,-1.0071,-0.9937,-0.9597,-0.8804,-0.889,-0.8788,-0.8467,-0.8588,-0.8594,-0.84,-0.875,-0.8779,-0.8288,-0.9404,-0.9505,-0.8636,-0.9854,-0.9506,-1.2214,-1.2615,-1.2994,-1.2659,-1.2736,-1.2945,-1.3165,-1.3088,-1.3003,-1.3026,-1.2989,-1.305,-1.3285,-1.3216,-1.3258,-1.3778,-1.3993,-1.4179,-1.4478,-1.484,-1.4908,-1.4384,-1.4763,-1.4911,-1.4489,-1.4592,-1.4714,-1.4866,-1.4545,-1.4358,-1.4391,-1.4882,-1.5025,-1.4782,-1.5289,-1.5621,-1.5696,-1.4455,-1.4264,-1.4874,-1.3509,-1.2817,-1.2573,-1.229,-1.2059,-1.1832,-1.1316,-1.1137,-1.1185,-1.0442,-0.9893,-0.9332,-0.9159,-0.9052,-0.9026,-0.8897,-0.8924,-0.9033,-0.9004,-0.9031,-0.9031,-0.9229,-0.962,-1.001,-0.9912,-1.0306,-1.0694,-1.0207,-1.0109,-1.0083,-0.949,-0.9155,-0.8999,-0.8852,-0.9146,-0.9474,-0.9474,-0.9966,-1.0482,-1.0702,-1.0821,-1.0858,-1.1175,-1.1194,-1.1194,-1.1194,-1.1194,-1.1165,-1.1085,-1.0875,-1.0673,-1.0589,-1.0557,-1.0456,-0.999,-0.9967,-0.9671,-0.9105,-0.9036,-0.8955,-0.8751,-0.8693,-0.8665,-0.8513,-0.8557,-0.8354,-0.8034,-0.8231,-0.8115,-0.7669,-0.8021,-0.7933,-1.2826,-1.3342,-1.366,-1.3539,-1.3329,-1.3294,-1.3601,-1.3314,-1.3028,-1.3001,-1.3042,-1.3103,-1.3224,-1.3519,-1.3752,0.0,0.0,-1.4709,-1.4746,-1.5176,-1.5299,-1.4744,-1.5169,-1.5238,-1.4607,-1.4443,-1.4434,-1.4622,-1.4316,-1.3975,-1.3646,-1.4022,-1.4152,-1.3944,-1.4448,-1.4782,-1.4608,-1.3782,-1.336,-1.3522,-1.2707,-1.2006,-1.1402,-1.1319,-1.1133,-1.0895,-1.0299,-1.0328,-1.0706,-0.9871,-0.9426,-0.9268,-0.8999,-0.8981,-0.8928,-0.8928,-0.8928,-0.9027,-0.9232,-0.9331,-0.9331,-0.9529,-0.9628,-0.9529,-0.9335,-0.943,-0.9628,-0.9628,-0.9628,-0.9587,-0.9405,-0.9129,-0.8889,-0.8832,-0.9001,-0.9178,-0.9178,-0.9605,-0.9974,-1.0301,-1.0378,-1.0555,-1.0988,-1.1156,-1.1175,-1.1021,-1.1156,-1.1151,-1.0835,-1.0656,-1.0419,-1.0223,-1.0135,-1.0099,-0.9754,-0.9553,-0.9385,-0.9078,-0.8665,-0.8526,-0.8635,-0.8409,-0.8256,-0.8256,-0.807,-0.7825,-0.7586,-0.7455,-0.7339,-0.7139,-0.7143,-0.7231,-1.3631,-1.479,-1.5866,-1.4571,-1.4903,-1.5312,-1.4572,-1.4109,-1.3739,-1.3124,-1.3155,-1.339,-1.3709,-1.401,-1.4249,-1.4478,-1.4784,-1.4934,-1.4754,-1.4817,-1.5087,-1.5551,-1.5614,-1.5541,-1.5495,-1.4801,-1.4391,-1.4398,-1.3718,-1.3361,-1.3379,-1.2875,-1.2683,-1.2699,-1.2705,-1.2528,-1.2009,-1.1843,-1.1327,-1.0636,-1.0467,-1.0212,-1.0038,-1.0038,-1.0038,-1.0038,-1.0038,-0.9986,-0.9917,-0.9917,-0.9688,-0.9256,-0.9256,-0.9271,-0.9236,-0.9236,-0.9331,-0.9628,-0.9628,-0.9628,-0.9628,-0.9628,-0.9628,-0.9628,-0.9628,-0.9628,-0.9628,-0.9628,-0.9628,-0.9587,-0.9405,-0.9226,-0.9047,-0.8865,-0.9001,-0.9178,-0.9178,-0.9605,-0.993,-0.9935,-1.0189,-1.0514,-1.0519,-1.0872,-1.103,-1.0546,-1.0872,-1.0854,-0.9988,-1.0297,-1.0223,-0.9452,-0.9284,-0.9217,-0.9297,-0.8815,-0.857,-0.8621,-0.7761,-0.7424,-0.7926,-0.7424,-0.7256,-0.7256,-0.7173,-0.709,-0.682,-0.7506,-0.7595,-0.7139,-0.7845,-0.7933,-1.4165,-1.4506,-1.4638,-1.434,-1.4886,-1.5436,-1.5325,-1.4907,-1.4533,-1.4347,-1.3935,-1.364,-1.3769,-1.4121,-1.4478,-1.4597,-1.4843,-1.4959,-1.4893,-1.5643,-1.6113,-1.5991,-1.5756,-1.5295,-1.4406,-1.4239,-1.4166,-1.4166,-1.3652,-1.3387,-1.3392,-1.2971,-1.2699,-1.2699,-1.2705,-1.2443,-1.2015,-1.2106,-1.1671,-1.0636,-1.0722,-1.0467,-1.0038,-1.0038,-0.9864,-0.9519,-0.9519,-0.9283,-0.8919,-0.8919,-0.887,-0.8702,-0.8702,-0.8806,-0.9057,-0.9057,-0.9327,-0.9628,-0.9628,-0.9628,-0.9628,-0.9628,-0.9628,-0.9628,-0.9628,-0.9628,-0.9604,-0.9478,-0.9441,-0.9401,-0.9222,-0.9043,-0.8893,-0.8836,-0.882,-0.8823,-0.8823,-0.8872,-0.9165,-0.9789,-0.989,-1.0013,-1.0858,-1.076,-1.0685,-1.0719,-1.0667,-1.0462,-0.9749,-0.9585,-0.9212,-0.8513,-0.808,-0.8081,-0.836,-0.8166,-0.7875,-0.7631,-0.7355,-0.7301,-0.7432,-0.7259,-0.7177,-0.7177,-0.7177,-0.7007,-0.6573,-0.683,-0.6734,-0.6435,-0.6786,-0.6871,-1.4521,-1.4576,-1.4636,-1.4883,-1.5375,-1.5889,-1.6028,-1.5829,-1.5585,-1.5557,-1.52,-1.4924,-1.4824,-1.4982,-1.5118,-1.5235,-1.5137,-1.5145,-1.5358,-1.6072,-1.6587,-1.6749,-1.6378,-1.5755,-1.484,-1.4365,-1.4088,-1.4088,-1.3652,-1.3398,-1.3398,-1.296,-1.2705,-1.2705,-1.2705,-1.2357,-1.1671,-1.1929,-1.1499,-1.0202,-1.0549,-1.0467,-1.0038,-1.0038,-0.9868,-0.9519,-0.9349,-0.9101,0.0,-0.8556,-0.8471,-0.8434,-0.8434,-0.8592,-0.8783,-0.8783,-0.8944,-0.9135,-0.9135,-0.9275,-0.9331,-0.9331,-0.9473,-0.9628,-0.9628,-0.9579,-0.9502,-0.9384,-0.9307,-0.9234,-0.9125,-0.8958,-0.882,-0.882,-0.869,-0.8568,-0.8568,-0.8568,-0.8722,-0.9306,-0.9404,-0.9643,-1.0428,-1.0444,-1.0299,-1.0396,-1.0364,-1.016,-0.953,-0.938,-0.8901,-0.7973,-0.7547,-0.7312,-0.721,-0.7272,-0.72,-0.7191,-0.6834,-0.6701,-0.6858,-0.677,-0.6603,-0.6603,-0.6603,-0.6478,-0.6225,-0.6225,-0.6092,-0.5908,-0.608,-0.6169,0.0,-1.4983,-1.5526,-1.5891,-1.6252,-1.6578,-1.6743,-1.6849,0.0,-1.6768,-1.6786,-1.675,-1.6581,-1.6312,-1.6104,-1.6161,-1.5604,-1.5409,-1.6066,-1.6223,-1.668,-1.7716,-1.7427,-1.6884,-1.6371,-1.5025,-1.4173,-1.4088,-1.3652,-1.3398,-1.3398,-1.296,-1.2705,-1.2705,-1.2619,-1.21,-1.0982,-1.1413,-1.0895,-0.9602,-1.012,-1.0207,-0.9951,-0.9951,-0.9951,-0.9777,-0.9345,-0.9181,-0.898,-0.8623,-0.8356,-0.8307,-0.8307,-0.8311,-0.8322,-0.8322,-0.8329,-0.8434,-0.8434,-0.863,-0.8956,-0.8968,-0.9267,-0.9592,-0.9604,-0.949,-0.9352,-0.934,-0.921,-0.9076,-0.9064,-0.893,-0.88,-0.88,-0.8682,-0.8568,-0.8568,-0.8568,-0.8572,-0.8673,-0.8889,-0.9241,-0.9528,-0.9802,-1.0018,-0.9831,-1.0091,-0.9989,-0.9177,-0.9358,-0.9092,-0.7695,-0.7362,-0.6907,-0.5982,-0.6146,-0.652,-0.6966,-0.6174,-0.5908,-0.6343,-0.5905,-0.5733,-0.5733,-0.5733,-0.5733,-0.5733,-0.5733,-0.5733,-0.5733,-0.5733,-0.5822,-1.5314,0.0,-1.475,-1.4963,-1.5887,-1.688,0.0,0.0,0.0,0.0,0.0,-1.6957,-1.6874,-1.6528,-1.6425,-1.6989,-1.6056,-1.5527,-1.6417,-1.7437,-1.7872,-1.7217,-1.7893,-1.7612,-1.5436,-1.5139,-1.4824,-1.4173,-1.3483,-1.3222,-1.3392,-1.2796,-1.2448,-1.2448,-1.2106,-1.1671,-1.0982,-1.0895,-1.0463,-0.9602,-1.012,-1.0038,-0.9432,-0.9432,-0.9082,-0.8288,-0.8204,-0.7959,-0.7546,-0.746,-0.7392,-0.7424,-0.7424,-0.7587,-0.7967,-0.7967,-0.814,-0.8434,-0.8434,-0.846,-0.8608,-0.8929,-0.9005,-0.895,-0.9376,-0.9388,-0.9328,-0.9198,-0.9027,-0.8857,-0.8727,-0.8662,-0.8625,-0.8625,-0.8597,-0.8568,-0.8568,-0.8568,-0.8693,-0.9003,-0.8972,-0.9059,-0.9709,-0.9712,-0.964,-0.9736,-0.9799,-0.9399,-0.8434,-0.8348,-0.7849,-0.6567,-0.6345,-0.6142,-0.5782,-0.5836,-0.5908,-0.5997,-0.5822,-0.5733,-0.5819,-0.5733,-0.5733,-0.5733,-0.5733,-0.5733,-0.5733,-0.5733,-0.5733,-0.5733,-0.5733,-0.5733,-1.5713,-1.54,-1.5177,-1.5294,-1.6254,-1.7287,-1.7941,0.0,0.0,0.0,0.0,-1.8101,-1.7601,-1.7264,-1.6952,-1.6807,-1.6226,-1.6049,-1.677,-1.7883,-1.8389,-1.792,-1.8282,-1.7865,-1.6063,-1.5583,-1.5068,-1.4173,-1.3483,-1.3222,-1.3392,-1.2631,-1.2283,-1.2363,-1.1499,-1.0895,-1.0636,-1.0549,-1.012,-0.9432,-0.9951,-0.9864,-0.9262,-0.9262,-0.8907,-0.8113,-0.7937,-0.7672,-0.7408,-0.7231,-0.7139,-0.7139,-0.7139,-0.7279,-0.7441,-0.7441,-0.7583,-0.784,-0.784,-0.7982,-0.8162,-0.8611,-0.8694,-0.8633,-0.9013,-0.9079,-0.8999,-0.8995,-0.884,-0.8682,-0.8593,-0.8568,-0.8568,-0.8568,-0.8568,-0.8568,-0.8568,-0.8568,-0.8685,-0.8864,-0.8792,-0.8878,-0.9423,-0.9361,-0.9291,-0.9348,-0.9367,-0.9133,-0.8336,-0.8101,-0.7756,-0.6759,-0.6441,-0.613,-0.5744,-0.5733,-0.5733,-0.5733,-0.5733,-0.5733,-0.5733,-0.5733,-0.5733,-0.5733,-0.5822,-0.5908,-0.5908,-0.5994,-0.5994,-0.5908,-0.5908,-0.5822,-1.5946,-1.6032,-1.6219,-1.6202,-1.6796,-1.7579,-1.8376,0.0,0.0,0.0,0.0,-1.9425,-1.8435,-1.7991,-1.7427,-1.6487,-1.6486,-1.6767,-1.7119,-1.8016,-1.8686,-1.9,-1.8731,-1.8161,-1.7218,-1.6167,-1.5235,-1.4334,-1.3568,-1.3222,-1.3392,-1.2552,-1.2123,-1.2363,-1.0982,-1.0294,-1.0207,-1.012,-0.9864,-0.9349,-0.9689,-0.9694,-0.917,-0.917,-0.8903,-0.8372,-0.7848,-0.7676,-0.7672,-0.7231,-0.7139,-0.7139,-0.7139,-0.7139,-0.7139,-0.7139,-0.7139,-0.7139,-0.7139,-0.7403,-0.772,-0.8158,-0.8288,-0.8273,-0.8571,-0.8555,-0.8513,-0.8689,-0.8678,-0.8568,-0.8568,-0.8568,-0.8568,-0.8568,-0.8568,-0.8568,-0.8568,-0.8568,-0.8568,-0.8568,-0.8568,-0.867,-0.8999,-0.908,-0.9017,-0.8841,-0.9015,-0.8924,-0.8301,-0.816,-0.791,-0.7195,-0.678,-0.6292,-0.5741,-0.5733,-0.5733,-0.5733,-0.5733,-0.5733,-0.5733,-0.5733,-0.5733,-0.5733,-0.5997,-0.6083,-0.5997,-0.6257,-0.6257,-0.5997,-0.5997,-0.5908,-1.5976,-1.6755,-1.7507,-1.6712,-1.6747,-1.7205,-1.842,0.0,0.0,0.0,0.0,0.0,-1.8906,-1.7901,-1.7216,-1.7517,-1.7386,-1.7366,-1.7658,-1.8523,-1.9141,-1.8985,-1.9383,-1.9081,-1.7692,-1.6919,-1.6131,-1.5228,-1.3893,-1.3222,-1.3392,-1.2552,-1.2043,-1.2037,-1.0906,-1.0207,-1.0038,-0.9432,-0.9174,-0.9262,-0.9519,-0.9336,-0.8723,-0.8723,-0.8197,-0.7316,-0.7228,-0.7228,-0.7231,-0.7139,-0.7139,-0.7139,-0.7139,-0.7139,-0.7139,-0.7139,-0.7139,-0.7139,-0.7139,-0.7156,-0.7289,-0.7717,-0.7771,-0.7688,-0.8098,-0.82,-0.8239,-0.8239,-0.8404,-0.8568,-0.8568,-0.8568,-0.8568,-0.8568,-0.8568,-0.8568,-0.8568,-0.8568,-0.8568,-0.8568,-0.8568,-0.8629,-0.8828,-0.8995,-0.8977,-0.8694,-0.8943,-0.8784,-0.7469,-0.7429,-0.7098,-0.6219,-0.5918,-0.5841,-0.5735,-0.5733,-0.5733,-0.5733,-0.5733,-0.5733,-0.5733,-0.5733,-0.5733,-0.5733,-0.5997,-0.5997,-0.5733,-0.5997,-0.5994,-0.5733,-0.5733,-0.5733,-1.6138,-1.6742,-1.7366,-1.7427,-1.7632,-1.7916,0.0,0.0,0.0,0.0,0.0,-1.942,-1.8795,-1.8419,-1.8184,-1.7967,-1.7561,-1.753,-1.8331,-1.8705,-1.9,-1.9477,-1.9459,-1.9068,-1.8118,-1.7243,-1.6288,-1.5296,-1.3886,-1.3052,-1.3052,-1.2289,-1.1871,-1.1871,-1.0733,-1.0125,-1.0038,-0.9257,-0.8999,-0.9262,-0.9519,-0.9253,-0.8636,-0.8636,-0.8021,-0.7139,-0.7139,-0.7139,-0.7139,-0.7139,-0.7139,-0.7139,-0.7139,-0.7139,-0.7139,-0.7139,-0.7139,-0.7139,-0.7139,-0.7139,-0.7153,-0.731,-0.7378,-0.7337,-0.7681,-0.7827,-0.7852,-0.8028,-0.8296,-0.8568,-0.8568,-0.8568,-0.8568,-0.8568,-0.8568,-0.8568,-0.8568,-0.8568,-0.8568,-0.8568,-0.8568,-0.8653,-0.8922,-0.9039,-0.9001,-0.8777,-0.8706,-0.838,-0.7434,-0.6954,-0.6617,-0.6187,-0.5893,-0.5733,-0.5733,-0.5733,-0.5733,-0.5733,-0.5733,-0.5733,-0.5733,-0.5555,-0.5552,-0.5552,-0.5725,-0.5813,-0.5727,-0.608,-0.6169,-0.5908,-0.5908,-0.5822,-1.6337,-1.6777,-1.7334,-1.7861,-1.8196,0.0,0.0,0.0,0.0,0.0,0.0,-1.9203,-1.8344,-1.8394,-1.8415,-1.8041,-1.7611,-1.776,-1.8964,-1.8934,-1.9033,-1.9856,-1.9478,-1.8893,-1.8284,-1.7342,-1.6198,-1.5123,-1.3802,-1.2966,-1.2705,-1.2032,-1.1699,-1.1699,-1.0564,-1.0038,-1.0038,-0.9257,-0.8999,-0.9262,-0.9432,-0.9165,-0.8636,-0.846,-0.7933,-0.7139,-0.7139,-0.7139,-0.7139,-0.7139,-0.7139,-0.7139,-0.7139,-0.7139,-0.7139,-0.7139,-0.7139,-0.7139,-0.7139,-0.7139,-0.7139,-0.7139,-0.7139,-0.7143,-0.7323,-0.7415,-0.7507,-0.7768,-0.8124,-0.8476,-0.8476,-0.8564,-0.8568,-0.8568,-0.8568,-0.8568,-0.8568,-0.8568,-0.8568,-0.8568,-0.8568,-0.8666,-0.8978,-0.9124,-0.8949,-0.8567,-0.8412,-0.8034,-0.7238,-0.6677,-0.6267,-0.6145,-0.5877,-0.5733,-0.5733,-0.5733,-0.5733,-0.5733,-0.5733,-0.5733,-0.5733,-0.5463,-0.5371,-0.5371,-0.5633,-0.5722,-0.5633,-0.6077,-0.6257,-0.5994,-0.5994,-0.5908,-1.666,-1.737,-1.8179,-1.744,-1.754,0.0,-1.9242,-1.8771,0.0,-1.8763,0.0,-1.8344,-1.7637,-1.6908,-1.6747,-1.777,-1.7745,-1.8108,-1.9412,-1.9499,-1.9605,-2.0188,-1.9835,-1.9116,-1.8158,-1.7188,-1.6198,-1.5123,-1.3802,-1.2966,-1.2705,-1.2032,-1.1699,-1.1699,-1.0564,-1.0125,-1.0294,-0.9345,-0.8999,-0.9262,-0.9087,-0.8819,-0.8548,-0.8113,-0.7584,-0.7139,-0.7139,-0.7139,-0.7139,-0.7139,-0.7139,-0.7139,-0.7139,-0.7139,-0.7139,-0.7139,-0.7139,-0.7139,-0.7139,-0.7139,-0.7139,-0.7139,-0.7139,-0.7139,-0.7139,-0.7323,-0.7507,-0.7507,-0.7768,-0.8032,-0.8201,-0.8384,-0.8568,-0.8568,-0.8568,-0.8568,-0.8568,-0.8568,-0.8568,-0.8568,-0.8568,-0.8625,-0.8808,-0.9018,-0.881,-0.7872,-0.8077,-0.7736,-0.6219,-0.6193,-0.6142,-0.5757,-0.5738,-0.5733,-0.5733,-0.5733,-0.5733,-0.5733,-0.5733,-0.5733,-0.5733,-0.5463,-0.5371,-0.5371,-0.5633,-0.5633,-0.546,-0.5905,-0.5997,-0.5733,-0.5733,-0.5733,-1.666,-1.7603,-1.8708,-1.8152,-1.8881,0.0,0.0,-1.9518,-1.9286,-1.9415,-1.9727,-1.963,-1.8396,-1.7705,-1.7414,-1.769,-1.7985,-1.8466,-1.9285,-1.935,-1.9525,-2.0003,-1.9706,-1.9222,-1.8816,-1.7513,-1.6363,-1.5516,-1.3957,-1.2796,-1.2118,-1.1866,-1.1521,-1.0992,-1.0386,-0.9951,-0.9859,-0.9345,-0.9257,-0.9519,-0.9087,-0.8819,-0.8548,-0.8025,-0.7584,-0.7139,-0.7139,-0.7139,-0.7139,-0.7139,-0.7139,-0.7139,-0.7139,-0.7139,-0.7139,-0.7139,-0.7139,-0.7139,-0.7139,-0.7139,-0.7139,-0.7139,-0.7231,-0.7323,-0.7323,-0.7503,-0.7768,-0.7768,-0.794,-0.8113,-0.8201,-0.8288,-0.8384,-0.8564,-0.8568,-0.8568,-0.8568,-0.8568,-0.8512,-0.8263,-0.8192,-0.8276,-0.8445,-0.8307,-0.8203,-0.8083,-0.766,-0.7063,-0.6459,-0.6116,-0.5874,-0.5738,-0.5733,-0.5733,-0.5733,-0.5552,-0.5552,-0.5552,-0.5552,-0.5552,-0.5552,-0.5196,-0.4926,-0.4926,-0.5191,-0.5188,-0.5191,-0.5638,-0.5822,-0.5733,-0.5733,-0.5733,-1.713,-1.7896,-1.8992,0.0,0.0,0.0,-2.1018,-2.0582,-2.0122,-1.9828,-1.9807,-1.9547,-1.8791,-1.8207,-1.7878,-1.7975,-1.8272,-1.8724,-1.9232,-1.9277,-1.9367,-1.9837,-1.9539,-1.9222,-1.8895,-1.7504,-1.6273,-1.5343,-1.3789,-1.2546,-1.1699,-1.1613,-1.1257,-1.0636,-1.0207,-0.9951,-0.9689,-0.9432,-0.9432,-0.9689,-0.9082,-0.8727,-0.8548,-0.7937,-0.7408,-0.7139,-0.7139,-0.7139,-0.7139,-0.7139,-0.7139,-0.7139,-0.7139,-0.7139,-0.7139,-0.7139,-0.7139,-0.7139,-0.7139,-0.7139,-0.7139,-0.7139,-0.7143,-0.733,-0.7418,-0.7503,-0.7496,-0.7588,-0.776,-0.7848,-0.776,-0.8028,-0.838,-0.8564,-0.8568,-0.8568,-0.8568,-0.8476,-0.8243,-0.8001,-0.7843,-0.7727,-0.784,-0.7695,-0.7567,-0.7674,-0.7148,-0.6663,-0.6394,-0.5961,-0.5733,-0.5733,-0.5733,-0.5733,-0.5733,-0.5552,-0.5463,-0.5463,-0.546,-0.5371,-0.528,-0.4926,-0.4661,-0.4661,-0.4921,-0.501,-0.501,-0.5463,-0.5733,-0.5733,-0.5733,-0.5711,-1.8321,-1.8262,-1.91,0.0,0.0,0.0,-2.3019,-2.2078,-2.0575,-1.9975,-1.8536,-1.7678,-1.8583,-1.8035,-1.7688,-1.866,-1.8607,-1.8655,-1.9242,-1.9277,-1.9367,-1.9847,-1.9539,-1.8975,-1.8078,-1.7017,-1.5861,-1.4525,-1.3197,-1.2198,-1.1699,-1.1435,-1.1084,-1.0636,-1.0207,-0.9951,-0.9951,-0.9519,-0.9519,-0.9951,-0.9074,-0.8636,-0.8548,-0.758,-0.7139,-0.7139,-0.7139,-0.7139,-0.7139,-0.7139,-0.7139,-0.7139,-0.7139,-0.7139,-0.7139,-0.7139,-0.7139,-0.7139,-0.7139,-0.7139,-0.7139,-0.7139,-0.6969,-0.6884,-0.733,-0.6969,-0.652,-0.6962,-0.7139,-0.7054,-0.6881,-0.768,-0.8568,-0.8568,-0.8568,-0.8568,-0.8568,-0.8208,-0.7764,-0.7764,-0.7411,-0.7054,-0.7054,-0.7316,-0.7224,-0.652,-0.6605,-0.6517,-0.5819,-0.5733,-0.5733,-0.5733,-0.5733,-0.5733,-0.5733,-0.5733,-0.5733,-0.5733,-0.5463,-0.528,-0.501,-0.4835,-0.4661,-0.4661,-0.4921,-0.501,-0.501,-0.546,-0.5733,-0.5733,-0.573,-0.5665,-1.7525,-1.8484,0.0,-1.9705,0.0,0.0,0.0,-2.2979,0.0,0.0,-1.9672,-1.84,-1.8031,-1.7886,-1.7821,-1.7965,-1.8071,-1.8311,-1.8816,-1.8858,-1.9014,-1.9446,-1.9381,-1.9222,-1.8975,-1.7836,-1.6511,-1.5162,-1.3853,-1.2613,-1.144,-1.0992,-1.0641,-1.0207,-0.9777,-0.9519,-0.9519,-0.9078,-0.9078,-0.9519,-0.8552,-0.8197,-0.8548,-0.758,-0.7139,-0.7139,-0.7139,-0.7139,-0.7139,-0.7139,-0.7139,-0.7139,-0.7139,-0.7139,-0.7139,-0.7139,-0.7139,-0.7139,-0.7139,-0.7139,-0.7054,-0.6969,-0.6966,-0.7054,-0.6969,-0.6966,-0.6962,-0.7051,-0.7139,-0.7051,-0.7054,-0.7319,-0.7584,-0.7584,-0.7764,-0.794,-0.7584,-0.7408,-0.7262,-0.7008,-0.6847,-0.6697,-0.6697,-0.6545,-0.6394,-0.6306,-0.614,-0.5905,-0.5733,-0.5733,-0.5733,-0.5733,-0.5733,-0.5733,-0.5733,-0.5552,-0.5371,-0.5191,-0.5015,-0.4926,-0.501,-0.4835,-0.4569,-0.4389,-0.4832,-0.501,-0.501,-0.538,-0.5518,-0.5515,-0.5518,-0.5458,-1.8394,-1.9391,0.0,-2.0947,-2.2495,-2.3854,-2.3464,-2.3004,-2.2321,-2.101,-1.9687,-1.8506,-1.7856,-1.7957,-1.8055,-1.7789,-1.7899,-1.8172,-1.8606,-1.873,-1.8873,-1.9289,-1.9301,-1.9222,-1.9073,-1.7934,-1.6609,-1.517,-1.3944,-1.2699,-1.1348,-1.0814,-1.0463,-1.0125,-0.9689,-0.9432,-0.9432,-0.899,-0.8907,-0.9257,-0.8288,-0.7937,-0.8285,-0.7492,-0.7139,-0.7139,-0.7139,-0.7139,-0.7139,-0.7139,-0.7139,-0.7139,-0.7139,-0.7143,-0.7234,-0.7234,-0.7319,-0.7408,-0.7408,-0.7408,-0.7319,-0.7058,-0.6966,-0.6969,-0.6792,-0.6704,-0.6612,-0.6786,-0.6786,-0.6786,-0.6612,-0.6789,-0.7139,-0.7139,-0.7319,-0.7408,-0.7139,-0.6962,-0.6723,-0.6538,-0.6376,-0.6221,-0.6207,-0.5974,-0.5836,-0.602,-0.5958,-0.5822,-0.5733,-0.5822,-0.5822,-0.5733,-0.5733,-0.5733,-0.5733,-0.5552,-0.5371,-0.5191,-0.5015,-0.4926,-0.4924,-0.4659,-0.448,-0.43,-0.4656,-0.4924,-0.501,-0.5303,-0.5534,-0.5621,-0.5548,-0.5461,-2.0117,-2.0571,-2.1404,-2.3082,-2.3665,-2.3649,-2.3016,-2.2188,-2.1192,-2.0006,-1.9066,-1.8319,-1.8086,-1.8144,-1.8202,-1.8008,-1.8008,-1.8162,-1.8632,-1.8701,-1.8864,-1.9233,-1.9274,-1.9152,-1.8772,-1.77,-1.6453,-1.4949,-1.3789,-1.2619,-1.1429,-1.0814,-1.0463,-1.0207,-0.9777,-0.9515,-0.9515,-0.9082,-0.8911,-0.917,-0.8204,-0.7764,-0.776,-0.7316,-0.7139,-0.7139,-0.7139,-0.7139,-0.7139,-0.7139,-0.7139,-0.7139,-0.7139,-0.7234,-0.7507,-0.7507,-0.768,-0.7944,-0.7944,-0.7944,-0.7852,-0.7319,-0.6966,-0.6795,-0.6792,-0.6263,-0.5819,-0.6254,-0.6343,-0.6257,-0.5822,-0.6349,-0.6966,-0.6966,-0.6962,-0.7051,-0.6962,-0.6609,-0.6343,-0.6343,-0.5994,-0.5733,-0.5733,-0.5733,-0.5733,-0.5733,-0.5908,-0.5997,-0.5819,-0.5997,-0.5994,-0.5733,-0.5733,-0.5733,-0.5733,-0.5644,-0.5552,-0.5371,-0.5371,-0.5107,-0.475,-0.448,-0.43,-0.43,-0.4569,-0.4832,-0.4996,-0.5255,-0.5427,-0.5684,-0.5673,-0.5556,-1.9059,-2.0172,0.0,-2.2868,-2.3386,-2.3041,-2.0978,-2.035,-2.0117,-1.9689,-1.9517,-1.9196,-1.8203,-1.8008,-1.8076,-1.8008,-1.8008,-1.8125,-1.8366,-1.8585,-1.876,-1.9,-1.9187,-1.9152,-1.8772,-1.8121,-1.7204,-1.5786,-1.4538,-1.3197,-1.1912,-1.0722,-0.9951,-0.9519,-0.9087,-0.8911,-0.9087,-0.8468,-0.8204,-0.8464,-0.7672,-0.7231,-0.7231,-0.7139,-0.7139,-0.7139,-0.7139,-0.7139,-0.7139,-0.7139,-0.7139,-0.7139,-0.7139,-0.7234,-0.7507,-0.7507,-0.768,-0.7944,-0.7944,-0.7944,-0.7852,-0.7492,-0.7143,-0.6792,-0.6523,-0.6083,-0.5733,-0.5822,-0.5819,-0.5819,-0.5733,-0.5822,-0.5997,-0.5997,-0.6257,-0.6432,-0.6083,-0.5908,-0.5819,-0.5819,-0.5733,-0.5733,-0.5733,-0.5733,-0.5733,-0.5997,-0.6083,-0.6171,-0.6257,-0.6171,-0.6083,-0.5997,-0.5822,-0.5733,-0.5733,-0.5552,-0.5371,-0.5099,-0.4926,-0.4837,-0.4661,-0.4661,-0.448,-0.43,-0.4569,-0.4712,-0.4807,-0.4984,-0.5149,-0.5301,-0.5214,-0.5189,-1.9222,-2.0435,0.0,-2.2948,-2.2937,-2.2121,-2.0218,-1.9356,-1.894,-1.8813,-1.8881,-1.8733,-1.8115,-1.8008,-1.8008,-1.8008,-1.8076,-1.8154,-1.8312,-1.849,-1.8708,-1.8947,-1.8889,-1.8707,-1.8425,-1.7959,-1.7131,-1.5801,-1.4629,-1.3535,-1.2425,-1.0809,-0.9951,-0.9777,-0.9087,-0.8828,-0.9087,-0.838,-0.8113,-0.8201,-0.7492,-0.7139,-0.7139,-0.7139,-0.7139,-0.7139,-0.7139,-0.7139,-0.7139,-0.7139,-0.7139,-0.7139,-0.7139,-0.7319,-0.768,-0.768,-0.7944,-0.8212,-0.8212,-0.8032,-0.7852,-0.7672,-0.7319,-0.6877,-0.6786,-0.6432,-0.5994,-0.5994,-0.5908,-0.5733,-0.5733,-0.5733,-0.5733,-0.5733,-0.5908,-0.5994,-0.5733,-0.5733,-0.5733,-0.5733,-0.5733,-0.5733,-0.5733,-0.5819,-0.5908,-0.5908,-0.6171,-0.6349,-0.6083,-0.6169,-0.608,-0.5816,-0.5641,-0.5463,-0.5371,-0.528,-0.5102,-0.4835,-0.4748,-0.4661,-0.448,-0.448,-0.4567,-0.4654,-0.4746,-0.4875,-0.5031,-0.5062,-0.5142,-0.5273,-0.5294,-0.535,-1.9536,0.0,-2.1774,-2.2799,-2.2313,-2.1246,-1.9796,-1.8723,-1.8008,-1.8008,-1.8008,-1.8008,-1.8008,-1.8008,-1.8008,-1.8008,-1.8144,-1.8262,-1.8276,-1.845,-1.8663,-1.8929,-1.8588,-1.825,-1.8006,-1.7635,-1.6894,-1.5726,-1.4803,-1.3795,-1.2778,-1.1149,-1.0207,-1.0033,-0.9345,-0.8999,-0.917,-0.8552,-0.8201,-0.8113,-0.7408,-0.7139,-0.7139,-0.7139,-0.7139,-0.7139,-0.7139,-0.7139,-0.7139,-0.7143,-0.7143,-0.7143,-0.7231,-0.7496,-0.794,-0.7852,-0.812,-0.8476,-0.8476,-0.8208,-0.7852,-0.794,-0.7584,-0.7139,-0.7139,-0.6697,-0.6254,-0.6254,-0.5994,-0.5733,-0.5733,-0.5733,-0.5733,-0.5733,-0.5733,-0.5733,-0.5733,-0.5733,-0.5733,-0.5733,-0.5733,-0.5733,-0.5733,-0.5997,-0.5997,-0.5819,-0.6263,-0.6441,-0.5822,-0.608,-0.6077,-0.546,-0.5371,-0.528,-0.501,-0.501,-0.4835,-0.475,-0.4661,-0.4659,-0.4387,-0.4478,-0.4656,-0.5099,-0.501,-0.5039,-0.5173,-0.5173,-0.5276,-0.5388,-0.5559,-0.5595,-1.8652,0.0,-2.2128,-2.1371,-2.115,-2.0673,-1.8674,-1.8115,-1.8008,-1.8008,-1.8008,-1.8008,-1.8008,-1.8008,-1.8008,-1.8008,-1.8008,-1.8027,-1.8018,-1.8395,-1.8682,-1.8722,-1.867,-1.8479,-1.8031,-1.7635,-1.7147,-1.6566,-1.5726,-1.4448,-1.2729,-1.1804,-1.0707,-0.917,-0.917,-0.9082,-0.8723,-0.8372,-0.8028,-0.7591,-0.7231,-0.7139,-0.7139,-0.7139,-0.7139,-0.7139,-0.7139,-0.7139,-0.7139,-0.7323,-0.7415,-0.7503,-0.768,-0.794,-0.8113,-0.7669,-0.7669,-0.794,-0.794,-0.7852,-0.7852,-0.83,-0.7852,-0.7139,-0.7139,-0.6526,-0.5819,-0.5819,-0.5733,-0.5733,-0.5733,-0.5733,-0.5733,-0.5733,-0.5733,-0.5733,-0.5733,-0.5733,-0.5733,-0.5733,-0.5908,-0.6083,-0.6083,-0.6083,-0.6083,-0.6083,-0.6171,-0.6171,-0.6083,-0.5902,-0.5722,-0.546,-0.5191,-0.501,-0.501,-0.4835,-0.475,-0.4661,-0.4661,-0.4748,-0.4921,-0.5102,-0.5371,-0.5644,-0.5018,-0.4833,-0.5063,-0.5063,-0.5115,-0.5294,-0.5373,-0.5501,-1.92,-2.0423,-2.1252,-2.0999,-2.0648,-1.9991,-1.8337,-1.7967,-1.8008,-1.8008,-1.8008,-1.8008,-1.8008,-1.8008,-1.8008,-1.8008,-1.8076,-1.8154,-1.8043,-1.8266,-1.8467,-1.8563,-1.81,-1.7796,-1.7827,-1.7282,-1.6847,-1.6722,-1.5816,-1.488,-1.4015,-1.2413,-1.1058,-1.0294,-0.9336,-0.8815,-0.8636,-0.8113,-0.7588,-0.7234,-0.7143,-0.7139,-0.7139,-0.7139,-0.7139,-0.7139,-0.7139,-0.7139,-0.7139,-0.7415,-0.7507,-0.7507,-0.7768,-0.8028,-0.8113,-0.7665,-0.7669,-0.7764,-0.7496,-0.7228,-0.7139,-0.7584,-0.7319,-0.6786,-0.7051,-0.6612,-0.6083,-0.6083,-0.5908,-0.5733,-0.5733,-0.5733,-0.5733,-0.5733,-0.5822,-0.5908,-0.5908,-0.5908,-0.5997,-0.6083,-0.6169,-0.6254,-0.6254,-0.6254,-0.6257,-0.6083,-0.6083,-0.5994,-0.5727,-0.5638,-0.5369,-0.5015,-0.4926,-0.4746,-0.4654,-0.4659,-0.4661,-0.4661,-0.4835,-0.4924,-0.501,-0.5099,-0.528,-0.5552,-0.5374,-0.5264,-0.5204,-0.5204,-0.5246,-0.5321,-0.5401,-0.5937,-1.931,-1.9961,-2.0076,-2.0442,-2.0113,-1.939,-1.8285,-1.7961,-1.7997,-1.8027,-1.8008,-1.8008,-1.8008,-1.8008,-1.8008,-1.8008,-1.8144,-1.8144,-1.7991,-1.8161,-1.8283,-1.8411,-1.7679,-1.7329,-1.7586,-1.6921,-1.6468,-1.6571,-1.5845,-1.5216,-1.4873,-1.3105,-1.1837,-1.1241,-0.9845,-0.8982,-0.8636,-0.7764,-0.7323,-0.7139,-0.7139,-0.7139,-0.7139,-0.7139,-0.7139,-0.7139,-0.7139,-0.7139,-0.7139,-0.7503,-0.7591,-0.7595,-0.7944,-0.8204,-0.8204,-0.7757,-0.758,-0.7492,-0.7228,-0.6786,-0.6432,-0.6962,-0.6786,-0.6428,-0.6786,-0.6609,-0.6257,-0.6257,-0.5994,-0.5733,-0.5733,-0.5733,-0.5819,-0.5819,-0.5994,-0.6169,-0.6169,-0.6169,-0.6257,-0.6343,-0.6432,-0.652,-0.6428,-0.6343,-0.6254,-0.5991,-0.5902,-0.5638,-0.5282,-0.5196,-0.5104,-0.4659,-0.4569,-0.448,-0.43,-0.448,-0.4659,-0.4661,-0.4924,-0.501,-0.5099,-0.5191,-0.528,-0.5463,-0.5644,-0.5629,-0.5415,-0.5468,-0.5426,-0.5445,-0.5918,-0.6677,-1.7838,-1.8585,-1.8963,-1.9042,-1.9261,-1.9285,-1.8214,-1.7967,-1.7986,-1.8018,-1.8008,-1.8008,-1.8008,-1.8008,-1.8008,-1.8008,-1.8008,-1.8017,-1.8,-1.818,-1.8294,-1.8371,-1.7847,-1.7458,-1.7492,-1.6782,-1.626,-1.6206,-1.615,-1.5544,-1.4162,-1.421,-1.3288,-1.1068,-1.0707,-0.9923,-0.8636,-0.758,-0.7139,-0.7139,-0.7139,-0.7139,-0.7139,-0.7139,-0.7139,-0.7139,-0.7139,-0.7139,-0.7143,-0.7676,-0.7856,-0.7944,-0.8388,-0.8564,-0.8476,-0.794,-0.7404,-0.6868,-0.7051,-0.67,-0.626,-0.6874,-0.6786,-0.6428,-0.6432,-0.6083,-0.5733,-0.5733,-0.5733,-0.5733,-0.5733,-0.5908,-0.6083,-0.6083,-0.6257,-0.6343,-0.6343,-0.6343,-0.6428,-0.6428,-0.6612,-0.6704,-0.6432,-0.6257,-0.5994,-0.5722,-0.5364,-0.501,-0.475,-0.475,-0.4659,-0.4389,-0.43,-0.43,-0.43,-0.43,-0.4389,-0.4661,-0.4924,-0.5099,-0.5371,-0.5552,-0.5644,-0.5644,-0.5733,-0.567,-0.5454,-0.5597,-0.5717,-0.5817,-0.6925,-0.7648,-1.7725,-1.7771,-1.7654,-1.8066,-1.8174,-1.8084,-1.7307,-1.747,-1.7825,-1.7833,-1.7805,-1.7877,-1.7959,-1.8031,-1.8027,-1.8011,-1.798,-1.8005,-1.8015,-1.8073,-1.8172,-1.8347,-1.7648,-1.7226,-1.7384,-1.6571,-1.6076,-1.6102,-1.597,-1.5688,-1.5387,-1.4727,-1.3961,-1.2856,-1.1991,-1.0956,-0.9923,-0.9488,-0.9309,-0.9309,-0.8673,-0.834,-0.8185,-0.7476,-0.7138,-0.7139,-0.7139,-0.7139,-0.7139,-0.7676,-0.7944,-0.7944,-0.8388,-0.8568,-0.8568,-0.8032,-0.7492,-0.6962,-0.6697,-0.6257,-0.5911,-0.6086,-0.6086,-0.5997,-0.5997,-0.5819,-0.5733,-0.5733,-0.5733,-0.5733,-0.5908,-0.5997,-0.6171,-0.6441,-0.6615,-0.6612,-0.6612,-0.6612,-0.67,-0.6786,-0.6966,-0.6877,-0.67,-0.6349,-0.5991,-0.5719,-0.5188,-0.4748,-0.475,-0.4569,-0.4389,-0.43,-0.43,-0.43,-0.43,-0.4565,-0.4832,-0.4924,-0.5282,-0.5463,-0.5552,-0.5644,-0.5733,-0.5733,-0.5733,-0.5673,-0.5464,-0.5602,-0.6093,-0.6852,-0.7388,-0.8196,-1.7396,-1.7317,-1.7109,-1.7439,-1.7591,-1.7567,-1.7144,-1.7324,-1.7613,-1.7683,-1.771,-1.771,-1.7868,-1.7949,-1.8033,-1.8012,-1.7977,-1.799,-1.7973,-1.7993,-1.8013,-1.8056,-1.7328,-1.6788,-1.6908,-1.6081,-1.5591,-1.5617,-1.5388,-1.5418,-1.5658,-1.5,-1.4283,-1.3589,-1.2578,-1.1558,-1.0611,-1.0265,-1.0091,-1.0091,-0.9033,-0.8504,-0.8446,-0.7595,-0.7186,-0.7152,-0.7152,-0.7095,-0.7139,-0.7676,-0.7944,-0.7944,-0.8208,-0.8296,-0.8296,-0.7764,-0.7231,-0.67,-0.652,-0.5991,-0.5463,-0.5552,-0.5552,-0.5463,-0.5463,-0.5463,-0.5463,-0.5552,-0.5644,-0.5641,-0.5908,-0.5997,-0.6171,-0.6615,-0.6704,-0.6704,-0.6704,-0.6792,-0.6881,-0.6789,-0.6877,-0.6877,-0.6615,-0.6171,-0.5813,-0.5633,-0.5013,-0.4569,-0.4569,-0.4389,-0.43,-0.43,-0.4389,-0.4389,-0.4389,-0.4743,-0.501,-0.5099,-0.546,-0.5644,-0.5733,-0.5733,-0.5822,-0.6174,-0.6174,-0.6304,-0.6471,-0.6336,-0.685,-0.7923,-0.8294,-0.9004,0.0,0.0,0.0,-1.7184,-1.7503,-1.7869,-1.775,-1.7602,-1.7515,-1.7703,-1.7728,-1.7662,-1.7746,-1.7904,-1.7988,-1.7988,-1.7979,-1.8031,-1.8035,-1.8011,-1.7856,-1.7544,-1.6917,-1.6299,-1.5936,-1.5205,-1.4774,-1.4717,-1.46,-1.4629,-1.4896,-1.4926,-1.4323,-1.3093,-1.2407,-1.1632,-1.0697,-0.9749,-0.9318,-0.9318,-0.8275,-0.7684,-0.768,-0.7435,-0.7282,-0.7179,-0.7179,-0.7177,-0.7139,-0.7676,-0.7852,-0.7852,-0.7764,-0.776,-0.776,-0.7231,-0.67,-0.6083,-0.6343,-0.5808,-0.501,-0.5282,-0.5191,-0.501,-0.501,-0.501,-0.5099,-0.5282,-0.5371,-0.5463,-0.5644,-0.5908,-0.6171,-0.6343,-0.6428,-0.6428,-0.6428,-0.6786,-0.6874,-0.626,-0.6438,-0.6615,-0.6171,-0.5727,-0.5371,-0.5371,-0.4746,-0.43,-0.43,-0.43,-0.43,-0.43,-0.4569,-0.475,-0.475,-0.4924,-0.5099,-0.5371,-0.546,-0.5552,-0.5733,-0.5733,-0.6171,-0.7139,-0.7139,-0.7577,-0.8544,-0.7756,-0.7932,-0.9039,-0.9798,-0.9937,-1.6134,0.0,0.0,0.0,0.0,0.0,-1.6814,-1.7133,-1.7492,-1.7534,-1.763,-1.7706,-1.7873,-1.7952,-1.804,-1.804,-1.8029,-1.7976,-1.7977,-1.7717,-1.7536,-1.7335,-1.6444,-1.5785,-1.552,-1.4971,-1.4547,-1.4591,-1.4532,-1.4632,-1.481,-1.4818,-1.4823,-1.4782,-1.3834,-1.3336,-1.3124,-1.2522,-1.2266,-1.226,-1.1069,-1.0031,-0.9096,-0.8247,-0.7359,-0.6583,-0.6583,-0.6573,-0.6609,-0.7139,-0.7319,-0.7319,-0.7136,-0.7136,-0.7228,-0.6786,-0.6254,-0.5811,-0.5897,-0.5542,-0.501,-0.5099,-0.5099,-0.501,-0.501,-0.501,-0.5099,-0.5282,-0.5371,-0.546,-0.5908,-0.6169,-0.6343,-0.6428,-0.6428,-0.6343,-0.6257,-0.6432,-0.6517,-0.6343,-0.6346,-0.6171,-0.5899,-0.5455,-0.5102,-0.4928,-0.4569,-0.43,-0.43,-0.448,-0.4569,-0.4569,-0.4746,-0.4924,-0.4924,-0.5102,-0.5282,-0.5371,-0.6169,-0.6697,-0.67,-0.7404,-0.7841,-0.8105,-0.8105,-0.8544,-0.9506,-0.87,-0.8832,-0.9888,-0.9947,-0.9947,-1.6128,-1.6077,-1.6131,-1.6267,0.0,0.0,-1.6966,-1.7098,-1.7296,-1.756,-1.7389,-1.7294,-1.7546,-1.7546,-1.7465,-1.7465,-1.7443,-1.7527,-1.7683,-1.7554,-1.7251,-1.6793,-1.6142,-1.5582,-1.5349,-1.4727,-1.4315,-1.4365,-1.4216,-1.4256,-1.4669,-1.5016,-1.5095,-1.4963,-1.4476,-1.4144,-1.3828,-1.3137,-1.279,-1.279,-1.1668,-1.0658,-0.981,-0.9113,-0.8277,-0.7484,-0.7136,-0.6909,-0.6786,-0.6763,-0.6789,-0.6966,-0.6609,-0.6609,-0.6612,-0.5988,-0.563,-0.5364,-0.5364,-0.5188,-0.4835,-0.4835,-0.4832,-0.4743,-0.4743,-0.4743,-0.4743,-0.5102,-0.5371,-0.5552,-0.5819,-0.5994,-0.608,-0.608,-0.608,-0.608,-0.5997,-0.5994,-0.608,-0.608,-0.6083,-0.5994,-0.5636,-0.5277,-0.4921,-0.475,-0.448,-0.4476,-0.5008,-0.4835,-0.5013,-0.5891,-0.5805,-0.5894,-0.6334,-0.6514,-0.6694,-0.6694,-0.7312,-0.7665,-0.7665,-0.8193,-0.8719,-0.9069,-0.9069,-0.9547,-1.0519,-0.9598,-0.9574,-1.0333,-1.0177,-0.9864,-1.6318,-1.6212,-1.6284,-1.6804,-1.6886,0.0,-1.7569,-1.7229,-1.6989,-1.7562,-1.7047,-1.6636,-1.7082,-1.7017,-1.6774,-1.67,-1.6732,-1.6935,-1.7302,-1.731,-1.7009,-1.6246,-1.5828,-1.5465,-1.5137,-1.4532,-1.4137,-1.4137,-1.3773,-1.3872,-1.4487,-1.5131,-1.5199,-1.4391,-1.4482,-1.4146,-1.3398,-1.2528,-1.21,-1.2095,-1.1079,-1.0429,-1.004,-0.982,-0.9483,-0.902,-0.8231,-0.7757,-0.735,-0.6621,-0.6511,-0.6707,-0.6171,-0.5994,-0.5905,-0.5188,-0.4921,-0.4921,-0.4921,-0.4835,-0.4661,-0.4661,-0.448,-0.43,-0.43,-0.43,-0.4478,-0.4921,-0.5371,-0.5733,-0.5733,-0.5733,-0.5733,-0.5733,-0.5733,-0.5733,-0.5822,-0.5822,-0.5911,-0.5997,-0.6083,-0.6083,-0.5638,-0.5455,-0.5275,-0.5102,-0.4832,-0.5095,-0.6154,-0.563,-0.5805,-0.7639,-0.7298,-0.7305,-0.8181,-0.8364,-0.8544,-0.8544,-0.8632,-0.8632,-0.8632,-0.8719,-0.9165,-0.9979,-1.0003,-1.0475,-1.1325,-1.0481,-1.0291,-1.0651,-1.0326,-0.9839,-1.6236,-1.5851,-1.5693,-1.6138,-1.6217,0.0,-1.6663,-1.6689,-1.6703,-1.7222,-1.7242,-1.7362,-1.7748,-1.7801,-1.7421,-1.6492,-1.6896,-1.7196,-1.6854,-1.6574,-1.6203,-1.5782,-1.5315,-1.4992,-1.4661,-1.4501,-1.4387,-1.4387,-1.4348,-1.4287,-1.4335,-1.4469,-1.4482,-1.4132,-1.3808,-1.3561,-1.3398,-1.2875,-1.2534,-1.2528,-1.2099,-1.1336,-1.0347,-1.0042,-0.9228,-0.7894,-0.8078,-0.7881,-0.7513,-0.7621,-0.7111,-0.6171,-0.5455,-0.5369,-0.546,-0.4746,-0.4476,-0.4476,-0.4476,-0.4389,-0.4389,-0.4389,-0.43,-0.43,-0.43,-0.4478,-0.4748,-0.5193,-0.5463,-0.5733,-0.5733,-0.5733,-0.5733,-0.5733,-0.5733,-0.5911,-0.67,-0.6789,-0.7051,-0.7841,-0.7224,-0.6602,-0.6517,-0.6946,-0.72,-0.7204,-0.7115,-0.72,-0.7464,-0.7471,-0.765,-0.8089,-0.8185,-0.8277,-0.8452,-0.8456,-0.8544,-0.8544,-0.9244,-0.9593,-0.9593,-1.0386,-1.0732,-1.0731,-1.0724,-1.0828,-1.1239,-1.1051,-1.0968,-1.0779,-1.0074,-0.9593,-1.6185,-1.5788,-1.5621,-1.5834,-1.5778,0.0,0.0,-1.6233,-1.6224,-1.6766,-1.6501,-1.6388,-1.6881,-1.6764,-1.6438,-1.5904,-1.6202,-1.6269,-1.5633,-1.5866,-1.5944,-1.5532,-1.5264,-1.5123,-1.4962,-1.4801,-1.464,-1.4479,-1.4453,-1.4365,-1.4272,-1.4426,-1.4248,-1.3808,-1.3561,-1.3307,-1.3052,-1.279,-1.2705,-1.2699,-1.2439,-1.1922,-1.1169,-1.0841,-1.0269,-0.9304,-0.8862,-0.8604,-0.8392,-0.7466,-0.6734,-0.6166,-0.5719,-0.5364,-0.5102,-0.4567,-0.43,-0.43,-0.43,-0.43,-0.43,-0.43,-0.4389,-0.448,-0.448,-0.4748,-0.5104,-0.5371,-0.5552,-0.5733,-0.5733,-0.5733,-0.5733,-0.5733,-0.6086,-0.6523,-0.6962,-0.7492,-0.7929,-0.8368,-0.8452,-0.8185,-0.7566,-0.7738,-0.7994,-0.7815,-0.7815,-0.799,-0.8607,-0.844,-0.8619,-0.9676,-0.9414,-0.9419,-0.9859,-0.9859,-0.9859,-0.9859,-1.0299,-1.0559,-1.0559,-1.0819,-1.0871,-1.0632,-1.085,-1.0982,-1.1012,-1.1199,-1.1106,-1.0913,-1.0237,-0.9804,-1.6461,-1.6017,-1.585,-1.5804,-1.5766,-1.5847,0.0,0.0,0.0,-1.6354,-1.5828,-1.5332,-1.5917,-1.5807,-1.5559,-1.5323,-1.5537,-1.5427,-1.4595,-1.5351,-1.5716,-1.4981,-1.5065,-1.513,-1.509,-1.4844,-1.4634,-1.4424,-1.4205,-1.4082,-1.4117,-1.4351,-1.4062,-1.3307,-1.3307,-1.3052,-1.2705,-1.2705,-1.2705,-1.2699,-1.2391,-1.2125,-1.1914,-1.1594,-1.1246,-1.0824,-0.9869,-0.9315,-0.9078,-0.7312,-0.6449,-0.634,-0.5983,-0.5453,-0.4921,-0.4476,-0.43,-0.43,-0.43,-0.43,-0.43,-0.4389,-0.4567,-0.4748,-0.4839,-0.5104,-0.5371,-0.546,-0.5552,-0.5733,-0.5733,-0.5822,-0.5997,-0.5997,-0.67,-0.7404,-0.7577,-0.8193,-0.8807,-0.8982,-0.968,-0.9854,-0.8711,-0.8707,-0.8703,-0.8519,-0.8515,-0.8786,-0.9845,-0.9231,-0.941,-1.1084,-1.0651,-1.0472,-1.1262,-1.1262,-1.1262,-1.1176,-1.1176,-1.1089,-1.1089,-1.0686,-1.0445,-1.027,-1.0667,-1.0864,-1.0847,-1.0933,-1.0967,-1.0852,-1.0359,-1.0062,-1.748,-1.666,-1.6162,-1.65,-1.6296,-1.613,-1.6563,0.0,-1.6002,-1.64,0.0,-1.5987,-1.6473,0.0,0.0,-1.5367,-1.59,-1.5988,-1.4891,-1.5119,-1.4812,-1.3369,-1.3845,-1.4207,-1.4071,-1.4066,-1.4017,-1.4115,-1.3682,-1.3467,-1.349,-1.3542,-1.3307,-1.279,-1.279,-1.279,-1.2705,-1.2705,-1.2705,-1.2699,-1.2204,-1.195,-1.1908,-1.1395,-1.0767,-1.0073,-1.024,-0.9496,-0.809,-0.8185,-0.7377,-0.6071,-0.5191,-0.4837,-0.4659,-0.4389,-0.43,-0.43,-0.43,-0.43,-0.43,-0.4569,-0.4835,-0.501,-0.5282,-0.5371,-0.546,-0.5644,-0.5644,-0.5733,-0.5733,-0.6349,-0.6962,-0.6962,-0.7665,-0.8544,-0.9419,-0.968,-0.9946,-1.0824,-1.1089,-1.0824,-0.9854,-1.0386,-1.0911,-1.0911,-1.0906,-1.0911,-1.1084,-1.0997,-1.0997,-1.1262,-1.1176,-1.1176,-1.1262,-1.1262,-1.1084,-1.0722,-1.0636,-1.0554,-1.0125,-1.0046,-1.0055,-1.0324,-1.0255,-1.0366,-1.0667,-1.0413,-1.0518,-1.0765,-1.0368,-0.9978,-1.7464,-1.7154,-1.699,-1.6542,-1.6376,-1.6287,-1.6019,-1.5689,-1.5476,-1.5638,0.0,0.0,0.0,0.0,0.0,0.0,-1.5727,-1.5665,-1.4522,-1.461,-1.4643,-1.4336,-1.3935,-1.3797,-1.3902,-1.3999,-1.4145,-1.4391,-1.3758,-1.3393,-1.3385,-1.3659,-1.3483,-1.2705,-1.296,-1.296,-1.2705,-1.2705,-1.2705,-1.2699,-1.2174,-1.192,-1.1902,-1.1359,-1.0887,-1.0588,-1.0293,-0.9951,-0.9467,-0.853,-0.7983,-0.7527,-0.648,-0.5542,-0.4661,-0.4389,-0.43,-0.43,-0.43,-0.4389,-0.4569,-0.5015,-0.5193,-0.528,-0.5463,-0.5552,-0.573,-0.6349,-0.6526,-0.6612,-0.7139,-0.7577,-0.7929,-0.7929,-0.8632,-0.9419,-0.9859,-1.0299,-1.0824,-1.1176,-1.1262,-1.1176,-1.0824,-1.1003,-1.1262,-1.1262,-1.1262,-1.1262,-1.1262,-1.1262,-1.1262,-1.1262,-1.1262,-1.1262,-1.1262,-1.1084,-1.0814,-1.0636,-1.0463,-1.0294,-1.0038,-1.0124,-1.0083,-0.9911,-1.0021,-1.0035,-1.0218,-1.0057,-1.0068,-1.0237,-0.9854,-0.9841,-1.7813,-1.7581,-1.7571,-1.6759,-1.6553,-1.6448,-1.598,-1.5614,-1.5358,-1.5358,-1.518,0.0,0.0,0.0,-1.5576,-1.5576,0.0,-1.5342,-1.4604,-1.4387,-1.4307,-1.4371,-1.3739,-1.3331,-1.3285,-1.358,-1.3824,-1.389,-1.3329,-1.3065,-1.3215,-1.3568,-1.3483,-1.2875,-1.3137,-1.3137,-1.2875,-1.279,-1.2705,-1.2699,-1.2174,-1.192,-1.1902,-1.1359,-1.1037,-1.0887,-1.0293,-1.0051,-0.9974,-0.8662,-0.8109,-0.8203,-0.7414,-0.6444,-0.5502,-0.5318,-0.5335,-0.5445,-0.5415,-0.53,-0.5366,-0.5988,-0.5988,-0.5902,-0.6346,-0.6438,-0.6615,-0.7316,-0.7492,-0.7665,-0.8281,-0.8719,-0.8894,-0.8894,-0.9593,-1.0299,-1.0299,-1.0824,-1.1262,-1.1262,-1.1262,-1.1262,-1.1262,-1.1262,-1.1262,-1.1262,-1.1262,-1.1262,-1.1262,-1.1262,-1.1262,-1.1084,-1.1084,-1.1084,-1.0916,-1.0646,-1.0376,-1.0289,-1.012,-0.9951,-0.9777,-1.0038,-0.9946,-0.9602,-0.9841,-0.992,-0.992,-0.9848,-0.9766,-0.9754,-0.9673,-0.9714,-1.8848,-1.8033,-1.7638,-1.7501,-1.6985,-1.6645,-1.7036,-1.6576,-1.6097,-1.6097,-1.5754,-1.548,-1.548,-1.5647,-1.5797,-1.5797,-1.5644,0.0,0.0,-1.4558,-1.3452,-1.2145,-1.2632,-1.2666,-1.1774,-1.2351,-1.2592,-1.2068,-1.1944,-1.2168,-1.2674,-1.2705,-1.296,-1.3392,-1.296,-1.296,-1.3398,-1.2966,-1.2705,-1.2699,-1.2174,-1.192,-1.1902,-1.1359,-1.0887,-1.0513,-1.0513,-0.9658,-0.8304,-0.841,-0.7852,-0.6837,-0.7065,-0.7303,-0.7706,-0.7706,-0.7978,-0.8362,-0.8117,-0.7517,-0.6864,-0.783,-0.7661,-0.7228,-0.8105,-0.8368,-0.8456,-0.8456,-0.8456,-0.8456,-0.8456,-0.9157,-0.9859,-0.9859,-1.0559,-1.1262,-1.1262,-1.1262,-1.1262,-1.1262,-1.1262,-1.1262,-1.1262,-1.1262,-1.1262,-1.1262,-1.1262,-1.1262,-1.1262,-1.1262,-1.117,-1.0636,-1.0636,-1.0463,-1.0038,-1.0038,-0.9951,-0.9689,-0.9432,-0.9345,-0.9345,-0.9519,-0.9602,-0.9602,-0.9868,-0.996,-0.996,-0.9643,-0.957,-0.9846,-0.9837,-0.9736,-1.9501,-1.9367,-1.9111,-1.8283,-1.7972,-1.7608,-1.6711,-1.6211,-1.5859,-1.5718,-1.5568,-1.5505,-1.5655,-1.5726,-1.5805,-1.5805,-1.5549,-1.5205,0.0,-1.4196,-1.3215,-1.2163,-1.2787,-1.3014,-1.227,-1.2655,-1.305,-1.2995,-1.2644,-1.2518,-1.2693,-1.3294,-1.3379,-1.296,-1.3379,-1.3379,-1.296,-1.279,-1.2705,-1.2699,-1.2349,-1.2089,-1.1908,-1.1552,-1.1211,-1.0887,-1.0588,-1.0181,-0.9673,-0.9497,-0.9196,-0.8879,-0.894,-0.9527,-0.9976,-0.839,-0.8018,-0.831,-0.8232,-0.7963,-0.783,-0.8273,-0.8189,-0.8105,-0.8368,-0.8544,-0.8632,-0.9244,-0.9419,-0.9593,-1.0207,-1.0559,-1.0824,-1.0824,-1.1089,-1.1262,-1.1262,-1.1262,-1.1262,-1.1262,-1.1262,-1.1262,-1.1262,-1.1084,-1.0906,-1.1262,-1.1084,-1.0819,-1.0819,-1.0559,-1.0386,-1.0207,-1.0207,-1.012,-1.0038,-0.9864,-0.9689,-0.9602,-0.9515,-0.9602,-0.9781,-0.9864,-0.9864,-0.9864,-0.9777,-0.9671,-0.9629,-0.9422,-0.9342,-0.9552,-0.9519,-0.955,-1.9919,-1.9781,-1.9512,-1.8537,-1.8137,-1.7714,-1.6553,-1.6128,-1.5914,-1.5842,-1.5669,-1.5732,-1.6148,-1.5985,-1.5848,-1.5977,-1.5557,-1.4976,0.0,-1.3672,-1.2972,-1.2058,-1.2885,-1.3257,-1.2631,-1.2697,-1.3037,-1.3454,-1.2795,-1.2506,-1.2693,-1.347,-1.3639,-1.3045,-1.3717,-1.3717,-1.3045,-1.296,-1.2875,-1.2875,-1.2439,-1.231,-1.2295,-1.1866,-1.1516,-1.125,-1.0883,-1.0604,-1.0246,-1.0027,-0.9958,-1.0058,-1.0071,-1.0701,-1.1404,-0.9701,-0.9258,-0.9596,-0.9491,-0.9205,-0.8886,-0.9331,-0.9244,-0.9069,-0.9419,-0.9506,-0.9593,-1.0207,-1.0386,-1.0559,-1.1176,-1.1262,-1.1262,-1.1262,-1.1262,-1.1262,-1.1262,-1.1262,-1.1267,-1.1181,-1.1181,-1.1176,-1.0997,-1.0733,-1.0641,-1.0997,-1.0641,-1.0381,-1.0381,-1.0125,-1.0038,-1.0038,-0.9864,-0.9694,-0.9602,-0.9602,-0.9602,-0.9602,-0.9689,-0.9777,-0.9951,-1.0038,-0.9989,-0.9976,-0.98,-0.9634,-0.9561,-0.9439,-0.9405,-0.9544,-0.9518,-0.9705]},{"header":{"parameterUnit":"m.s-1","parameterCategory":1,"la1":30.6,"la2":29.2853,"lo1":-89.7004,"lo2":-87.6739,"dy":0.0162,"dx":0.0183,"nx":112,"ny":82,"refTime":"2023-05-13T06:00:00:Z","depth":0,"parameterNumber":3,"parameterNumberName":"V-component_of_WINDS"},"data":[0.0,0.0,0.0,0.0,0.0,0.0,0.0,0.0,0.0,0.0,0.0,0.0,0.0,0.0,0.0,0.0,0.0,0.0,0.0,0.0,0.0,0.0,0.0,0.0,0.0,0.0,0.0,0.0,0.0,0.0,0.0,0.0,0.0,0.0,0.0,0.0,0.0,0.0,0.0,0.0,0.0,0.0,0.0,0.0,0.0,0.0,0.0,0.0,0.0,0.0,0.0,0.0,0.0,0.0,0.0,0.0,0.0,0.0,0.0,0.0,0.0,0.0,0.0,0.0,0.0,0.0,0.0,0.0,0.0,0.0,0.0,0.0,0.0,0.0,0.0,0.0,0.0,0.0,0.0,0.0,0.0,0.0,0.0,0.0,0.0,0.0,0.0,0.0,0.0,0.0,-2.6259,-2.6155,-2.8043,-2.9475,-2.9946,-2.9924,-2.8838,-2.6315,0.0,0.0,0.0,0.0,0.0,0.0,0.0,0.0,0.0,0.0,0.0,0.0,0.0,0.0,0.0,0.0,0.0,0.0,0.0,0.0,0.0,0.0,0.0,0.0,0.0,0.0,0.0,0.0,0.0,0.0,0.0,0.0,0.0,0.0,0.0,0.0,0.0,0.0,0.0,0.0,0.0,0.0,0.0,0.0,0.0,0.0,0.0,0.0,0.0,0.0,0.0,0.0,0.0,0.0,0.0,0.0,0.0,0.0,0.0,0.0,0.0,0.0,0.0,0.0,0.0,0.0,0.0,0.0,0.0,0.0,0.0,0.0,0.0,0.0,0.0,0.0,0.0,0.0,0.0,0.0,0.0,0.0,0.0,0.0,0.0,0.0,0.0,0.0,0.0,0.0,0.0,0.0,0.0,0.0,0.0,0.0,0.0,0.0,0.0,0.0,0.0,0.0,0.0,0.0,-2.8681,-3.0757,-3.1261,-3.1553,-3.1632,-3.1386,-3.0329,-2.8295,0.0,0.0,0.0,0.0,0.0,0.0,0.0,0.0,0.0,0.0,0.0,0.0,0.0,0.0,0.0,0.0,0.0,0.0,0.0,0.0,0.0,0.0,0.0,0.0,0.0,0.0,0.0,0.0,0.0,0.0,0.0,0.0,0.0,0.0,0.0,0.0,0.0,0.0,0.0,0.0,0.0,0.0,0.0,0.0,0.0,0.0,0.0,0.0,0.0,0.0,0.0,0.0,0.0,0.0,0.0,0.0,0.0,0.0,0.0,0.0,0.0,0.0,0.0,0.0,0.0,0.0,0.0,0.0,0.0,0.0,0.0,0.0,0.0,0.0,0.0,0.0,0.0,0.0,0.0,0.0,0.0,0.0,0.0,0.0,0.0,0.0,0.0,0.0,0.0,0.0,0.0,0.0,0.0,0.0,0.0,0.0,0.0,0.0,0.0,0.0,0.0,0.0,0.0,-2.7612,-2.8856,-3.1711,-3.1758,-3.1693,-3.1982,-3.1811,-3.0835,-2.8739,-2.8488,0.0,0.0,0.0,0.0,0.0,0.0,0.0,0.0,0.0,0.0,0.0,0.0,0.0,0.0,0.0,0.0,0.0,0.0,0.0,0.0,0.0,0.0,0.0,0.0,0.0,0.0,0.0,0.0,0.0,0.0,0.0,0.0,0.0,0.0,0.0,0.0,0.0,0.0,0.0,0.0,0.0,0.0,0.0,0.0,0.0,0.0,0.0,0.0,0.0,0.0,0.0,0.0,0.0,0.0,0.0,0.0,0.0,0.0,0.0,0.0,0.0,0.0,0.0,0.0,0.0,0.0,0.0,0.0,0.0,0.0,0.0,0.0,0.0,0.0,0.0,0.0,0.0,0.0,0.0,0.0,0.0,0.0,0.0,0.0,0.0,0.0,0.0,0.0,0.0,0.0,0.0,0.0,0.0,0.0,0.0,0.0,0.0,0.0,0.0,0.0,0.0,0.0,-2.8976,-3.0021,-3.2342,-3.2184,-3.2118,-3.2557,-3.2416,-3.1471,-2.936,-2.9147,0.0,0.0,0.0,0.0,0.0,0.0,0.0,0.0,0.0,0.0,0.0,0.0,0.0,0.0,0.0,0.0,0.0,0.0,0.0,0.0,0.0,0.0,0.0,0.0,0.0,0.0,0.0,0.0,0.0,0.0,0.0,0.0,0.0,0.0,0.0,0.0,0.0,0.0,0.0,0.0,0.0,0.0,0.0,0.0,0.0,0.0,0.0,0.0,0.0,0.0,0.0,0.0,0.0,0.0,0.0,0.0,0.0,0.0,0.0,0.0,0.0,0.0,0.0,0.0,0.0,0.0,0.0,0.0,0.0,0.0,0.0,0.0,0.0,0.0,0.0,0.0,0.0,0.0,0.0,0.0,0.0,0.0,0.0,0.0,0.0,0.0,0.0,0.0,0.0,0.0,0.0,0.0,0.0,0.0,0.0,0.0,0.0,0.0,0.0,0.0,0.0,0.0,-3.2463,-3.4013,-3.4187,-3.4216,-3.4201,-3.4216,-3.3862,-3.2976,-3.1291,-3.0166,0.0,0.0,0.0,0.0,0.0,0.0,0.0,0.0,0.0,0.0,0.0,0.0,0.0,0.0,0.0,0.0,0.0,0.0,0.0,0.0,0.0,0.0,0.0,0.0,0.0,0.0,0.0,0.0,0.0,0.0,0.0,0.0,0.0,0.0,0.0,0.0,0.0,0.0,0.0,0.0,0.0,0.0,0.0,0.0,0.0,0.0,0.0,0.0,0.0,0.0,0.0,0.0,0.0,0.0,0.0,0.0,0.0,0.0,0.0,0.0,0.0,0.0,0.0,0.0,0.0,0.0,0.0,0.0,0.0,0.0,0.0,0.0,0.0,0.0,0.0,0.0,0.0,0.0,0.0,0.0,0.0,0.0,0.0,0.0,0.0,0.0,0.0,0.0,0.0,0.0,0.0,0.0,0.0,0.0,0.0,0.0,0.0,0.0,0.0,0.0,0.0,0.0,-3.1177,-3.2483,-3.3688,-3.3819,-3.4003,-3.4286,-3.4211,-3.3297,-3.1435,0.0,0.0,0.0,0.0,0.0,0.0,0.0,0.0,0.0,0.0,0.0,0.0,0.0,0.0,0.0,0.0,0.0,0.0,0.0,0.0,0.0,0.0,0.0,0.0,0.0,0.0,0.0,0.0,0.0,0.0,0.0,0.0,0.0,0.0,0.0,0.0,0.0,0.0,0.0,0.0,0.0,0.0,0.0,0.0,0.0,0.0,0.0,0.0,0.0,0.0,0.0,0.0,0.0,0.0,0.0,0.0,0.0,0.0,0.0,0.0,0.0,0.0,0.0,0.0,0.0,0.0,0.0,0.0,0.0,0.0,0.0,0.0,0.0,0.0,0.0,0.0,0.0,0.0,0.0,0.0,0.0,0.0,0.0,0.0,0.0,0.0,0.0,0.0,0.0,0.0,0.0,0.0,0.0,0.0,0.0,0.0,0.0,0.0,0.0,0.0,0.0,0.0,-2.9508,-3.0539,-3.17,-3.2956,-3.3281,-3.3524,-3.3847,-3.4089,-3.346,-3.1566,0.0,0.0,0.0,0.0,0.0,0.0,0.0,0.0,0.0,0.0,0.0,0.0,0.0,0.0,0.0,0.0,0.0,0.0,0.0,0.0,0.0,0.0,0.0,0.0,0.0,0.0,0.0,0.0,0.0,0.0,0.0,0.0,0.0,0.0,0.0,0.0,0.0,0.0,0.0,0.0,0.0,0.0,0.0,0.0,0.0,0.0,0.0,0.0,0.0,0.0,0.0,0.0,0.0,0.0,0.0,0.0,0.0,0.0,0.0,0.0,0.0,0.0,0.0,0.0,0.0,0.0,0.0,0.0,0.0,0.0,0.0,0.0,0.0,0.0,0.0,0.0,0.0,0.0,0.0,0.0,0.0,0.0,0.0,0.0,0.0,0.0,0.0,0.0,0.0,0.0,0.0,0.0,0.0,0.0,0.0,0.0,0.0,0.0,0.0,0.0,0.0,0.0,-2.961,-3.1308,-3.2434,-3.2306,-3.2849,-3.3084,-3.2945,-3.3679,-3.3496,0.0,0.0,0.0,0.0,0.0,0.0,0.0,0.0,0.0,0.0,0.0,0.0,0.0,0.0,0.0,0.0,0.0,0.0,0.0,0.0,0.0,0.0,0.0,0.0,0.0,0.0,0.0,0.0,0.0,0.0,0.0,0.0,0.0,0.0,0.0,0.0,0.0,0.0,0.0,0.0,0.0,0.0,0.0,0.0,0.0,0.0,0.0,0.0,0.0,0.0,0.0,0.0,0.0,0.0,0.0,0.0,0.0,0.0,0.0,0.0,0.0,0.0,0.0,0.0,0.0,0.0,0.0,0.0,0.0,0.0,0.0,0.0,0.0,0.0,0.0,0.0,0.0,0.0,0.0,0.0,0.0,0.0,0.0,0.0,0.0,0.0,0.0,0.0,0.0,0.0,0.0,0.0,0.0,0.0,0.0,0.0,0.0,0.0,0.0,0.0,0.0,0.0,0.0,-2.8956,-3.0248,-3.1431,-3.2129,-3.2418,-3.2766,-3.3459,-3.3942,-3.3245,-3.1102,0.0,0.0,0.0,0.0,0.0,0.0,0.0,0.0,0.0,0.0,0.0,0.0,0.0,0.0,0.0,0.0,0.0,0.0,0.0,0.0,0.0,0.0,0.0,0.0,0.0,0.0,0.0,0.0,0.0,0.0,0.0,0.0,0.0,0.0,0.0,0.0,0.0,0.0,0.0,0.0,0.0,0.0,0.0,0.0,0.0,0.0,0.0,0.0,0.0,0.0,0.0,0.0,0.0,0.0,0.0,0.0,0.0,0.0,0.0,0.0,0.0,0.0,0.0,0.0,0.0,0.0,0.0,0.0,0.0,0.0,0.0,0.0,0.0,0.0,0.0,0.0,0.0,0.0,0.0,0.0,0.0,0.0,0.0,0.0,0.0,0.0,0.0,0.0,0.0,0.0,0.0,0.0,0.0,0.0,0.0,0.0,0.0,0.0,0.0,0.0,0.0,0.0,-2.8681,-3.0016,-3.117,-3.1663,-3.2199,-3.2715,-3.3197,-3.3824,-3.3454,-3.1756,0.0,0.0,0.0,0.0,0.0,0.0,0.0,0.0,0.0,0.0,0.0,0.0,0.0,0.0,0.0,0.0,0.0,0.0,0.0,0.0,0.0,0.0,0.0,0.0,0.0,0.0,0.0,0.0,0.0,0.0,0.0,0.0,0.0,0.0,0.0,0.0,0.0,0.0,0.0,0.0,0.0,0.0,0.0,0.0,0.0,0.0,0.0,0.0,0.0,0.0,0.0,0.0,0.0,0.0,0.0,0.0,0.0,0.0,0.0,0.0,0.0,0.0,0.0,0.0,0.0,0.0,0.0,0.0,0.0,0.0,0.0,0.0,0.0,0.0,0.0,0.0,0.0,0.0,0.0,0.0,0.0,0.0,0.0,0.0,0.0,0.0,0.0,0.0,0.0,0.0,0.0,0.0,0.0,0.0,0.0,0.0,0.0,0.0,0.0,0.0,0.0,0.0,-2.8793,-3.0337,-3.1436,-3.119,-3.2236,-3.2817,-3.2554,-3.3507,-3.381,-3.3176,0.0,0.0,0.0,0.0,0.0,0.0,0.0,0.0,0.0,0.0,0.0,0.0,0.0,0.0,0.0,0.0,0.0,0.0,0.0,0.0,0.0,0.0,0.0,0.0,0.0,0.0,0.0,0.0,0.0,0.0,0.0,0.0,0.0,0.0,0.0,0.0,0.0,0.0,0.0,0.0,0.0,0.0,0.0,0.0,0.0,0.0,0.0,0.0,0.0,0.0,0.0,0.0,0.0,0.0,0.0,0.0,0.0,0.0,0.0,0.0,-3.0721,-3.0123,0.0,0.0,0.0,0.0,0.0,0.0,0.0,0.0,0.0,0.0,0.0,0.0,0.0,0.0,0.0,0.0,0.0,0.0,0.0,0.0,0.0,0.0,0.0,0.0,0.0,0.0,0.0,0.0,0.0,0.0,0.0,0.0,0.0,0.0,0.0,0.0,0.0,0.0,0.0,0.0,-2.9372,-3.0622,-3.1802,-3.2516,-3.2695,-3.3013,-3.3539,-3.3899,-3.3697,-3.2708,-3.2663,0.0,0.0,0.0,0.0,0.0,0.0,0.0,0.0,0.0,0.0,0.0,0.0,0.0,0.0,0.0,0.0,0.0,0.0,0.0,0.0,0.0,0.0,0.0,0.0,0.0,0.0,0.0,0.0,0.0,0.0,0.0,0.0,0.0,0.0,0.0,0.0,0.0,0.0,0.0,0.0,0.0,0.0,0.0,0.0,0.0,0.0,0.0,0.0,0.0,0.0,0.0,0.0,0.0,0.0,0.0,0.0,0.0,0.0,0.0,-3.1286,-3.0908,0.0,0.0,0.0,0.0,0.0,0.0,0.0,0.0,0.0,0.0,0.0,0.0,0.0,0.0,0.0,0.0,0.0,0.0,0.0,0.0,0.0,0.0,0.0,0.0,0.0,0.0,0.0,0.0,0.0,0.0,0.0,0.0,0.0,0.0,0.0,0.0,0.0,0.0,0.0,0.0,-2.9495,-3.1166,-3.2481,-3.2873,-3.3246,-3.3593,-3.388,-3.4151,-3.4023,-3.3479,-3.3127,0.0,0.0,0.0,0.0,0.0,0.0,0.0,0.0,0.0,0.0,0.0,0.0,0.0,0.0,0.0,0.0,0.0,0.0,0.0,0.0,0.0,0.0,0.0,0.0,0.0,0.0,0.0,0.0,0.0,0.0,0.0,0.0,0.0,0.0,0.0,0.0,0.0,0.0,0.0,0.0,0.0,0.0,0.0,0.0,0.0,0.0,0.0,0.0,0.0,0.0,0.0,0.0,0.0,-3.1903,-3.1986,-3.1652,-3.2474,-3.2896,-3.2946,-3.2123,-3.2123,-3.2574,-3.1164,0.0,0.0,0.0,0.0,0.0,0.0,0.0,0.0,0.0,0.0,0.0,0.0,0.0,0.0,0.0,0.0,0.0,0.0,0.0,0.0,0.0,0.0,-3.2252,-3.1356,-3.1646,-3.1884,-3.1099,0.0,0.0,0.0,0.0,0.0,0.0,0.0,0.0,0.0,0.0,0.0,-2.9862,-3.1855,-3.3231,-3.3118,-3.3751,-3.4128,-3.4099,-3.4349,-3.4497,-3.4546,-3.3727,-3.3173,0.0,0.0,0.0,0.0,0.0,0.0,0.0,0.0,0.0,0.0,0.0,0.0,0.0,0.0,0.0,0.0,0.0,0.0,0.0,0.0,0.0,0.0,0.0,0.0,0.0,0.0,0.0,0.0,0.0,0.0,0.0,0.0,-3.1895,-3.1502,0.0,0.0,0.0,0.0,0.0,0.0,0.0,0.0,0.0,0.0,0.0,0.0,0.0,-3.0371,-3.0556,-3.1275,-3.1696,-3.1815,-3.242,-3.2861,-3.3181,-3.3312,-3.3411,-3.3411,-3.3419,0.0,-3.2638,-3.2212,0.0,0.0,0.0,0.0,0.0,0.0,0.0,0.0,0.0,0.0,0.0,0.0,0.0,0.0,0.0,0.0,0.0,0.0,0.0,0.0,0.0,0.0,-3.3149,-3.3002,-3.3013,-3.3077,-3.3061,-3.1353,-2.9726,-2.9583,-2.9679,-2.959,0.0,0.0,0.0,0.0,0.0,0.0,-3.1742,-3.2662,-3.3519,-3.4184,-3.4165,-3.4298,-3.4756,-3.4594,-3.4594,-3.4851,-3.4717,-3.4176,-3.3184,-3.3614,0.0,0.0,0.0,0.0,0.0,0.0,0.0,0.0,0.0,0.0,0.0,0.0,0.0,0.0,0.0,0.0,0.0,0.0,0.0,0.0,0.0,0.0,0.0,0.0,0.0,0.0,0.0,0.0,0.0,-3.0656,-3.0591,-3.0608,-2.9967,-2.9296,0.0,0.0,0.0,0.0,0.0,0.0,0.0,0.0,0.0,-3.0739,-3.0754,-3.0937,-3.1413,-3.1921,-3.2183,-3.2306,-3.2801,-3.3171,-3.3398,-3.3555,-3.3797,-3.405,-3.405,-3.4006,-3.3908,-3.3064,-3.2531,-3.2275,0.0,0.0,0.0,0.0,-3.2821,-3.3408,-3.4666,-3.5119,-3.5052,-3.43,0.0,0.0,0.0,0.0,0.0,0.0,0.0,-3.259,-3.3346,-3.3469,-3.34,-3.37,-3.3761,-3.3694,-3.3642,-3.2704,-3.1675,-3.1181,-3.0705,-3.0048,-2.8836,-2.9129,0.0,0.0,0.0,-3.1358,-3.2084,-3.323,-3.4018,-3.425,-3.4448,-3.4594,-3.4787,-3.4756,-3.4787,-3.4899,-3.5041,-3.5002,-3.4677,-3.415,-3.3673,0.0,0.0,0.0,0.0,0.0,0.0,0.0,0.0,0.0,0.0,0.0,0.0,0.0,0.0,0.0,0.0,0.0,0.0,0.0,0.0,0.0,0.0,0.0,0.0,0.0,0.0,0.0,0.0,-3.027,-3.0264,-3.0192,-3.0052,-2.9561,0.0,0.0,0.0,0.0,0.0,0.0,-3.0259,-3.0274,-3.0632,-3.1277,-3.1348,-3.1647,-3.2247,-3.2398,-3.2578,-3.2796,-3.3134,-3.3361,-3.3398,-3.3745,-3.4101,-3.4448,-3.448,-3.4754,-3.5081,-3.3954,-3.3672,-3.3918,-3.3544,-3.3354,-3.3406,-3.4014,-3.43,-3.4501,-3.5832,-3.6247,-3.6143,-3.5366,-3.48,-3.4216,-3.3263,0.0,0.0,0.0,0.0,-3.3378,-3.3981,-3.4038,-3.3997,-3.4349,-3.4431,-3.4382,-3.4251,-3.3922,-3.3446,-3.2669,-3.1958,-3.1052,-2.9619,-3.0173,0.0,-2.9572,-3.1092,-3.2434,-3.2625,-3.3761,-3.4448,-3.43,-3.4643,-3.4851,-3.4787,-3.4977,-3.5071,-3.5071,-3.5424,-3.5732,-3.6053,-3.5229,-3.48,-3.4863,0.0,0.0,0.0,0.0,0.0,0.0,0.0,0.0,0.0,0.0,0.0,0.0,0.0,0.0,0.0,0.0,0.0,0.0,0.0,0.0,0.0,0.0,0.0,0.0,0.0,0.0,0.0,0.0,0.0,-3.1437,-3.165,0.0,0.0,0.0,0.0,-2.9773,-2.9894,-3.0304,-3.0904,-3.1097,-3.1457,-3.213,-3.2241,-3.2367,-3.2398,-3.2523,-3.2812,-3.3256,-3.3309,-3.345,-3.3694,-3.4201,-3.4399,-3.4349,-3.4754,-3.5207,-3.5526,-3.4925,-3.4369,-3.3831,-3.3934,-3.3705,-3.3532,-3.4789,-3.5423,-3.587,-3.7074,-3.7523,-3.7398,-3.656,-3.5102,-3.39,-3.5363,-3.4451,0.0,0.0,-3.4551,-3.4755,-3.5059,-3.5211,-3.5296,-3.5329,-3.5346,-3.5408,-3.5548,-3.4785,-3.4001,-3.3655,-3.3459,-3.3204,-3.264,0.0,-3.2206,-3.2773,-3.2624,-3.2912,-3.4054,-3.4366,-3.4594,-3.4851,-3.4756,-3.4787,-3.5041,-3.5379,-3.5571,-3.5571,-3.6113,-3.6568,-3.6843,-3.7496,-3.7418,-3.6397,-3.6879,0.0,0.0,0.0,0.0,0.0,0.0,0.0,0.0,0.0,0.0,0.0,0.0,0.0,0.0,0.0,0.0,0.0,0.0,0.0,0.0,0.0,0.0,0.0,0.0,0.0,0.0,0.0,0.0,-3.1108,-3.1145,0.0,-3.0038,-3.0372,-3.0576,-3.0452,-3.1119,-3.1619,-3.1769,-3.1879,-3.2097,-3.2342,-3.2398,-3.2453,-3.2523,-3.2703,-3.2935,-3.315,-3.3256,-3.3555,-3.3949,-3.4151,-3.4578,-3.5178,-3.5299,-3.5616,-3.6028,-3.5837,-3.564,-3.5402,-3.5445,-3.5522,-3.5566,-3.619,-3.657,-3.6852,-3.7414,-3.7577,-3.7541,-3.7255,-3.6702,-3.6238,-3.6509,-3.6089,-3.5545,-3.5597,-3.565,-3.5719,-3.5795,-3.5803,-3.583,-3.5725,-3.5725,-3.5725,-3.5803,-3.545,-3.511,-3.5124,-3.4512,-3.4005,-3.3979,-3.4024,-3.4065,-3.4018,-3.4074,-3.4249,-3.4721,-3.5207,-3.5436,-3.527,-3.5316,-3.5498,-3.5722,-3.5677,-3.5749,-3.6105,-3.6504,-3.6964,-3.7397,-3.7626,-3.7648,-3.7533,-3.7826,-3.7,0.0,0.0,0.0,0.0,0.0,0.0,0.0,0.0,0.0,0.0,0.0,0.0,0.0,0.0,0.0,0.0,0.0,0.0,0.0,0.0,0.0,0.0,0.0,0.0,0.0,-3.1526,-3.173,-3.0705,-3.1098,-3.1025,-2.9968,-3.0919,-3.1573,-3.1409,-3.2136,-3.2547,-3.2398,-3.2398,-3.2342,-3.2247,-3.2342,-3.2453,-3.2633,-3.2827,-3.3058,-3.3256,-3.3361,-3.3591,-3.4101,-3.4284,-3.4785,-3.5616,-3.5766,-3.6028,-3.6301,-3.6301,-3.6343,-3.6444,-3.6444,-3.6585,-3.6846,-3.7027,-3.722,-3.741,-3.754,-3.7577,-3.7577,-3.7577,-3.7577,-3.754,-3.7243,-3.715,-3.7034,-3.6563,-3.6563,-3.662,-3.6416,-3.6516,-3.6597,-3.6481,-3.6481,-3.6481,-3.6481,-3.6357,-3.6274,-3.644,-3.5566,-3.4837,-3.5019,-3.5287,-3.5194,-3.4479,-3.4886,-3.5153,-3.4735,-3.5491,-3.5907,-3.5599,-3.5749,-3.5881,-3.6011,-3.5745,-3.5864,-3.6545,-3.6714,-3.7147,-3.7859,-3.7574,-3.7551,-3.7853,-3.7987,-3.7149,-3.5278,0.0,0.0,0.0,0.0,0.0,0.0,0.0,0.0,0.0,0.0,0.0,0.0,0.0,0.0,0.0,0.0,0.0,0.0,0.0,0.0,0.0,0.0,0.0,-3.1549,-3.2191,-3.2035,-3.0397,-3.1719,-3.2129,-3.0514,-3.1818,-3.2749,-3.2641,-3.2873,-3.298,-3.2857,-3.2602,-3.2302,-3.2038,-3.2302,-3.2492,-3.2586,-3.292,-3.3203,-3.3503,-3.3503,-3.3694,-3.4151,-3.4593,-3.5098,-3.5677,-3.6114,-3.6301,-3.6301,-3.6301,-3.6461,-3.6702,-3.6702,-3.6846,-3.7009,-3.722,-3.7447,-3.7577,-3.7577,-3.7577,-3.7577,-3.7577,-3.7577,-3.7577,-3.7577,-3.7577,-3.7503,-3.7073,-3.7243,-3.7503,-3.7034,-3.7243,-3.7577,-3.7577,-3.7577,-3.7577,-3.7577,-3.7447,-3.7372,-3.754,-3.6603,-3.5803,-3.5933,-3.595,-3.5521,-3.437,-3.5169,0.0,-3.4326,-3.5203,-3.5933,-3.5916,-3.5916,-3.5916,-3.5916,-3.5659,-3.5933,-3.6865,-3.6809,-3.719,-3.8271,-3.7608,-3.7283,-3.7442,-3.7406,-3.7071,-3.6434,0.0,0.0,0.0,0.0,0.0,0.0,0.0,0.0,0.0,0.0,0.0,0.0,0.0,0.0,0.0,0.0,0.0,0.0,0.0,0.0,0.0,-3.0382,-3.1254,-3.1438,-3.1892,-3.2112,-3.1874,-3.1632,-3.1627,-3.1965,-3.2275,-3.2641,-3.2986,-3.3351,-3.3419,-3.3214,-3.3298,-3.3102,-3.2602,-3.2641,-3.2641,-3.2586,-3.2711,-3.2958,-3.3346,-3.3346,-3.3781,-3.4593,-3.4738,-3.5283,-3.6114,-3.6259,-3.6301,-3.6301,-3.6502,-3.6643,-3.6702,-3.6702,-3.6926,-3.722,-3.7259,-3.7447,-3.7577,-3.7577,-3.7577,-3.7577,-3.7577,-3.7577,-3.7577,-3.7577,-3.7577,-3.7577,-3.7449,-3.7503,-3.7577,-3.7449,-3.7503,-3.7577,-3.7577,-3.7577,-3.7577,-3.7577,-3.7558,-3.754,-3.7594,-3.7243,-3.6995,-3.7111,-3.6799,-3.6528,-3.6439,-3.637,-3.6232,-3.5882,-3.6394,-3.6469,-3.5688,-3.5596,-3.5717,-3.5933,-3.5801,-3.6224,-3.7414,-3.7629,-3.7917,-3.835,-3.8182,-3.8104,-3.8199,-3.7476,-3.7007,0.0,0.0,0.0,0.0,0.0,0.0,0.0,0.0,0.0,0.0,0.0,0.0,0.0,0.0,0.0,0.0,0.0,0.0,0.0,0.0,0.0,0.0,-3.0583,-3.1191,-3.1207,-3.1869,-3.2294,-3.2013,-3.1495,-3.143,-3.2021,-3.2313,-3.2809,-3.3511,-3.3832,-3.3882,-3.3764,-3.3745,-3.3523,-3.3071,-3.284,-3.2788,-3.2996,-3.2751,-3.2977,-3.3694,-3.3694,-3.4218,-3.5161,-3.5161,-3.5571,-3.6301,-3.6301,-3.6301,-3.6301,-3.6602,-3.6725,-3.6846,0.0,0.0,0.0,0.0,-3.7521,-3.7577,-3.7577,-3.7577,-3.7577,-3.7577,-3.7577,-3.7577,-3.754,-3.754,-3.7577,-3.7521,-3.7503,-3.7503,-3.7484,-3.7521,-3.7503,-3.7503,-3.754,-3.7577,-3.7577,-3.7577,-3.7577,-3.7577,-3.754,0.0,-3.7503,-3.7223,-3.6886,-3.6608,-3.6681,-3.6568,-3.6093,-3.6641,-3.6833,-3.6182,-3.6147,-3.6225,-3.6529,-3.6139,0.0,0.0,0.0,-3.7579,-3.7812,-3.7826,0.0,0.0,0.0,-3.7189,-3.7416,-3.6328,0.0,0.0,-3.4594,-3.426,0.0,0.0,0.0,0.0,0.0,0.0,0.0,0.0,0.0,0.0,0.0,0.0,0.0,0.0,0.0,0.0,-3.0717,-3.1151,-3.1015,-3.1951,-3.2241,-3.1246,-3.123,-3.1351,-3.1455,-3.2171,-3.3044,-3.4086,-3.43,-3.4349,-3.4349,-3.405,0.0,0.0,0.0,-3.2892,-3.3411,-3.2892,-3.3224,-3.4349,-3.4333,-3.4802,-3.5616,-3.5571,-3.5854,-3.6301,-3.6301,-3.6301,-3.6343,-3.6643,-3.6886,-3.7105,-3.7259,-3.7334,-3.7372,-3.754,-3.7577,-3.7577,-3.7577,0.0,0.0,-3.7577,-3.7577,-3.7577,-3.7466,-3.7503,-3.754,-3.7372,-3.7354,-3.7392,-3.7334,-3.7354,-3.7392,-3.7429,-3.7503,-3.7594,-3.7594,-3.7577,-3.7594,-3.7594,-3.754,-3.7503,-3.7392,-3.7334,-3.6935,-3.585,-3.6496,-3.6707,-3.5727,-3.6392,-3.6952,-3.6865,-3.6886,0.0,-3.7173,-3.6537,-3.6648,-3.781,-3.725,-3.6955,-3.7123,-3.7203,-3.7235,-3.7235,-3.7235,-3.7497,-3.8052,-3.765,-3.7264,-3.6904,-3.4979,-3.4586,0.0,0.0,0.0,0.0,0.0,0.0,0.0,0.0,0.0,0.0,0.0,0.0,0.0,0.0,0.0,-3.0091,-3.0717,-3.119,-3.1151,-3.1065,-3.0925,-3.0884,-3.0418,-3.0765,-3.2347,-3.249,-3.3094,-3.4642,-3.4756,-3.4787,-3.4787,-3.4691,-3.417,-3.3079,-3.2999,-3.2967,-3.303,-3.2885,-3.347,-3.469,-3.4593,0.0,-3.5571,-3.5407,-3.5677,-3.6301,-3.6233,-3.6293,-3.6502,-3.6829,-3.7182,-3.7466,-3.7521,-3.7558,-3.7558,-3.7594,-3.7577,-3.7577,-3.7577,-3.7577,-3.7577,-3.7577,-3.7577,-3.7594,-3.7577,-3.7577,0.0,-3.754,-3.7466,-3.7429,-3.7503,-3.7447,-3.7372,-3.7503,-3.7447,-3.7372,-3.7429,-3.741,-3.7372,-3.7429,-3.7299,-3.7223,-3.7297,-3.7297,-3.7206,-3.6858,-3.6904,-3.6917,-3.6738,-3.6882,-3.6742,-3.611,-3.6174,-3.6286,-3.6323,-3.647,-3.6949,-3.7845,-3.7893,-3.7923,-3.7957,-3.8038,-3.8071,-3.8071,-3.8099,-3.8204,-3.8318,-3.7931,-3.7559,-3.7301,-3.6261,-3.6216,0.0,0.0,0.0,0.0,0.0,0.0,0.0,0.0,0.0,0.0,0.0,-3.0022,-2.9917,0.0,-3.0247,-3.0598,-3.0954,-3.119,-3.1112,-3.0773,-3.0474,-3.0489,-3.0012,-3.0195,-3.155,-3.2015,-3.2773,-3.4098,-3.4636,-3.4899,-3.4899,-3.4551,-3.4242,-3.4052,-3.3406,-3.3403,-3.4018,-3.3766,-3.418,-3.5266,-3.5052,-3.5345,-3.5941,-3.5783,-3.5915,-3.6301,-3.6335,-3.6419,-3.6544,-3.6869,-3.7182,-3.7447,-3.7447,-3.7521,-3.7577,-3.7577,-3.7577,-3.7577,-3.7577,-3.7577,-3.7577,-3.7577,-3.7577,-3.7594,-3.7503,-3.754,-3.7594,-3.7484,-3.7429,-3.7429,-3.7447,-3.741,-3.7372,-3.7447,-3.741,-3.7354,-3.7354,-3.7334,-3.7297,-3.7317,-3.7279,-3.7203,-3.7203,-3.7203,-3.7164,-3.7087,-3.7009,-3.6987,-3.6987,-3.7105,-3.7002,-3.6597,-3.6732,-3.6879,-3.6988,-3.7288,-3.7605,-3.802,-3.814,-3.8192,-3.8192,-3.8241,-3.8241,-3.8241,-3.8289,-3.8322,-3.8354,-3.7949,-3.7685,-3.7613,-3.7034,-3.6783,0.0,0.0,0.0,0.0,0.0,0.0,0.0,-3.2335,-3.1898,-3.1917,-3.108,-3.0453,-3.09,-3.0643,-3.0497,-3.1106,-3.119,-3.1151,-3.1015,-3.0733,-3.0426,-3.0231,-2.9782,-2.9804,-3.0571,-3.1289,-3.2154,-3.3201,-3.4112,-3.4667,-3.4731,-3.43,-3.4359,-3.4918,-3.3957,-3.3977,-3.5143,-3.4688,-3.4914,-3.5847,-3.5661,-3.581,-3.6301,-3.6191,-3.6191,-3.6301,-3.6461,-3.6672,-3.6876,-3.6961,-3.7143,-3.7297,-3.7297,-3.741,-3.7558,-3.7558,-3.7558,-3.7558,-3.7558,-3.754,-3.754,-3.754,-3.7577,-3.7577,-3.7466,-3.7503,-3.7558,-3.741,-3.7392,-3.7392,-3.7372,-3.7354,-3.7392,-3.7372,-3.7354,-3.7354,-3.7297,-3.7297,-3.7259,-3.7259,-3.7259,-3.722,-3.7108,-3.7108,-3.7069,-3.7027,-3.7009,-3.7066,-3.7066,-3.722,-3.7372,-3.7372,-3.7558,-3.7739,-3.7934,-3.8124,-3.8192,-3.8192,-3.8192,-3.8192,-3.8192,-3.8192,-3.8192,-3.8192,-3.8192,-3.8225,-3.8274,-3.7967,-3.7774,-3.7756,-3.745,-3.7044,-3.3467,-3.3127,-3.3304,-3.3422,-3.3339,-3.3581,0.0,-3.4829,-3.4712,-3.4874,-3.4272,-3.3394,-3.2539,-3.1696,-3.1172,-3.1213,-3.119,-3.1151,-3.1015,-3.0733,-3.0468,-3.0309,-2.981,-2.9865,-3.0695,-3.0762,-3.1269,-3.2521,-3.3337,-3.3842,-3.4106,-3.4764,-3.486,-3.432,-3.4341,-3.4541,-3.4942,-3.5032,-3.5542,-3.6402,-3.6259,-3.6216,-3.6301,-3.6105,-3.6148,-3.6301,-3.6561,-3.7213,-3.8056,-3.7351,-3.7164,-3.7297,-3.7297,-3.7297,-3.7334,-3.7334,-3.7334,-3.7334,-3.7334,-3.7354,-3.7429,-3.7429,-3.7503,-3.7594,-3.7577,-3.7577,-3.7594,-3.7577,-3.7503,-3.7429,-3.754,-3.7447,-3.7334,-3.7521,-3.7447,-3.7297,-3.7297,-3.7203,-3.7108,-3.7108,-3.7087,-3.7048,-3.7108,-3.7048,-3.7009,-3.6987,-3.7143,-3.7259,-3.7259,-3.7447,-3.7558,-3.7558,-3.7757,-3.7934,-3.8158,-3.8192,-3.8192,-3.8192,-3.8192,-3.8192,-3.8192,-3.8192,-3.8192,-3.8192,-3.8192,-3.8192,-3.8225,-3.8192,-3.7985,-3.7703,-3.7667,-3.7577,-3.4352,-3.3647,-3.3316,-3.352,-3.3502,-3.3735,-3.4677,-3.4456,-3.4139,-3.45,-3.381,-3.2946,-3.2303,-3.1692,-3.1295,-3.1274,-3.1173,-3.1072,-3.0952,-3.0733,-3.051,-3.0258,-2.9897,-2.9762,-2.9993,-3.0949,-3.1732,-3.2302,-3.371,-3.4622,-3.4731,-3.4705,-3.4779,-3.5121,-3.4925,-3.5162,-3.5953,-3.6058,-3.6319,-3.6667,-3.6426,-3.6343,-3.6419,-3.6826,-3.7403,-3.8157,-3.8257,-3.8596,-3.9027,-3.8709,-3.8263,-3.7874,-3.7874,-3.757,-3.7143,-3.7259,-3.7297,-3.7297,-3.7297,-3.7334,-3.7317,-3.7317,-3.7372,-3.741,-3.741,-3.7429,-3.7503,-3.7503,-3.7503,-3.754,-3.7594,-3.7558,-3.7484,-3.7466,-3.7429,-3.7372,-3.7297,-3.7203,-3.7108,-3.7108,-3.7048,-3.7066,-3.7203,-3.7182,-3.722,-3.7317,-3.7334,-3.7334,-3.7447,-3.7631,-3.7828,-3.7934,-3.8038,-3.8124,-3.8192,-3.8192,-3.8192,-3.8192,-3.8192,-3.8192,-3.8192,-3.8192,-3.8192,-3.8192,-3.8192,-3.8192,-3.8192,-3.8192,-3.814,-3.7985,-3.7985,-3.7846,-3.4436,-3.3764,-3.3313,-3.3616,-3.3726,-3.3927,-3.4484,-3.4152,-3.3894,-3.4365,-3.3621,-3.2804,-3.2423,-3.1998,-3.162,-3.1334,-3.1218,-3.1117,-3.0952,-3.0773,-3.0609,-3.0316,-3.0,-2.9891,-3.0012,-3.1102,-3.1903,-3.2023,-3.3848,-3.4973,-3.5036,-3.4762,-3.4947,-3.5711,-3.5497,-3.5732,-3.6585,-3.6748,-3.6788,-3.6748,-3.6485,-3.6402,-3.6478,-3.7324,-3.836,-3.9429,-3.947,-3.9658,-3.9979,-3.9709,-3.9244,-3.8669,-3.8669,-3.8294,-3.7778,-3.7952,-3.7668,-3.722,-3.7259,-3.7259,-3.7297,-3.7334,-3.7334,-3.7372,-3.7372,-3.7392,-3.7429,-3.7449,-3.7503,-3.754,-3.7577,-3.7577,-3.7594,-3.7466,-3.7466,-3.7429,-3.7334,-3.7241,-3.7185,-3.7185,-3.7147,-3.7182,-3.7334,-3.7449,-3.7541,-3.7756,-3.7756,-3.7721,-3.7703,-3.7864,-3.8056,-3.8192,-3.8192,-3.8192,-3.8192,-3.8192,-3.8192,-3.8192,-3.8192,-3.8192,-3.8192,-3.8192,-3.8192,-3.8192,-3.8192,-3.8192,-3.8192,-3.8192,-3.8192,-3.8192,-3.8192,-3.802,-3.3087,-3.304,-3.3007,-3.3718,-3.4049,-3.4303,-3.478,-3.4861,-3.5005,-3.555,-3.483,-3.4017,-3.3613,-3.3064,-3.2351,-3.1432,-3.1507,-3.1507,-3.0975,-3.0773,-3.0651,-3.0526,-3.007,-3.0217,-3.132,-3.1108,-3.1063,-3.1576,-3.3095,-3.4169,-3.4398,-3.5127,-3.556,-3.5622,-3.6011,-3.6284,-3.6301,-3.665,-3.6748,-3.6702,-3.6544,-3.6444,-3.6318,-3.7332,-3.8367,-3.9311,-3.9429,-4.0076,-4.0918,-3.9979,-3.9603,-3.9585,-3.9585,-3.9625,-3.9722,-3.9704,-3.8549,-3.7009,-3.7069,-3.7203,-3.7297,-3.7392,-3.7503,-3.7577,-3.7577,-3.7503,-3.7429,-3.754,-3.7503,-3.7429,-3.7594,-3.7577,-3.7577,-3.7577,-3.7577,-3.754,-3.7429,-3.7374,-3.7392,-3.7392,-3.7392,-3.7429,-3.7594,-3.7791,-3.8062,-3.8227,-3.8542,-3.853,-3.7951,-3.809,-3.8192,-3.8192,-3.8192,-3.8192,-3.8192,-3.8192,-3.8192,-3.8192,-3.8192,-3.8192,-3.8192,-3.8192,-3.8192,-3.8192,-3.8192,-3.8192,-3.8192,-3.8192,-3.8192,-3.8192,-3.8192,-3.8192,-3.2912,-3.3224,-3.3672,-3.3949,-3.4074,-3.4198,-3.4382,-3.4463,-3.4511,-3.4523,-3.3621,-3.2703,-3.224,-3.1951,-3.1579,-3.1007,-3.1276,-3.1456,-3.1179,-3.0733,-3.0359,-3.0316,-2.987,-3.0073,-3.1249,-3.1651,-3.2245,-3.3129,-3.4348,-3.5099,-3.5205,-3.5442,-3.5667,-3.5844,-3.6131,-3.6402,-3.6544,-3.6708,-3.6788,-3.6748,-3.7271,-3.776,-3.8307,-3.9346,-4.0329,-4.128,-4.1339,-4.1581,-4.1953,-4.1667,-4.1199,-4.0739,-4.0739,-4.0396,-3.995,-3.995,-3.9533,-3.8993,-3.9032,-3.8638,-3.8155,-3.8193,-3.7856,-3.741,-3.741,-3.7392,-3.7392,-3.741,-3.7466,-3.754,-3.7466,-3.754,-3.7577,-3.7503,-3.7631,-3.7775,-3.7649,-3.7649,-3.7792,-3.7964,-3.7877,-3.7946,-3.8323,-3.848,-3.8584,-3.8733,-3.8868,-3.8868,-3.8651,-3.8535,-3.8523,-3.87,-3.8415,-3.8274,-3.8465,-3.8289,-3.8192,-3.8192,-3.8192,-3.8192,-3.8192,-3.8192,-3.8192,-3.8192,-3.8192,-3.8192,-3.8192,-3.8192,-3.8192,-3.8192,-3.8192,-3.8192,-3.3216,-3.3518,-3.3807,-3.4123,-3.4173,-3.4148,-3.4197,-3.4221,-3.4221,-3.4099,-3.3117,-3.2183,-3.1763,-3.1678,-3.1345,-3.0387,-3.0871,-3.1248,-3.0984,-3.0459,-3.0212,-3.0393,-3.0054,-3.0315,-3.1581,-3.2118,-3.2859,-3.3996,-3.5004,-3.5622,-3.5622,-3.5622,-3.5711,-3.5975,-3.6174,-3.6444,-3.6702,-3.6748,-3.6771,-3.6708,-3.7515,-3.8209,-3.88,-3.9923,-4.0806,-4.1408,-4.1529,-4.1608,-4.1683,-4.1683,-4.136,-4.0915,-4.0915,-4.0751,-4.0572,-4.0572,-4.0771,-4.0933,-4.0262,-3.9631,-3.9147,-3.9185,-3.8826,-3.8358,-3.8358,-3.8396,-3.8378,-3.8358,-3.8433,-3.8399,-3.8021,-3.7987,-3.797,-3.75,-3.7613,-3.781,-3.7685,-3.7845,-3.8119,-3.8328,-3.8355,-3.8431,-3.881,-3.8952,-3.9109,-3.9294,-3.932,-3.9223,-3.9036,-3.8857,-3.8818,-3.898,-3.87,-3.8554,-3.8748,-3.8566,-3.8478,-3.8478,-3.8401,-3.8354,-3.8354,-3.8241,-3.8192,-3.8192,-3.8192,-3.8192,-3.8192,-3.8192,-3.8192,-3.8192,-3.8192,-3.8192,-3.3855,-3.3814,-3.3527,-3.4222,-3.4293,-3.4197,-3.4197,-3.4197,-3.4245,-3.4284,-3.3309,-3.2363,-3.2083,-3.2156,-3.1618,-2.9729,-3.0418,-3.1007,-3.0484,-3.019,-3.0256,-3.0694,-3.0551,-3.0955,-3.2233,-3.2413,-3.297,-3.4186,-3.5099,-3.5622,-3.5622,-3.5622,-3.5711,-3.5975,-3.6174,-3.6444,-3.6702,-3.6748,-3.6708,-3.6572,-3.7485,-3.7892,-3.8004,-3.9292,-3.9886,-3.9886,-4.0085,-4.0218,-4.0218,-4.0218,-4.0218,-4.0218,-4.0218,-4.076,-4.1558,-4.1558,-4.2121,-4.2611,-4.0849,-4.0215,-4.0195,-4.0326,-4.0345,-4.0291,-4.0291,-4.0217,-4.0141,-4.0254,-4.0217,-3.9944,-3.9154,-3.8957,-3.8723,-3.7788,-3.772,-3.7864,-3.7793,-3.8088,-3.8446,-3.8578,-3.8807,-3.898,-3.9036,-3.9313,-3.9599,-3.9867,-3.9889,-3.9693,-3.9117,-3.9036,-3.9036,-3.9036,-3.9008,-3.9008,-3.9036,-3.9008,-3.9008,-3.9008,-3.8759,-3.8597,-3.8615,-3.8368,-3.8241,-3.8207,-3.8207,-3.8225,-3.8192,-3.8192,-3.8192,-3.8192,-3.8192,-3.8192,-3.3721,-3.3966,-3.4298,-3.4371,-3.4293,-3.4197,-3.4197,-3.4245,-3.4059,-3.3351,-3.2311,-3.1227,-3.0224,-3.0674,-3.0919,-3.0135,-3.1288,-3.2168,-3.1916,-3.1403,-3.0819,-3.0273,-3.0742,-3.1232,-3.1605,-3.2636,-3.3743,-3.4801,-3.534,-3.5622,-3.5622,-3.5622,-3.5711,-3.5975,-3.6174,-3.6444,-3.6702,-3.6748,-3.7068,-3.762,-3.8596,-3.9429,-4.0076,-4.0655,-4.0921,-4.0885,-4.0412,-4.0273,-4.0328,-4.0328,-4.0384,-4.0438,-4.0438,-4.0565,-4.0818,-4.1047,-4.1742,-4.2463,-4.2047,-4.1594,-4.1211,-4.1248,-4.0815,-4.0291,-4.0291,-4.0254,-4.0254,-4.0179,-4.0217,-4.0163,-3.9872,-3.9893,-3.9913,-3.9605,-3.9964,-4.0266,-4.0163,-4.0007,-3.9955,-4.024,-3.994,-3.9651,-3.967,-3.9739,-3.9804,-3.9889,-3.9889,-3.9826,-3.9693,-3.9508,-3.9458,-3.967,-3.9268,-3.909,-3.9338,-3.9136,-3.9008,-3.9008,-3.898,-3.8952,-3.8915,-3.8868,-3.8741,-3.851,-3.851,-3.8401,-3.8192,-3.8192,-3.8192,-3.8192,-3.8192,-3.8192,-3.4111,-3.4352,-3.4583,-3.4517,-3.434,-3.4104,-3.3751,-3.3634,-3.3345,-3.2434,-3.1309,-3.0287,-2.9629,-3.0232,-3.0568,-2.9839,-3.1111,-3.2154,-3.1976,-3.1568,-3.1041,-3.0304,-3.1031,-3.1655,-3.1733,-3.2957,-3.4283,-3.5603,-3.5837,-3.5844,-3.5622,-3.58,-3.5958,-3.6148,-3.6259,-3.6444,-3.6725,-3.6748,-3.7173,-3.7982,-3.8667,-3.9446,-4.0352,-4.0369,-4.0378,-4.0342,-3.9626,-3.9355,-3.9409,-3.9409,-3.9444,-3.9496,-3.9496,-4.0015,-4.0818,-4.1015,-4.1983,-4.3241,-4.3297,-4.3082,-4.2757,-4.2449,-4.2014,-4.1578,-4.1578,-4.1578,-4.1542,-4.1487,-4.1523,-4.1506,-4.1053,-4.0999,-4.098,-4.051,-4.0686,-4.0958,-4.0769,-4.0837,-4.1062,-4.148,-4.1264,-4.101,-4.101,-4.0707,-4.0479,-4.0479,-4.0135,-3.9889,-3.9889,-3.9758,-3.9735,-3.9889,-3.9604,-3.9464,-3.9647,-3.9194,-3.8895,-3.8895,-3.8471,-3.8365,-3.8682,-3.8622,-3.8628,-3.877,-3.8789,-3.87,-3.8554,-3.8415,-3.8433,-3.8554,-3.8322,-3.8274,-3.4699,-3.4751,-3.4602,-3.4602,-3.4386,-3.3974,-3.3152,-3.2828,-3.2403,-3.1458,-3.0355,-2.9557,-2.9529,-3.0125,-3.0345,-2.942,-3.0599,-3.1644,-3.1629,-3.1532,-3.1179,-3.0526,-3.1463,-3.2169,-3.2128,-3.3368,-3.48,-3.6388,-3.6481,-3.6241,-3.5783,-3.6131,-3.6343,-3.6343,-3.6385,-3.6509,-3.6788,-3.6806,-3.7283,-3.8222,-3.8325,-3.8947,-3.9996,-3.9444,-3.9193,-3.9175,-3.8502,-3.8207,-3.8241,-3.8241,-3.8256,-3.8322,-3.8322,-3.9365,-4.0929,-4.1082,-4.236,-4.4044,-4.4183,-4.4296,-4.4308,-4.3638,-4.3373,-4.3286,-4.3286,-4.3232,-4.3196,-4.325,-4.3303,-4.3173,-4.2477,-4.2294,-4.2059,-4.1063,-4.0967,-4.1003,-4.0831,-4.1372,-4.1994,-4.2342,-4.2412,-4.2412,-4.2412,-4.1825,-4.137,-4.137,-4.0726,-4.0173,-4.01,-3.9965,-3.9889,-3.9889,-3.9889,-3.9889,-3.9889,-3.9309,-3.8914,-3.88,-3.7877,-3.7577,-3.8154,-3.7978,-3.8175,-3.8904,-3.8896,-3.8924,-3.9036,-3.8789,-3.8789,-3.9008,-3.8523,-3.8446,-3.4791,-3.4666,-3.4517,-3.4517,-3.434,-3.3969,-3.2964,-3.2686,-3.2111,-3.0295,-2.9728,-2.9221,-2.8234,-2.9022,-2.9897,-3.0119,-3.1166,-3.2146,-3.2719,-3.2702,-3.1998,-3.0354,-3.183,-3.268,-3.1881,-3.3753,-3.5394,-3.6441,-3.6981,-3.7114,-3.6701,-3.6597,-3.655,-3.6643,-3.6788,-3.6851,-3.6788,-3.7108,-3.7948,-3.9236,-3.9002,-3.9656,-4.1014,-3.9751,-3.9193,-3.9175,-3.8502,-3.8322,-3.8541,-3.8541,-3.8658,-3.8857,-3.8857,-3.9081,-3.951,-4.0565,-4.1655,-4.2768,-4.3601,-4.4349,-4.4877,-4.4308,-4.3899,-4.3615,-4.3615,-4.3422,-4.325,-4.352,-4.3638,-4.367,-4.3781,-4.3852,-4.3685,-4.2797,-4.2782,-4.2983,-4.2902,-4.3126,-4.3151,-4.2522,-4.2412,-4.2412,-4.2412,-4.228,-4.2204,-4.2204,-4.2071,-4.173,-4.1067,-4.0366,-3.9889,-3.9889,-3.9889,-3.9889,-3.9889,-3.9778,-3.944,-3.8838,-3.8609,-3.8247,-3.7657,-3.7597,-3.7872,-3.8489,-3.8407,-3.8627,-3.9152,-3.9008,-3.9008,-3.9152,-3.8952,-3.899,-3.4788,-3.4666,-3.4539,-3.4517,-3.4381,-3.3863,-3.2404,-3.1935,-3.1271,-2.9323,-2.8855,-2.861,-2.806,-2.876,-2.9551,-2.9804,-3.0916,-3.1905,-3.2206,-3.2616,-3.22,-3.0311,-3.1837,-3.2842,-3.2266,-3.4111,-3.5916,-3.7288,-3.7667,-3.7559,-3.6939,-3.6776,-3.6736,-3.6856,-3.6891,-3.6869,-3.6766,-3.7167,-3.7884,-3.8807,-3.8972,-3.9464,-4.0221,-3.9745,-3.9283,-3.8882,-3.8687,-3.8597,-3.8652,-3.9338,-3.9658,-3.9815,-4.0333,-4.0884,-4.1523,-4.2124,-4.305,-4.4076,-4.4536,-4.4977,-4.5263,-4.4969,-4.4523,-4.4128,-4.4128,-4.3967,-4.3849,-4.4028,-4.4087,-4.4042,-4.3802,-4.3764,-4.3576,-4.2685,-4.2844,-4.3235,-4.3359,-4.3768,-4.3983,-4.3753,-4.3701,-4.3701,-4.3701,-4.336,-4.3076,-4.3076,-4.2697,-4.2261,-4.1882,-4.1465,-4.0877,-3.9984,-3.9889,-3.9889,-3.9889,-3.9553,-3.9197,-3.8819,-3.7965,-3.749,-3.7489,-3.7091,-3.7203,-3.7856,-3.8291,-3.8685,-3.8987,-3.9293,-3.9524,-3.9702,-3.9339,-3.9302,-3.4908,-3.4911,-3.4834,-3.4479,-3.4375,-3.3833,-3.1813,-3.1162,-3.0469,-2.8604,-2.8136,-2.8099,-2.8063,-2.8625,-2.9087,-2.9183,-3.0249,-3.1173,-3.1497,-3.2179,-3.2022,-3.0325,-3.1781,-3.2866,-3.2705,-3.4408,-3.6255,-3.8099,-3.8096,-3.7735,-3.719,-3.7111,-3.7132,-3.721,-3.715,-3.7031,-3.697,-3.745,-3.7952,-3.8468,-3.8905,-3.9246,-3.9458,-3.9588,-3.9277,-3.8688,-3.8915,-3.8915,-3.8873,-3.9879,-4.0439,-4.0747,-4.1493,-4.2465,-4.3512,-4.3723,-4.4402,-4.5282,-4.5437,-4.5476,-4.5476,-4.5419,-4.5033,-4.4599,-4.4599,-4.4493,-4.4411,-4.4493,-4.4546,-4.4421,-4.3895,-4.3611,-4.319,-4.2152,-4.2378,-4.29,-4.3171,-4.3894,-4.4584,-4.4846,-4.4895,-4.4895,-4.4895,-4.4383,-4.3966,-4.3966,-4.3379,-4.2867,-4.2697,-4.2678,-4.2109,-4.059,-4.0438,-4.0309,-3.9927,-3.9385,-3.8817,-3.8306,-3.6996,-3.6464,-3.6939,-3.635,-3.6369,-3.7146,-3.787,-3.8441,-3.8841,-3.9309,-3.9768,-4.0177,-3.9649,-3.9584,-3.5312,-3.5605,-3.5587,-3.4349,-3.4321,-3.3909,-3.1426,-3.0697,-3.0058,-2.8372,-2.8014,-2.794,-2.7707,-2.8021,-2.8429,-2.8876,-2.9147,-2.9882,-3.1457,-3.1711,-3.132,-3.0331,-3.1858,-3.2916,-3.2705,-3.4408,-3.6287,-3.8147,-3.7681,-3.7489,-3.7946,-3.7982,-3.8,-3.7982,-3.8,-3.7913,-3.7808,-3.8342,-3.8821,-3.9288,-3.9232,-3.9462,-3.9993,-3.9369,-3.9027,-3.8952,-3.898,-3.9163,-3.9427,-3.9533,-4.0222,-4.1254,-4.1311,-4.1945,-4.2905,-4.3751,-4.4096,-4.4268,-4.5112,-4.5419,-4.5419,-4.54,-4.5159,-4.4849,-4.4849,-4.465,-4.4465,-4.4776,-4.48,-4.4849,-4.512,-4.4569,-4.3535,-4.1932,-4.2098,-4.2658,-4.268,-4.3824,-4.487,-4.4895,-4.4895,-4.4895,-4.4895,-4.4838,-4.4781,-4.4781,-4.4724,-4.4402,-4.3682,-4.3587,-4.3227,-4.228,-4.2185,-4.156,-4.0022,-3.9854,-3.8852,-3.6673,-3.633,-3.5913,-3.5267,-3.5097,-3.5458,-3.6387,-3.6445,-3.7281,-3.8992,-3.8798,-3.9216,-4.0196,-3.9895,-3.9979,-3.5724,-3.6122,-3.5946,-3.478,-3.4293,-3.3504,-3.1204,-3.0281,-2.9551,-2.8255,-2.8014,-2.7986,-2.7853,-2.7864,-2.7953,-2.8092,-2.8531,-2.907,-2.9685,-3.0595,-3.0735,-2.9492,-3.1303,-3.2719,-3.293,-3.4587,-3.6417,-3.8227,-3.8141,-3.8149,-3.8491,-3.778,-3.766,-3.8259,-3.808,-3.7946,-3.7893,-3.8405,-3.8664,-3.8747,-3.9512,-3.9742,-3.9574,-3.9888,-3.9754,-3.9313,-3.9464,-3.982,-4.0333,-4.1116,-4.2015,-4.2983,-4.3559,-4.4,-4.4364,-4.4729,-4.4863,-4.4901,-4.5265,-4.54,-4.54,-4.536,-4.5258,-4.5154,-4.5175,-4.5087,-4.4976,-4.5109,-4.5132,-4.5017,-4.4647,-4.354,-4.2335,-4.1648,-4.1684,-4.1871,-4.1871,-4.274,-4.3662,-4.4151,-4.4223,-4.4374,-4.4819,-4.4895,-4.4895,-4.4895,-4.4895,-4.4781,-4.4459,-4.4028,-4.3615,-4.3274,-4.2739,-4.1939,-4.0827,-4.0732,-3.9899,-3.7926,-3.728,-3.6596,-3.5761,-3.5192,-3.5078,-3.5457,-3.5989,-3.6918,-3.8207,-3.8725,-3.9447,-4.0392,-4.0323,-4.0341,-3.5238,-3.5923,-3.6054,-3.4593,-3.3837,-3.2904,-3.091,-2.9904,-2.9091,-2.8202,-2.7968,-2.794,-2.7882,-2.7719,-2.7582,0.0,0.0,-2.8256,-2.8479,-2.9466,-2.9864,-2.9094,-3.076,-3.2309,-3.3198,-3.5304,-3.7116,-3.8342,-3.829,-3.8395,-3.8803,-3.7754,-3.7601,-3.8573,-3.8387,-3.8259,-3.8305,-3.8651,-3.8799,-3.8722,-3.9695,-3.9892,-3.9439,-4.0134,-4.0145,-3.9623,-3.9823,-4.0299,-4.1028,-4.192,-4.2962,-4.4075,-4.4729,-4.515,-4.54,-4.54,-4.54,-4.538,-4.5379,-4.5359,-4.5359,-4.5317,-4.5297,-4.5317,-4.5378,-4.5338,-4.5297,-4.5297,-4.5297,-4.5105,-4.4246,-4.2947,-4.182,-4.1552,-4.1456,-4.1397,-4.1397,-4.2022,-4.2778,-4.3323,-4.3646,-4.3965,-4.4483,-4.4743,-4.4819,-4.4616,-4.4743,-4.4724,-4.4279,-4.3961,-4.3817,-4.3843,-4.3042,-4.2066,-4.1024,-4.0971,-4.0248,-3.8555,-3.7909,-3.73,-3.6673,-3.6064,-3.5759,-3.5759,-3.6401,-3.7213,-3.8139,-3.8802,-3.9599,-4.0489,-4.0508,-4.0492,-3.3526,-3.4842,-3.5845,-3.3512,-3.2702,-3.2102,-3.055,-2.9581,-2.8805,-2.8145,-2.7893,-2.776,-2.7647,-2.7496,-2.7373,-2.723,-2.7087,-2.7362,-2.8343,-2.8464,-2.8676,-2.9402,-3.0317,-3.1687,-3.3612,-3.6635,-3.8491,-3.851,-3.7948,-3.7993,-3.8855,-3.8201,-3.8183,-3.9082,-3.9101,-3.9137,-3.9279,-3.935,-3.9502,-3.9693,-3.9758,-3.9845,-3.9889,-3.9889,-3.9889,-3.9889,-3.9889,-4.0426,-4.1307,-4.1307,-4.2383,-4.4018,-4.4018,-4.4573,-4.5398,-4.5398,-4.5359,-4.5297,-4.5297,-4.5297,-4.5297,-4.5297,-4.5297,-4.5297,-4.5297,-4.5297,-4.5297,-4.5297,-4.5297,-4.5105,-4.4246,-4.3405,-4.2565,-4.1705,-4.1456,-4.1397,-4.1397,-4.2022,-4.2588,-4.2607,-4.327,-4.3795,-4.3814,-4.4431,-4.4654,-4.3927,-4.4431,-4.4355,-4.2835,-4.3304,-4.3843,-4.3996,-4.3213,-4.2008,-4.0269,-4.0177,-3.9471,-3.7719,-3.7725,-3.7753,-3.7691,-3.7753,-3.7766,-3.7766,-3.7782,-3.8255,-3.9176,-3.9071,-3.9531,-4.0489,-4.0358,-4.0341,-3.2773,-3.3562,-3.3866,-3.2398,-3.1741,-3.1129,-2.9916,-2.9099,-2.8523,-2.831,-2.7949,-2.7659,-2.7617,-2.7417,-2.723,-2.7166,-2.7055,-2.7125,-2.7429,-2.822,-2.892,-2.9299,-3.1951,-3.4153,-3.5214,-3.7338,-3.8658,-3.8658,-3.8552,-3.8604,-3.8892,-3.8766,-3.8795,-3.9082,-3.9101,-3.9165,-3.9298,-3.929,-3.9401,-3.9693,-3.967,-3.9758,-3.9889,-3.9889,-3.9933,-4.0036,-4.0036,-4.0613,-4.1514,-4.1514,-4.2183,-4.3254,-4.3254,-4.3771,-4.4518,-4.4518,-4.4841,-4.5297,-4.5297,-4.5297,-4.5297,-4.5297,-4.5297,-4.5297,-4.5297,-4.5297,-4.5182,-4.459,-4.4418,-4.4227,-4.3386,-4.2545,-4.1839,-4.1571,-4.1055,-4.0635,-4.0635,-4.0864,-4.134,-4.24,-4.2838,-4.3371,-4.4374,-4.482,-4.4938,-4.4649,-4.4862,-4.4871,-4.4431,-4.4147,-4.3807,-4.3292,-4.256,-4.2063,-4.2028,-4.1529,-4.0511,-3.8807,-3.8741,-3.8454,-3.7792,-3.7785,-3.7801,-3.7801,-3.7801,-3.827,-3.9278,-3.9234,-3.9706,-4.0626,-4.0549,-4.0515,-3.0963,-3.1799,-3.2115,-3.1029,-3.0504,-3.0041,-2.9368,-2.8853,-2.8408,-2.8066,-2.7706,-2.7345,-2.7021,-2.6889,-2.6858,-2.6791,-2.6892,-2.7044,-2.7283,-2.7978,-2.8876,-2.9907,-3.3212,-3.5595,-3.6049,-3.7666,-3.8707,-3.8707,-3.8822,-3.891,-3.891,-3.9017,-3.9101,-3.9101,-3.9101,-3.9192,-3.9401,-3.9324,-3.9452,-3.9807,-3.9717,-3.9758,-3.9889,-3.9889,-3.9951,-4.0036,-4.0096,-4.0634,0.0,-4.159,-4.2105,-4.2889,-4.2889,-4.3197,-4.3656,-4.3656,-4.3963,-4.4402,-4.4402,-4.4592,-4.486,-4.486,-4.505,-4.5297,-4.5297,-4.5067,-4.4704,-4.415,-4.3787,-4.3443,-4.2928,-4.2144,-4.1495,-4.1495,-4.0883,-4.031,-4.031,-4.031,-4.0597,-4.1549,-4.1987,-4.2614,-4.3855,-4.4353,-4.4608,-4.4585,-4.4893,-4.49,-4.4359,-4.4131,-4.3752,-4.3017,-4.2261,-4.2005,-4.2518,-4.1774,-4.0835,-3.9765,-3.9769,-3.9514,-3.8892,-3.8888,-3.8936,-3.8936,-3.8936,-3.9234,-3.9868,-3.9868,-4.0165,-4.0746,-4.0681,-4.0668,0.0,-2.9565,-3.0472,-2.942,-2.9021,-2.8859,-2.8854,-2.8747,0.0,-2.7498,-2.7258,-2.6936,-2.6026,-2.6104,-2.6279,-2.6243,-2.6623,-2.7097,-2.7688,-2.7958,-2.889,-3.0997,-3.4019,-3.6003,-3.6132,-3.766,-3.8676,-3.8707,-3.8822,-3.891,-3.891,-3.9017,-3.9101,-3.9101,-3.9129,-3.9272,-3.9599,-3.9477,-3.9623,-3.9996,-3.9848,-3.9826,-3.9911,-3.9911,-3.9911,-3.9954,-4.0077,-4.0576,-4.136,-4.1456,-4.2009,-4.2735,-4.2735,-4.2754,-4.2812,-4.2812,-4.285,-4.2889,-4.2889,-4.3388,-4.402,-4.4077,-4.4554,-4.5125,-4.5182,-4.4647,-4.3997,-4.394,-4.3329,-4.2698,-4.2641,-4.2011,-4.1399,-4.1399,-4.0845,-4.031,-4.031,-4.031,-4.0329,-4.0368,-4.0941,-4.1683,-4.254,-4.3319,-4.383,-4.3893,-4.4595,-4.4598,-4.3176,-4.3557,-4.3713,-4.3088,-4.2294,-4.1836,-4.1899,-4.1125,-4.0593,-4.0539,-4.0706,-4.0746,-4.0621,-4.0726,-4.079,-4.079,-4.079,-4.079,-4.079,-4.079,-4.079,-4.079,-4.079,-4.0778,-2.7486,0.0,-2.8036,-2.7702,-2.7656,-2.7818,0.0,0.0,0.0,0.0,0.0,-2.6875,-2.586,-2.5944,-2.6033,-2.5668,-2.633,-2.703,-2.7458,-2.9602,-3.1269,-3.1545,-3.4372,-3.611,-3.5713,-3.7235,-3.8368,-3.8676,-3.8881,-3.895,-3.8892,-3.9092,-3.9183,-3.9183,-3.929,-3.9401,-3.9599,-3.9623,-3.9739,-3.9996,-3.9848,-3.9889,-4.0057,-4.0057,-4.0138,-4.0289,-4.0326,-4.0475,-4.0713,-4.0748,-4.088,-4.1053,-4.1053,-4.144,-4.1965,-4.1965,-4.237,-4.2889,-4.2889,-4.3024,-4.3273,-4.3886,-4.3771,-4.3503,-4.4112,-4.4169,-4.3883,-4.3271,-4.2469,-4.1667,-4.1055,-4.075,-4.0578,-4.0578,-4.0444,-4.031,-4.031,-4.031,-4.0463,-4.1036,-4.1322,-4.1723,-4.2479,-4.3359,-4.3935,-4.3914,-4.466,-4.5185,-4.4958,-4.4497,-4.3953,-4.3294,-4.2458,-4.1718,-4.1139,-4.0875,-4.0746,-4.0733,-4.0778,-4.079,-4.0759,-4.079,-4.079,-4.079,-4.079,-4.079,-4.079,-4.079,-4.079,-4.079,-4.079,-4.079,-2.6944,-2.6674,-2.6825,-2.6758,-2.6918,-2.7267,-2.7892,0.0,0.0,0.0,0.0,-2.671,-2.549,-2.5837,-2.6229,-2.5881,-2.7004,-2.8081,-2.8612,-3.0359,-3.185,-3.2496,-3.4565,-3.6029,-3.6291,-3.739,-3.8252,-3.8676,-3.8881,-3.895,-3.8892,-3.9166,-3.9256,-3.921,-3.9452,-3.9623,-3.9693,-3.9717,-3.9848,-4.0057,-3.9911,-3.9933,-4.0117,-4.0117,-4.0177,-4.0325,-4.036,-4.0411,-4.046,-4.0492,-4.0489,-4.0489,-4.0489,-4.0761,-4.1149,-4.1149,-4.1421,-4.179,-4.179,-4.2042,-4.2485,-4.3292,-4.3216,-4.291,-4.333,-4.3177,-4.2794,-4.2316,-4.159,-4.0845,-4.0425,-4.031,-4.031,-4.031,-4.031,-4.031,-4.031,-4.031,-4.0425,-4.0826,-4.0922,-4.1323,-4.2503,-4.3116,-4.3711,-4.4457,-4.5032,-4.5399,-4.5532,-4.4801,-4.3989,-4.3284,-4.2463,-4.1641,-4.0868,-4.079,-4.079,-4.079,-4.079,-4.079,-4.079,-4.079,-4.079,-4.079,-4.0778,-4.0746,-4.0746,-4.0713,-4.0713,-4.0746,-4.0746,-4.0778,-2.6671,-2.6551,-2.6597,-2.631,-2.6491,-2.694,-2.7631,0.0,0.0,0.0,0.0,-2.6372,-2.5257,-2.5814,-2.6455,-2.6385,-2.7849,-2.9336,-3.0258,-3.0892,-3.1881,-3.3413,-3.4679,-3.5837,-3.6925,-3.7631,-3.8186,-3.8596,-3.8851,-3.895,-3.8892,-3.9212,-3.9346,-3.921,-3.9599,-3.9804,-3.9826,-3.9848,-3.9933,-4.0096,-3.9975,-3.9994,-4.0118,-4.0118,-4.0158,-4.0252,-4.0377,-4.043,-4.0411,-4.0492,-4.0489,-4.0489,-4.0489,-4.0489,-4.0489,-4.0489,-4.0489,-4.0489,-4.0489,-4.0938,-4.1654,-4.2466,-4.2639,-4.2563,-4.2603,-4.2049,-4.1379,-4.1323,-4.0826,-4.031,-4.031,-4.031,-4.031,-4.031,-4.031,-4.031,-4.031,-4.031,-4.031,-4.031,-4.031,-4.0788,-4.2335,-4.2717,-4.3349,-4.4959,-4.5323,-4.5381,-4.534,-4.4572,-4.3744,-4.2996,-4.2213,-4.1479,-4.0848,-4.079,-4.079,-4.079,-4.079,-4.079,-4.079,-4.079,-4.079,-4.079,-4.0733,-4.07,-4.0733,-4.0654,-4.0654,-4.0733,-4.0733,-4.0746,-2.6721,-2.7208,-2.7613,-2.636,-2.6036,-2.6367,-2.7437,0.0,0.0,0.0,0.0,0.0,-2.5784,-2.5805,-2.601,-2.6466,-2.7689,-2.919,-3.0896,-3.2246,-3.3152,-3.3556,-3.4968,-3.5887,-3.5875,-3.6912,-3.7774,-3.8168,-3.8695,-3.895,-3.8892,-3.9212,-3.9391,-3.9373,-3.9661,-3.9826,-3.9889,-4.0057,-4.0137,-4.0117,-4.0036,-4.0039,-4.0177,-4.0177,-4.0288,-4.0457,-4.0473,-4.0473,-4.0492,-4.0489,-4.0489,-4.0489,-4.0489,-4.0489,-4.0489,-4.0489,-4.0489,-4.0489,-4.0489,-4.0585,-4.0819,-4.1635,-4.1426,-4.0984,-4.1662,-4.1224,-4.0498,-4.0498,-4.0405,-4.031,-4.031,-4.031,-4.031,-4.031,-4.031,-4.031,-4.031,-4.031,-4.031,-4.031,-4.031,-4.0597,-4.1533,-4.2316,-4.3158,-4.4212,-4.4959,-4.5189,-4.4633,-4.3808,-4.2992,-4.224,-4.1455,-4.0913,-4.081,-4.079,-4.079,-4.079,-4.079,-4.079,-4.079,-4.079,-4.079,-4.079,-4.0733,-4.0733,-4.079,-4.0733,-4.0713,-4.079,-4.079,-4.079,-2.6464,-2.7055,-2.7656,-2.7224,-2.7811,-2.8671,0.0,0.0,0.0,0.0,0.0,-2.71,-2.6967,-2.7179,-2.7735,-2.8893,-2.8798,-2.9319,-3.1432,-3.1914,-3.2579,-3.3905,-3.4925,-3.5673,-3.6142,-3.6978,-3.7685,-3.8099,-3.8676,-3.9007,-3.9007,-3.9275,-3.9444,-3.9444,-3.9708,-3.9867,-3.9889,-4.0098,-4.0176,-4.0117,-4.0036,-4.0078,-4.0196,-4.0196,-4.0323,-4.0489,-4.0489,-4.0489,-4.0489,-4.0489,-4.0489,-4.0489,-4.0489,-4.0489,-4.0489,-4.0489,-4.0489,-4.0489,-4.0489,-4.0489,-4.0566,-4.0934,-4.0803,-4.0572,-4.0946,-4.0739,-4.0396,-4.0362,-4.0327,-4.031,-4.031,-4.031,-4.031,-4.031,-4.031,-4.031,-4.031,-4.031,-4.031,-4.031,-4.031,-4.0711,-4.1972,-4.2526,-4.3273,-4.4633,-4.4787,-4.467,-4.4421,-4.3293,-4.2377,-4.2027,-4.1281,-4.079,-4.079,-4.079,-4.079,-4.079,-4.079,-4.079,-4.079,-4.0815,-4.0796,-4.0796,-4.0732,-4.072,-4.0752,-4.0681,-4.0668,-4.0746,-4.0746,-4.0778,-2.6272,-2.6849,-2.7607,-2.8036,-2.8979,0.0,0.0,0.0,0.0,0.0,0.0,-2.8204,-2.798,-2.846,-2.9327,-3.0628,-2.9748,-2.9705,-3.2034,-3.1825,-3.2311,-3.4566,-3.5138,-3.5721,-3.6671,-3.719,-3.7703,-3.8147,-3.8707,-3.9036,-3.9101,-3.9354,-3.9495,-3.9495,-3.9773,-3.9889,-3.9889,-4.0098,-4.0176,-4.0117,-4.0057,-4.0099,-4.0196,-4.0233,-4.0341,-4.0489,-4.0489,-4.0489,-4.0489,-4.0489,-4.0489,-4.0489,-4.0489,-4.0489,-4.0489,-4.0489,-4.0489,-4.0489,-4.0489,-4.0489,-4.0489,-4.0489,-4.0489,-4.0508,-4.0495,-4.0499,-4.0502,-4.0432,-4.0382,-4.031,-4.031,-4.0291,-4.031,-4.031,-4.031,-4.031,-4.031,-4.031,-4.031,-4.031,-4.031,-4.0769,-4.224,-4.2468,-4.3024,-4.4595,-4.4306,-4.388,-4.384,-4.2763,-4.1936,-4.1738,-4.1165,-4.079,-4.079,-4.079,-4.079,-4.079,-4.079,-4.079,-4.079,-4.0808,-4.08,-4.08,-4.0725,-4.0713,-4.0725,-4.0662,-4.0654,-4.0713,-4.0713,-4.0746,-2.6277,-2.7005,-2.7994,-2.846,-2.78,0.0,-2.9772,-2.8494,0.0,-2.8756,0.0,-2.798,-2.8362,-2.8848,-2.9302,-2.9722,-2.9827,-3.0589,-3.279,-3.3102,-3.3786,-3.5501,-3.5968,-3.6333,-3.6821,-3.7283,-3.7703,-3.8147,-3.8707,-3.9036,-3.9101,-3.9354,-3.9495,-3.9495,-3.9773,-3.9867,-3.9804,-4.0077,-4.0176,-4.0117,-4.0157,-4.0196,-4.0215,-4.0325,-4.0427,-4.0489,-4.0489,-4.0489,-4.0489,-4.0489,-4.0489,-4.0489,-4.0489,-4.0489,-4.0489,-4.0489,-4.0489,-4.0489,-4.0489,-4.0489,-4.0489,-4.0489,-4.0489,-4.0489,-4.0489,-4.0495,-4.0502,-4.0502,-4.0432,-4.0381,-4.0307,-4.0309,-4.031,-4.031,-4.031,-4.031,-4.031,-4.031,-4.031,-4.031,-4.031,-4.0578,-4.1437,-4.1532,-4.1896,-4.2996,-4.3057,-4.2783,-4.224,-4.2066,-4.1718,-4.0965,-4.0829,-4.079,-4.079,-4.079,-4.079,-4.079,-4.079,-4.079,-4.079,-4.0808,-4.08,-4.08,-4.0725,-4.0725,-4.0788,-4.0726,-4.0733,-4.079,-4.079,-4.079,-2.6277,-2.7367,-2.8535,-2.8221,-2.8257,0.0,0.0,-3.0199,-2.9557,-2.9613,-2.9664,-2.9518,-2.9015,-2.976,-3.0315,-2.9883,-3.023,-3.1194,-3.3069,-3.3347,-3.399,-3.5718,-3.6105,-3.6343,-3.6533,-3.7132,-3.7632,-3.7925,-3.8609,-3.9092,-3.9328,-3.9425,-3.9527,-3.9637,-3.98,-3.9911,-3.9914,-4.0077,-4.0098,-4.0036,-4.0157,-4.0196,-4.0215,-4.0342,-4.0427,-4.0489,-4.0489,-4.0489,-4.0489,-4.0489,-4.0489,-4.0489,-4.0489,-4.0489,-4.0489,-4.0489,-4.0489,-4.0489,-4.0489,-4.0489,-4.0489,-4.0489,-4.0492,-4.0495,-4.0495,-4.0482,-4.0432,-4.0432,-4.0379,-4.0325,-4.0307,-4.0289,-4.0309,-4.0291,-4.031,-4.031,-4.031,-4.031,-4.0482,-4.1072,-4.1185,-4.1607,-4.2947,-4.2735,-4.2696,-4.3613,-4.2896,-4.2206,-4.1967,-4.1544,-4.1145,-4.0829,-4.079,-4.079,-4.079,-4.0796,-4.0796,-4.0796,-4.0796,-4.0796,-4.0796,-4.0843,-4.0856,-4.0856,-4.0804,-4.0784,-4.0804,-4.0764,-4.0778,-4.079,-4.079,-4.079,-2.7019,-2.7689,-2.8558,0.0,0.0,0.0,-3.0725,-3.0949,-3.0691,-3.0533,-3.05,-3.0389,-2.9782,-3.0302,-3.0656,-3.0213,-3.056,-3.1472,-3.3144,-3.3389,-3.4058,-3.5788,-3.6174,-3.6343,-3.6492,-3.7114,-3.7649,-3.7975,-3.867,-3.9193,-3.9495,-3.952,-3.9583,-3.9693,-3.9826,-3.9911,-3.9975,-4.0057,-4.0057,-3.9975,-4.0138,-4.0196,-4.0215,-4.036,-4.046,-4.0489,-4.0489,-4.0489,-4.0489,-4.0489,-4.0489,-4.0489,-4.0489,-4.0489,-4.0489,-4.0489,-4.0489,-4.0489,-4.0489,-4.0489,-4.0489,-4.0489,-4.0508,-4.0534,-4.0518,-4.0482,-4.0444,-4.0447,-4.0394,-4.0377,-4.0394,-4.0362,-4.029,-4.0291,-4.031,-4.031,-4.031,-4.031,-4.0517,-4.1163,-4.1313,-4.1692,-4.2823,-4.2552,-4.2376,-4.2972,-4.2152,-4.148,-4.1542,-4.1113,-4.079,-4.079,-4.079,-4.079,-4.079,-4.0796,-4.0808,-4.0808,-4.0788,-4.08,-4.0792,-4.0856,-4.0907,-4.0907,-4.0818,-4.0807,-4.0807,-4.0808,-4.079,-4.079,-4.079,-4.0636,-2.8484,-2.7987,-2.792,0.0,0.0,0.0,-2.9999,-2.9973,-2.9797,-3.1205,-3.0697,-3.0162,-3.0623,-3.0314,-3.0179,-3.0599,-3.0814,-3.1513,-3.3161,-3.3389,-3.4058,-3.5805,-3.6174,-3.6451,-3.686,-3.734,-3.7825,-3.8337,-3.8876,-3.9283,-3.9495,-3.9552,-3.9631,-3.9693,-3.9826,-3.9911,-3.9911,-4.0036,-4.0036,-3.9911,-4.0099,-4.0196,-4.0215,-4.0408,-4.0489,-4.0489,-4.0489,-4.0489,-4.0489,-4.0489,-4.0489,-4.0489,-4.0489,-4.0489,-4.0489,-4.0489,-4.0489,-4.0489,-4.0489,-4.0489,-4.0489,-4.0489,-4.0558,-4.0592,-4.0534,-4.0558,-4.0593,-4.0519,-4.0489,-4.0523,-4.0573,-4.0449,-4.031,-4.031,-4.031,-4.031,-4.031,-4.0345,-4.0413,-4.0413,-4.0479,-4.0523,-4.0523,-4.0457,-4.0454,-4.0593,-4.0559,-4.0574,-4.0759,-4.079,-4.079,-4.079,-4.079,-4.079,-4.079,-4.079,-4.079,-4.079,-4.0808,-4.0792,-4.0807,-4.0848,-4.0907,-4.0907,-4.0818,-4.0807,-4.0807,-4.0788,-4.079,-4.079,-4.0771,-4.0307,-2.6858,-2.7794,0.0,-2.8142,0.0,0.0,0.0,-3.0495,0.0,0.0,-3.1028,-3.0323,-3.0157,-3.0516,-3.0712,-3.0197,-3.0679,-3.1715,-3.3427,-3.3673,-3.4301,-3.6002,-3.6259,-3.6343,-3.6451,-3.6978,-3.7524,-3.8005,-3.8584,-3.911,-3.9571,-3.9637,-3.9712,-3.9826,-3.9954,-4.0036,-4.0036,-4.0118,-4.0118,-4.0036,-4.0234,-4.0288,-4.0215,-4.0408,-4.0489,-4.0489,-4.0489,-4.0489,-4.0489,-4.0489,-4.0489,-4.0489,-4.0489,-4.0489,-4.0489,-4.0489,-4.0489,-4.0489,-4.0489,-4.0489,-4.0523,-4.0558,-4.0539,-4.0523,-4.0558,-4.0539,-4.0519,-4.0504,-4.0489,-4.0504,-4.0523,-4.0476,-4.0427,-4.0427,-4.0413,-4.0379,-4.0427,-4.046,-4.0665,-4.1324,-4.147,-4.1692,-4.2285,-4.1914,-4.1542,-4.1575,-4.1087,-4.0726,-4.079,-4.079,-4.079,-4.079,-4.079,-4.079,-4.079,-4.0796,-4.08,-4.0804,-4.0846,-4.0856,-4.0807,-4.0848,-4.0898,-4.0898,-4.0828,-4.0807,-4.0807,-4.0188,-3.9894,-3.9874,-3.9262,-3.8837,-2.846,-2.902,0.0,-2.9777,-3.0539,-3.1228,-3.1279,-3.1231,-3.1292,-3.1743,-3.1203,-3.0647,-3.0465,-3.0791,-3.096,-3.0504,-3.0847,-3.1794,-3.3567,-3.3789,-3.4401,-3.6086,-3.6301,-3.6343,-3.6444,-3.6974,-3.7524,-3.8023,-3.8573,-3.9082,-3.9577,-3.9665,-3.9739,-3.9867,-3.9975,-4.0057,-4.0057,-4.0138,-4.0177,-4.0098,-4.0289,-4.036,-4.027,-4.0425,-4.0489,-4.0489,-4.0489,-4.0489,-4.0489,-4.0489,-4.0489,-4.0489,-4.0489,-4.0508,-4.0511,-4.0511,-4.0476,-4.046,-4.046,-4.046,-4.0476,-4.0543,-4.0539,-4.0558,-4.0588,-4.0603,-4.0598,-4.0549,-4.0549,-4.0549,-4.0598,-4.0569,-4.0489,-4.0489,-4.0476,-4.046,-4.0489,-4.0519,-4.0718,-4.1282,-4.1426,-4.1627,-4.2163,-4.1841,-4.1525,-4.1519,-4.1094,-4.0778,-4.079,-4.0778,-4.0778,-4.079,-4.079,-4.079,-4.079,-4.0796,-4.08,-4.0804,-4.0846,-4.0856,-4.0837,-4.0888,-4.0908,-4.0907,-4.0868,-4.0837,-4.0807,-4.0277,-4.001,-3.9997,-3.9475,-3.8856,-3.1578,-3.0933,-3.0147,-3.2812,-3.1981,-3.082,-3.1972,-3.1983,-3.1716,-3.1556,-3.1266,-3.1099,-3.1168,-3.1112,-3.1055,-3.119,-3.119,-3.1777,-3.3441,-3.3738,-3.4384,-3.5983,-3.6249,-3.6402,-3.6643,-3.7108,-3.7614,-3.8194,-3.867,-3.9129,-3.9533,-3.9665,-3.9739,-3.9826,-3.9954,-4.0017,-4.0017,-4.0138,-4.0196,-4.0118,-4.0326,-4.0413,-4.0394,-4.0457,-4.0489,-4.0489,-4.0489,-4.0489,-4.0489,-4.0489,-4.0489,-4.0489,-4.0489,-4.0511,-4.0502,-4.0502,-4.0449,-4.0398,-4.0398,-4.0398,-4.0396,-4.0476,-4.0539,-4.0607,-4.0588,-4.0693,-4.0759,-4.0635,-4.0621,-4.0654,-4.0778,-4.066,-4.0539,-4.0539,-4.0519,-4.0504,-4.0519,-4.0579,-4.0621,-4.0621,-4.0713,-4.079,-4.079,-4.079,-4.079,-4.079,-4.0746,-4.0733,-4.0759,-4.0733,-4.0713,-4.079,-4.079,-4.079,-4.079,-4.0803,-4.0796,-4.08,-4.08,-4.0854,-4.0897,-4.0908,-4.0907,-4.0907,-4.0898,-4.0828,-4.069,-4.0599,-4.0537,-4.0442,-4.0365,-3.9533,-2.8795,-3.0048,0.0,-3.1476,-3.1605,-3.1713,-3.1694,-3.1637,-3.1578,-3.1663,-3.1539,-3.1324,-3.1213,-3.119,-3.1151,-3.119,-3.119,-3.1551,-3.2627,-3.3356,-3.4196,-3.5177,-3.5897,-3.6402,-3.6643,-3.6948,-3.7319,-3.7877,-3.8373,-3.8876,-3.9268,-3.967,-3.9911,-4.0036,-4.0157,-4.0196,-4.0157,-4.0272,-4.0326,-4.0252,-4.0411,-4.0492,-4.0492,-4.0489,-4.0489,-4.0489,-4.0489,-4.0489,-4.0489,-4.0489,-4.0489,-4.0489,-4.0489,-4.0511,-4.0502,-4.0502,-4.0449,-4.0398,-4.0398,-4.0398,-4.0396,-4.0425,-4.0508,-4.0588,-4.0612,-4.07,-4.079,-4.0778,-4.0759,-4.0759,-4.079,-4.0778,-4.0733,-4.0733,-4.0654,-4.0607,-4.07,-4.0746,-4.0759,-4.0759,-4.079,-4.079,-4.079,-4.079,-4.079,-4.0733,-4.07,-4.0687,-4.0654,-4.0687,-4.07,-4.0733,-4.0778,-4.079,-4.079,-4.0796,-4.08,-4.0796,-4.0856,-4.0867,-4.0907,-4.0907,-4.0908,-4.0907,-4.0898,-4.0567,-3.9867,-3.9176,-3.8465,-3.7715,-3.7096,-3.6922,-2.9599,-3.0295,0.0,-3.1297,-3.1715,-3.1887,-3.1583,-3.1432,-3.1366,-3.1465,-3.1424,-3.1331,-3.1219,-3.119,-3.119,-3.119,-3.1151,-3.1444,-3.2366,-3.2849,-3.3577,-3.4895,-3.5525,-3.6128,-3.6753,-3.7027,-3.7374,-3.7913,-3.836,-3.8759,-3.9109,-3.9647,-3.9911,-3.9954,-4.0157,-4.0234,-4.0157,-4.029,-4.0325,-4.0307,-4.0425,-4.0489,-4.0489,-4.0489,-4.0489,-4.0489,-4.0489,-4.0489,-4.0489,-4.0489,-4.0489,-4.0489,-4.0489,-4.0476,-4.0449,-4.0449,-4.0398,-4.0364,-4.0364,-4.0381,-4.0396,-4.0411,-4.0476,-4.0554,-4.0549,-4.0607,-4.0713,-4.0713,-4.0746,-4.079,-4.079,-4.079,-4.079,-4.079,-4.0746,-4.0713,-4.079,-4.079,-4.079,-4.079,-4.079,-4.079,-4.079,-4.0759,-4.0746,-4.0746,-4.0687,-4.066,-4.07,-4.0668,-4.0681,-4.0739,-4.0784,-4.0808,-4.08,-4.0792,-4.0815,-4.0848,-4.0877,-4.0907,-4.0908,-4.0908,-4.0878,-4.0849,-4.0858,-4.043,-3.9544,-3.9107,-3.8407,-3.7522,-3.7085,-3.6899,-3.0813,0.0,-2.9832,-3.167,-3.2015,-3.1797,-3.1527,-3.1314,-3.119,-3.119,-3.119,-3.119,-3.119,-3.119,-3.119,-3.119,-3.1112,-3.1314,-3.2139,-3.2445,-3.3155,-3.4682,-3.533,-3.6011,-3.6917,-3.7182,-3.7503,-3.7966,-3.8314,-3.8688,-3.9036,-3.9532,-3.9826,-3.987,-4.0077,-4.0176,-4.0118,-4.0234,-4.0307,-4.0325,-4.046,-4.0489,-4.0489,-4.0489,-4.0489,-4.0489,-4.0489,-4.0489,-4.0489,-4.0508,-4.0508,-4.0508,-4.0492,-4.0444,-4.0379,-4.0396,-4.0363,-4.031,-4.031,-4.0345,-4.0396,-4.0379,-4.0427,-4.0489,-4.0489,-4.0564,-4.0635,-4.0635,-4.0713,-4.079,-4.079,-4.079,-4.079,-4.079,-4.079,-4.079,-4.079,-4.079,-4.079,-4.079,-4.079,-4.079,-4.079,-4.0733,-4.0733,-4.0759,-4.0693,-4.0665,-4.0778,-4.0681,-4.0662,-4.0788,-4.08,-4.0792,-4.0807,-4.0807,-4.0848,-4.0897,-4.0907,-4.0888,-4.0878,-4.0888,-4.0868,-4.0796,-4.0807,-4.0311,-3.929,-3.929,-3.8764,-3.7742,-3.7757,-3.7436,-2.8315,0.0,-3.131,-3.2136,-3.2259,-3.1987,-3.1388,-3.1219,-3.119,-3.119,-3.119,-3.119,-3.119,-3.119,-3.119,-3.119,-3.119,-3.1224,-3.1365,-3.2678,-3.3704,-3.3949,-3.5486,-3.6661,-3.697,-3.7182,-3.741,-3.7649,-3.7966,-3.8387,-3.8888,-3.9219,-3.9614,-4.0118,-4.0118,-4.0138,-4.0177,-4.0252,-4.0362,-4.0466,-4.0492,-4.0489,-4.0489,-4.0489,-4.0489,-4.0489,-4.0489,-4.0489,-4.0489,-4.0495,-4.0499,-4.0482,-4.0449,-4.0379,-4.0325,-4.0392,-4.0392,-4.0379,-4.0379,-4.0396,-4.0396,-4.0346,-4.0396,-4.0489,-4.0489,-4.0631,-4.0759,-4.0759,-4.079,-4.079,-4.079,-4.079,-4.079,-4.079,-4.079,-4.079,-4.079,-4.079,-4.079,-4.079,-4.0746,-4.07,-4.07,-4.07,-4.07,-4.07,-4.0687,-4.0687,-4.07,-4.0707,-4.0713,-4.0788,-4.0804,-4.0807,-4.0807,-4.0848,-4.0897,-4.0907,-4.0907,-4.0877,-4.0818,-4.0815,-4.08,-4.0803,-4.0865,-4.0081,-3.8457,-3.8457,-3.7583,-3.596,-3.5948,-3.6265,-2.8466,-3.0421,-3.2262,-3.2961,-3.2883,-3.2463,-3.2083,-3.1596,-3.119,-3.119,-3.119,-3.119,-3.119,-3.119,-3.119,-3.119,-3.1151,-3.1286,-3.189,-3.2616,-3.3488,-3.4547,-3.5144,-3.5889,-3.696,-3.6852,-3.6967,-3.7559,-3.7949,-3.8263,-3.8505,-3.9072,-3.9537,-3.9804,-4.0039,-4.0177,-4.0196,-4.0325,-4.0447,-4.0511,-4.0508,-4.0489,-4.0489,-4.0489,-4.0489,-4.0489,-4.0489,-4.0489,-4.0489,-4.0499,-4.0502,-4.0502,-4.0432,-4.0362,-4.0325,-4.0372,-4.0392,-4.0413,-4.0444,-4.0473,-4.0489,-4.0427,-4.0476,-4.0549,-4.0504,-4.0598,-4.07,-4.07,-4.0746,-4.079,-4.079,-4.079,-4.079,-4.079,-4.0778,-4.0746,-4.0746,-4.0746,-4.0733,-4.07,-4.0668,-4.0635,-4.0635,-4.0635,-4.0654,-4.07,-4.07,-4.0713,-4.0752,-4.0764,-4.0781,-4.0846,-4.0856,-4.0858,-4.0849,-4.0888,-4.0907,-4.0907,-4.0848,-4.0837,-4.0807,-4.0796,-4.0792,-4.0796,-4.082,-3.9987,-3.8241,-3.8241,-3.7328,-3.5601,-3.5608,-3.5958,-2.8628,-3.0446,-3.1973,-3.3034,-3.3144,-3.2917,-3.265,-3.2071,-3.1489,-3.1224,-3.119,-3.119,-3.119,-3.119,-3.119,-3.119,-3.1112,-3.1427,-3.2457,-3.2764,-3.3499,-3.518,-3.5074,-3.5335,-3.6664,-3.6288,-3.6346,-3.722,-3.7556,-3.7899,-3.8245,-3.8886,-3.9331,-3.9526,-3.9857,-4.01,-4.0196,-4.0413,-4.0495,-4.0489,-4.0489,-4.0489,-4.0489,-4.0489,-4.0489,-4.0489,-4.0489,-4.0489,-4.0489,-4.0482,-4.0466,-4.0485,-4.0398,-4.0326,-4.0326,-4.0375,-4.0408,-4.0425,-4.0473,-4.0549,-4.0607,-4.0519,-4.0549,-4.0588,-4.0549,-4.0579,-4.0654,-4.0654,-4.0713,-4.079,-4.079,-4.079,-4.0759,-4.0759,-4.0713,-4.0668,-4.0668,-4.0668,-4.0654,-4.0621,-4.0607,-4.0593,-4.0588,-4.0621,-4.0635,-4.0694,-4.0707,-4.0764,-4.0812,-4.0843,-4.0834,-4.0888,-4.0898,-4.0908,-4.0907,-4.0908,-4.0888,-4.0907,-4.0837,-4.0807,-4.0796,-4.0804,-4.0792,-4.0808,-4.0803,-4.0055,-3.8528,-3.8303,-3.7421,-3.5898,-3.5843,-3.6027,-2.7865,-2.8755,-2.9766,-3.1692,-3.2698,-3.3069,-3.269,-3.2581,-3.2281,-3.1365,-3.119,-3.119,-3.119,-3.119,-3.119,-3.119,-3.119,-3.1523,-3.2474,-3.3311,-3.4226,-3.529,-3.5601,-3.5794,-3.5864,-3.5382,-3.5474,-3.6399,-3.6488,-3.7068,-3.8389,-3.8517,-3.8865,-3.9575,-3.9614,-3.9797,-4.0196,-4.0408,-4.0489,-4.0489,-4.0489,-4.0489,-4.0489,-4.0489,-4.0489,-4.0489,-4.0489,-4.0489,-4.0508,-4.043,-4.0415,-4.0398,-4.0328,-4.0291,-4.031,-4.0379,-4.0441,-4.0496,-4.0504,-4.0583,-4.0673,-4.0534,-4.0549,-4.0588,-4.0607,-4.07,-4.079,-4.079,-4.079,-4.079,-4.079,-4.0746,-4.07,-4.07,-4.0654,-4.0621,-4.0621,-4.0621,-4.0588,-4.0588,-4.0598,-4.0603,-4.0607,-4.0654,-4.0713,-4.0713,-4.0742,-4.0807,-4.0897,-4.0897,-4.0888,-4.0898,-4.0907,-4.0907,-4.0907,-4.0907,-4.0898,-4.0907,-4.0837,-4.0796,-4.08,-4.0796,-4.0803,-4.0803,-4.079,-4.0346,-3.9429,-3.86,-3.7694,-3.673,-3.6477,-3.6372,-2.7822,-2.8578,-2.9381,-3.1134,-3.2287,-3.2963,-3.3069,-3.3381,-3.3524,-3.3188,-3.3137,-3.3098,-3.3076,-3.2032,-3.1382,-3.1998,-3.2105,-3.265,-3.4241,-3.4718,-3.5283,-3.6202,-3.5591,-3.5515,-3.6653,-3.574,-3.5687,-3.7255,-3.7397,-3.7643,-3.8083,-3.8364,-3.8358,-3.8146,-3.8917,-3.9505,-3.9797,-3.9903,-3.9925,-3.9925,-3.9528,-3.966,-4.023,-3.9852,-3.9973,-4.0489,-4.0489,-4.0489,-4.0489,-4.043,-4.0398,-4.0398,-4.0328,-4.031,-4.031,-4.0381,-4.0425,-4.0519,-4.0564,-4.0654,-4.0765,-4.072,-4.072,-4.0733,-4.0733,-4.0759,-4.079,-4.079,-4.079,-4.079,-4.0746,-4.0733,-4.0687,-4.0665,-4.0617,-4.0598,-4.0598,-4.0598,-4.0583,-4.0549,-4.0539,-4.0554,-4.0583,-4.066,-4.0694,-4.0694,-4.0784,-4.0877,-4.0897,-4.0898,-4.0898,-4.0907,-4.0907,-4.0907,-4.0907,-4.0859,-4.0828,-4.0837,-4.0812,-4.0808,-4.0796,-4.0803,-4.079,-4.079,-4.079,-4.0365,-3.9507,-3.8639,-3.7932,-3.7425,-3.6725,-3.6593,-2.7175,-2.7848,-2.8615,-3.0053,-3.1091,-3.2021,-3.2934,-3.3457,-3.3835,-3.415,-3.4202,-3.4202,-3.4142,-3.3059,-3.2366,-3.3002,-3.311,-3.3658,-3.5275,-3.5505,-3.5737,-3.6414,-3.5726,-3.5595,-3.6466,-3.5492,-3.5432,-3.7016,-3.6922,-3.6994,-3.7571,-3.7838,-3.7948,-3.7849,-3.8711,-3.9333,-3.9599,-3.969,-3.9735,-3.9735,-3.9127,-3.9165,-3.9737,-3.9073,-3.925,-4.005,-4.005,-4.0239,-4.0489,-4.043,-4.0398,-4.0398,-4.0345,-4.0327,-4.0327,-4.0413,-4.0492,-4.0583,-4.0593,-4.0694,-4.0808,-4.0796,-4.0796,-4.0808,-4.0808,-4.0808,-4.0808,-4.0796,-4.0803,-4.0784,-4.0746,-4.0733,-4.0687,-4.0617,-4.0603,-4.0603,-4.0603,-4.0588,-4.0573,-4.0569,-4.0554,-4.0554,-4.0617,-4.0687,-4.072,-4.0725,-4.0826,-4.0898,-4.0898,-4.0898,-4.0907,-4.0907,-4.0898,-4.0898,-4.0898,-4.0839,-4.0807,-4.0796,-4.0788,-4.0803,-4.079,-4.079,-4.0778,-4.0706,-4.0706,-4.037,-3.973,-3.8901,-3.8358,-3.8091,-3.7412,-3.7147,0.0,0.0,0.0,-2.8319,-2.913,-3.0185,-3.2188,-3.2758,-3.3114,-3.4008,-3.4237,-3.4293,-3.4272,-3.4211,-3.4189,-3.4189,-3.4172,-3.4454,-3.5397,-3.554,-3.5619,-3.5773,-3.6074,-3.5972,-3.5171,-3.4557,-3.4595,-3.553,-3.4817,-3.5101,-3.687,-3.6942,-3.7557,-3.8849,-3.9053,-3.927,-3.9576,-3.984,-3.9963,-3.9963,-3.9354,-3.9076,-3.9057,-3.8249,-3.8358,-3.9211,-3.9211,-3.9688,-4.0489,-4.043,-4.0396,-4.0396,-4.0413,-4.0394,-4.0394,-4.0492,-4.0583,-4.07,-4.0621,-4.0681,-4.0807,-4.0812,-4.0804,-4.0807,-4.0807,-4.0807,-4.0796,-4.0812,-4.08,-4.0808,-4.0803,-4.0746,-4.0687,-4.0621,-4.0588,-4.0588,-4.0588,-4.0549,-4.0534,-4.0673,-4.0646,-4.0617,-4.0687,-4.0752,-4.08,-4.08,-4.0858,-4.0907,-4.0907,-4.0907,-4.0907,-4.0907,-4.0898,-4.0897,-4.0897,-4.0837,-4.0796,-4.08,-4.0788,-4.0796,-4.079,-4.079,-4.0687,-4.0489,-4.0489,-4.0389,-4.0196,-3.944,-3.8986,-3.8765,-3.858,-3.808,-2.6329,0.0,0.0,0.0,0.0,0.0,-3.0808,-3.2565,-3.3963,-3.4227,-3.536,-3.6303,-3.6243,-3.6204,-3.6182,-3.6182,-3.5575,-3.5471,-3.6453,-3.6732,-3.6559,-3.594,-3.5669,-3.5453,-3.5272,-3.4637,-3.4691,-3.5666,-3.5521,-3.5544,-3.5977,-3.5995,-3.6689,-3.8259,-3.801,-3.8188,-3.8942,-3.9119,-3.92,-3.9181,-3.8601,-3.8439,-3.8631,-3.7982,-3.8303,-3.9336,-3.9336,-3.9813,-4.0579,-4.0489,-4.0476,-4.0476,-4.0469,-4.0469,-4.0473,-4.0549,-4.0635,-4.07,-4.0668,-4.0718,-4.0807,-4.0796,-4.0796,-4.0807,-4.0807,-4.0807,-4.0796,-4.0812,-4.08,-4.0788,-4.0746,-4.0668,-4.0621,-4.0588,-4.0588,-4.0621,-4.0654,-4.0607,-4.0574,-4.0621,-4.064,-4.0687,-4.0688,-4.075,-4.0815,-4.0876,-4.0898,-4.0907,-4.0907,-4.0908,-4.0898,-4.0898,-4.0858,-4.0837,-4.0837,-4.0815,-4.0812,-4.08,-4.0668,-4.0564,-4.0583,-4.0441,-4.0339,-4.0286,-4.0286,-4.0196,-3.9979,-3.9242,-3.9433,-4.0409,-3.9167,-3.8118,-2.6447,-2.6364,-2.6582,-2.7479,0.0,0.0,-3.0925,-3.2671,-3.4129,-3.522,-3.6456,-3.7299,-3.7203,-3.7203,-3.7241,-3.7241,-3.6776,-3.6541,-3.7073,-3.722,-3.6996,-3.6218,-3.6256,-3.6267,-3.5942,-3.5335,-3.5209,-3.5779,-3.5186,-3.5064,-3.5634,-3.6251,-3.7127,-3.8231,-3.7958,-3.8083,-3.878,-3.8979,-3.9073,-3.9073,-3.8464,-3.8108,-3.7932,-3.7241,-3.7336,-3.806,-3.8504,-3.9181,-4.0015,-4.0414,-4.0569,-4.0539,-4.0579,-4.0579,-4.0598,-4.0675,-4.0706,-4.0742,-4.0742,-4.0784,-4.0848,-4.0848,-4.0828,-4.0839,-4.0839,-4.0839,-4.0839,-4.0815,-4.08,-4.0796,-4.0759,-4.0713,-4.0681,-4.0681,-4.0681,-4.0681,-4.0733,-4.0713,-4.0681,-4.0681,-4.07,-4.0713,-4.0745,-4.0773,-4.0818,-4.0897,-4.0908,-4.0869,-4.0787,-4.0848,-4.0826,-4.063,-4.0662,-4.0649,-4.0563,-4.0554,-4.0545,-4.0545,-4.0438,-4.0372,-4.0372,-4.0269,-4.0158,-4.008,-4.008,-4.015,-4.031,-3.9977,-4.0264,-4.1063,-3.935,-3.814,-2.6628,-2.6327,-2.6443,-2.7155,-2.7288,0.0,-3.1372,-3.2403,-3.3343,-3.5808,-3.6767,-3.7148,-3.7053,-3.7126,-3.7236,-3.729,-3.7362,-3.7377,-3.7317,-3.7334,-3.7108,-3.6488,-3.7288,-3.7566,-3.6772,-3.6195,-3.589,-3.589,-3.4522,-3.4335,-3.5856,-3.7217,-3.8096,-3.8491,-3.8478,-3.8603,-3.891,-3.9137,-3.9272,-3.9253,-3.8638,-3.7928,-3.7144,-3.6333,-3.6019,-3.6178,-3.7126,-3.8125,-3.918,-4.0102,-4.0535,-4.0622,-4.0687,-4.0713,-4.0726,-4.0784,-4.0818,-4.0818,-4.0818,-4.0848,-4.0907,-4.0907,-4.0908,-4.0907,-4.0907,-4.0907,-4.0888,-4.0818,-4.08,-4.079,-4.079,-4.079,-4.079,-4.079,-4.079,-4.079,-4.0778,-4.0778,-4.0765,-4.0733,-4.07,-4.07,-4.0764,-4.075,-4.0754,-4.0815,-4.0828,-4.0757,-4.0571,-4.0706,-4.0662,-4.0238,-4.0361,-4.0399,-4.0211,-4.0213,-4.0196,-4.0196,-4.0177,-4.0177,-4.0177,-4.0158,-4.0099,-4.0025,-4.0119,-4.0503,-4.1186,-4.1268,-4.1275,-4.1184,-3.9573,-3.8388,-2.7702,-2.7045,-2.6775,-2.7533,-2.7123,0.0,-2.8289,-2.92,-3.0133,-3.123,-3.2772,-3.4074,-3.4644,-3.4749,-3.4941,-3.5367,-3.5825,-3.6461,-3.7414,-3.7667,-3.7488,-3.6734,-3.6973,-3.6874,-3.6059,-3.5892,-3.5833,-3.5833,-3.5512,-3.581,-3.6862,-3.7207,-3.7726,-3.8566,-3.8725,-3.8833,-3.891,-3.9045,-3.9156,-3.9137,-3.8372,-3.7667,-3.6998,-3.6211,-3.6004,-3.636,-3.6439,-3.7481,-3.9109,-3.9207,-3.9819,-4.0687,-4.075,-4.0781,-4.0788,-4.0858,-4.0869,-4.0869,-4.0869,-4.0898,-4.0898,-4.0898,-4.0907,-4.0907,-4.0907,-4.0888,-4.0877,-4.0823,-4.0808,-4.079,-4.079,-4.079,-4.079,-4.079,-4.079,-4.0765,-4.0583,-4.0569,-4.0504,-4.0339,-4.0454,-4.054,-4.0574,-4.0423,-4.0319,-4.0338,-4.0354,-4.0319,-4.0271,-4.031,-4.0296,-4.021,-4.023,-4.0232,-4.0195,-4.0214,-4.0196,-4.0196,-4.004,-3.9958,-3.9958,-3.98,-4.0052,-4.0759,-4.1468,-4.2248,-4.3069,-4.2351,-4.203,-4.2059,-4.1168,-3.9958,-2.8318,-2.7623,-2.7471,-2.7844,-2.7606,0.0,0.0,-2.9589,-3.0195,-3.0879,-3.2386,-3.3599,-3.3857,-3.4372,-3.4853,-3.51,-3.5758,-3.6328,-3.6606,-3.7377,-3.779,-3.7496,-3.7543,-3.7431,-3.7033,-3.6635,-3.6236,-3.5838,-3.6227,-3.6703,-3.7179,-3.758,-3.8107,-3.8725,-3.8833,-3.8921,-3.9007,-3.9073,-3.9101,-3.9082,-3.8284,-3.7527,-3.682,-3.6021,-3.5518,-3.5339,-3.5875,-3.6901,-3.825,-3.886,-3.9706,-4.0648,-4.0694,-4.0742,-4.0815,-4.0878,-4.0907,-4.0907,-4.0907,-4.0907,-4.0907,-4.0907,-4.0898,-4.0908,-4.0908,-4.0877,-4.0834,-4.08,-4.0796,-4.079,-4.079,-4.079,-4.079,-4.079,-4.072,-4.0612,-4.0519,-4.0425,-4.0321,-4.0233,-4.0195,-4.023,-4.0332,-4.0279,-4.0189,-4.0204,-4.0204,-4.017,-4.0062,-4.0138,-4.012,-3.9918,-3.9981,-4.0,-3.9914,-3.9914,-3.9914,-3.9914,-3.9823,-3.9754,-3.9754,-3.9684,-3.9873,-4.0382,-4.1213,-4.2087,-4.2967,-4.2918,-4.2943,-4.2972,-4.2234,-4.1233,-2.8948,-2.8167,-2.8015,-2.822,-2.8152,-2.8442,0.0,0.0,0.0,-3.1583,-3.2633,-3.345,-3.3371,-3.4092,-3.4741,-3.4825,-3.552,-3.5908,-3.5453,-3.6386,-3.725,-3.7551,-3.8002,-3.8165,-3.7824,-3.7207,-3.6681,-3.6386,-3.6765,-3.7168,-3.7509,-3.8131,-3.8634,-3.8921,-3.8921,-3.9007,-3.9101,-3.9101,-3.9101,-3.9082,-3.8135,-3.7318,-3.6668,-3.5683,-3.4872,-3.433,-3.5286,-3.6345,-3.7451,-3.8511,-3.9595,-4.0602,-4.0636,-4.073,-4.0818,-4.0869,-4.0907,-4.0907,-4.0907,-4.0907,-4.0907,-4.0898,-4.0878,-4.0877,-4.0886,-4.0834,-4.08,-4.0788,-4.0796,-4.079,-4.079,-4.0778,-4.0733,-4.0733,-4.0583,-4.0441,-4.0389,-4.0269,-4.0139,-4.01,-3.9937,-3.9895,-4.012,-4.0101,-4.0082,-4.0081,-4.0062,-4.0043,-3.9857,-3.9983,-3.9962,-3.9631,-3.975,-3.9777,-3.9602,-3.9602,-3.9602,-3.9626,-3.9626,-3.965,-3.965,-3.9882,-4.0027,-4.0072,-4.0877,-4.1633,-4.2323,-4.3047,-4.3583,-4.3933,-4.3149,-4.2316,-3.0277,-2.8856,-2.7994,-2.8723,-2.8367,-2.808,-2.8979,0.0,-2.9782,-3.0521,0.0,-3.1377,-3.1984,0.0,0.0,-3.2767,-3.3336,-3.3899,-3.4246,-3.436,-3.4684,-3.5287,-3.7278,-3.7997,-3.6419,-3.617,-3.6754,-3.8261,-3.7088,-3.7,-3.863,-3.8778,-3.8921,-3.9073,-3.9073,-3.9073,-3.9101,-3.9101,-3.9101,-3.9082,-3.7559,-3.6779,-3.6649,-3.507,-3.4409,-3.4558,-3.457,-3.5752,-3.7656,-3.7696,-3.8857,-4.0623,-4.0804,-4.0867,-4.0888,-4.0898,-4.0907,-4.0907,-4.0907,-4.0907,-4.0907,-4.0898,-4.0848,-4.0807,-4.0812,-4.08,-4.0788,-4.0803,-4.0803,-4.079,-4.079,-4.066,-4.0519,-4.0519,-4.0372,-4.0196,-4.0,-3.9937,-3.9892,-3.9703,-3.965,-3.9703,-3.9895,-3.98,-3.9679,-3.9679,-3.9661,-3.9679,-3.9631,-3.9656,-3.9656,-3.9602,-3.9626,-3.9626,-3.9602,-3.9602,-3.9631,-3.967,-3.9693,-3.9735,-3.9867,-4.0672,-4.1092,-4.1026,-4.1908,-4.2363,-4.2389,-4.2553,-4.3392,-4.4839,-4.403,-4.3219,-3.0556,-3.0014,-2.9726,-2.9238,-2.9242,-2.9382,-2.935,-2.9506,-2.9729,-3.004,0.0,0.0,0.0,0.0,0.0,0.0,-3.3158,-3.3404,-3.2809,-3.3602,-3.4289,-3.4398,-3.5151,-3.5709,-3.5982,-3.6949,-3.7833,-3.8491,-3.8058,-3.8085,-3.8873,-3.884,-3.8881,-3.9101,-3.9017,-3.9017,-3.9101,-3.9101,-3.9101,-3.9082,-3.7466,-3.6686,-3.663,-3.4959,-3.4269,-3.4363,-3.4473,-3.5284,-3.6608,-3.7319,-3.8378,-3.9643,-4.0342,-4.0718,-4.0907,-4.0898,-4.0907,-4.0907,-4.0907,-4.0898,-4.0898,-4.0846,-4.0823,-4.0792,-4.0808,-4.0796,-4.0771,-4.066,-4.0631,-4.0598,-4.0489,-4.0389,-4.0321,-4.0321,-4.0177,-4.0,-3.9914,-3.9823,-3.9703,-3.9626,-3.9602,-3.9626,-3.9703,-3.9674,-3.9602,-3.9602,-3.9602,-3.9602,-3.9602,-3.9602,-3.9602,-3.9602,-3.9602,-3.9602,-3.9602,-3.9631,-3.9665,-3.9693,-3.9739,-3.9804,-3.9889,-4.023,-4.0442,-4.0504,-4.1342,-4.18,-4.1756,-4.2297,-4.3178,-4.4341,-4.3547,-4.349,-3.1167,-3.1074,-3.1057,-3.008,-3.0172,-3.0451,-3.0214,-3.0317,-3.0469,-3.0469,-3.1124,0.0,0.0,0.0,-3.2473,-3.2473,0.0,-3.2714,-3.1679,-3.2313,-3.2903,-3.2854,-3.2763,-3.3415,-3.5297,-3.6564,-3.7473,-3.7906,-3.8169,-3.8487,-3.8931,-3.8851,-3.8881,-3.9045,-3.8979,-3.8979,-3.9045,-3.9073,-3.9101,-3.9082,-3.7466,-3.6686,-3.663,-3.4959,-3.4221,-3.4269,-3.4473,-3.5052,-3.5967,-3.7148,-3.8151,-3.901,-4.0002,-4.0684,-4.1098,-4.1083,-4.1219,-4.1362,-4.1129,-4.0947,-4.0761,-4.0675,-4.0675,-4.0707,-4.064,-4.0646,-4.0617,-4.0457,-4.0425,-4.0372,-4.0251,-4.0158,-4.012,-4.012,-3.9958,-3.9823,-3.9823,-3.9703,-3.9602,-3.9602,-3.9602,-3.9602,-3.9602,-3.9602,-3.9602,-3.9602,-3.9602,-3.9602,-3.9602,-3.9602,-3.9602,-3.9631,-3.9631,-3.9631,-3.9698,-3.9731,-3.9762,-3.9785,-3.9848,-3.9911,-3.9954,-3.9889,-3.9892,-3.9996,-4.0602,-4.0924,-4.0924,-4.1825,-4.2726,-4.355,-4.3188,-4.3819,-3.2645,-3.1873,-3.1334,-3.1411,-3.0959,-3.0656,-3.1376,-3.1842,-3.2109,-3.2109,-3.23,-3.2454,-3.2454,-3.2439,-3.2388,-3.2388,-3.1723,0.0,0.0,-3.0015,-2.9349,-2.9872,-3.0495,-3.1746,-3.3954,-3.3935,-3.4596,-3.6597,-3.676,-3.7448,-3.9008,-3.9101,-3.9017,-3.8892,-3.9017,-3.9017,-3.891,-3.9036,-3.9101,-3.9082,-3.7466,-3.6686,-3.663,-3.4959,-3.4269,-3.4386,-3.4386,-3.5122,-3.6329,-3.7166,-3.8165,-3.9273,-4.0065,-4.0896,-4.1577,-4.1577,-4.2023,-4.2525,-4.1757,-4.1056,-4.0477,-4.0281,-4.0353,-4.0473,-4.0286,-4.0233,-4.0214,-4.0214,-4.0214,-4.0214,-4.0214,-4.006,-3.9914,-3.9914,-3.9754,-3.9602,-3.9602,-3.9602,-3.9602,-3.9602,-3.9602,-3.9602,-3.9602,-3.9602,-3.9602,-3.9602,-3.9602,-3.9602,-3.9602,-3.9602,-3.9607,-3.9693,-3.9693,-3.9739,-3.9889,-3.9889,-3.9911,-3.9975,-4.0057,-4.0077,-4.0077,-4.0036,-3.9996,-3.9996,-3.9951,-3.9949,-3.9949,-4.095,-4.1869,-4.2648,-4.3471,-4.4374,-3.2942,-3.3043,-3.3102,-3.2315,-3.2422,-3.2599,-3.2102,-3.2161,-3.2336,-3.2405,-3.2456,-3.2507,-3.2457,-3.2422,-3.2406,-3.2406,-3.1705,-3.1003,0.0,-2.9105,-2.834,-2.8828,-2.9942,-3.1034,-3.1964,-3.4073,-3.5614,-3.6195,-3.7516,-3.8525,-3.9064,-3.8884,-3.8855,-3.9017,-3.8855,-3.8855,-3.9017,-3.9073,-3.9101,-3.9082,-3.8005,-3.7206,-3.6649,-3.5553,-3.476,-3.4269,-3.4363,-3.4648,-3.5179,-3.6721,-3.7583,-3.808,-3.9509,-4.0857,-4.1955,-4.1703,-4.1737,-4.1779,-4.0918,-4.0494,-4.0281,-4.0212,-4.025,-4.0286,-4.0233,-4.0196,-4.0177,-4.004,-4.0,-3.9958,-3.9826,-3.9754,-3.9703,-3.9703,-3.965,-3.9602,-3.9602,-3.9602,-3.9602,-3.9602,-3.9602,-3.9602,-3.9602,-3.9631,-3.9661,-3.9602,-3.9631,-3.9684,-3.9684,-3.9754,-3.98,-3.9826,-3.9826,-3.9848,-3.9889,-3.9933,-3.9975,-3.9996,-4.0017,-3.9996,-3.9973,-3.9933,-3.9933,-3.9933,-3.9954,-4.0281,-4.0893,-4.1222,-4.2141,-4.3535,-4.3842,-4.4454,-3.3648,-3.409,-3.4313,-3.327,-3.3579,-3.3848,-3.2841,-3.2704,-3.2809,-3.2844,-3.2667,-3.2615,-3.3108,-3.2774,-3.2493,-3.2757,-3.1897,-3.0876,0.0,-2.8664,-2.7979,-2.8406,-2.9112,-2.9951,-3.0875,-3.3076,-3.4869,-3.5985,-3.7424,-3.8488,-3.9064,-3.8844,-3.8785,-3.8989,-3.8737,-3.8737,-3.8989,-3.9017,-3.9045,-3.9045,-3.8284,-3.7607,-3.7015,-3.6252,-3.5442,-3.4624,-3.4782,-3.4685,-3.4589,-3.6155,-3.7165,-3.7867,-3.9296,-4.1009,-4.2561,-4.202,-4.1759,-4.1563,-4.0705,-4.027,-4.0081,-4.002,-4.004,-4.008,-4.0,-3.9979,-3.9958,-3.9826,-3.98,-3.9754,-3.9626,-3.9602,-3.9602,-3.9602,-3.9602,-3.9602,-3.9602,-3.9602,-3.962,-3.9645,-3.9645,-3.9626,-3.9656,-3.9708,-3.9712,-3.9656,-3.9712,-3.9781,-3.9781,-3.9867,-3.9889,-3.9889,-3.9933,-3.9994,-3.9996,-3.9996,-3.9996,-3.9996,-3.9975,-3.9954,-3.9911,-3.9889,-4.0063,-4.0388,-4.0431,-4.0912,-4.1831,-4.2139,-4.2867,-4.3956,-4.4302,-4.4701]}]]